[[{"header":{"parameterUnit":"m.s-1","parameterCategory":1,"la1":30.6,"la2":28.766,"lo1":-90.7593,"lo2":-88.6598,"dy":0.0162,"dx":0.0183,"nx":116,"ny":114,"refTime":"2023-07-30T12:00:00:Z","depth":0,"parameterNumber":2,"parameterNumberName":"U-component_of_WINDS"},"data":[0.0,0.0,0.0,0.0,0.0,0.0,0.0,0.0,0.0,0.0,0.0,0.0,0.0,0.0,0.0,0.0,0.0,0.0,0.0,0.0,0.0,0.0,0.0,0.0,0.0,0.0,0.0,0.0,0.0,0.0,0.0,0.0,0.0,0.0,0.0,0.0,0.0,0.0,0.0,0.0,0.0,0.0,0.0,0.0,0.0,0.0,0.0,0.0,0.0,0.0,0.0,0.0,0.0,0.0,0.0,0.0,0.0,0.0,0.0,0.0,0.0,0.0,0.0,0.0,0.0,0.0,0.0,0.0,0.0,0.0,0.0,0.0,0.0,0.0,0.0,0.0,0.0,0.0,0.0,0.0,0.0,0.0,0.0,0.0,0.0,0.0,0.0,0.0,0.0,0.0,0.0,0.0,0.0,0.0,0.0,0.0,0.0,0.0,0.0,0.0,0.0,0.0,0.0,0.0,0.0,0.0,0.0,0.0,0.0,0.0,0.0,0.0,0.0,0.0,0.0,0.0,0.0,0.0,0.0,0.0,0.0,0.0,0.0,0.0,0.0,0.0,0.0,0.0,0.0,0.0,0.0,0.0,0.0,0.0,0.0,0.0,0.0,0.0,0.0,0.0,0.0,0.0,0.0,0.0,0.0,0.0,0.0,0.0,0.0,0.0,0.0,0.0,0.0,0.0,0.0,0.0,0.0,0.0,0.0,0.0,0.0,0.0,0.0,0.0,0.0,0.0,0.0,0.0,0.0,0.0,0.0,0.0,0.0,0.0,0.0,0.0,0.0,0.0,0.0,0.0,0.0,0.0,0.0,0.0,0.0,0.0,0.0,0.0,0.0,0.0,0.0,0.0,0.0,0.0,0.0,0.0,0.0,0.0,0.0,0.0,0.0,0.0,0.0,0.0,0.0,0.0,0.0,0.0,0.0,0.0,0.0,0.0,0.0,0.0,0.0,0.0,0.0,0.0,0.0,0.0,0.0,0.0,0.0,0.0,0.0,0.0,0.0,0.0,0.0,0.0,0.0,0.0,0.0,0.0,0.0,0.0,0.0,0.0,0.0,0.0,0.0,0.0,0.0,0.0,0.0,0.0,0.0,0.0,0.0,0.0,0.0,0.0,0.0,0.0,0.0,0.0,0.0,0.0,0.0,0.0,0.0,0.0,0.0,0.0,0.0,0.0,0.0,0.0,0.0,0.0,0.0,0.0,0.0,0.0,0.0,0.0,0.0,0.0,0.0,0.0,0.0,0.0,0.0,0.0,0.0,0.0,0.0,0.0,0.0,0.0,0.0,0.0,0.0,0.0,0.0,0.0,0.0,0.0,0.0,0.0,0.0,0.0,0.0,0.0,0.0,0.0,0.0,0.0,0.0,0.0,0.0,0.0,0.0,0.0,0.0,0.0,0.0,0.0,0.0,0.0,0.0,0.0,0.0,0.0,0.0,0.0,0.0,0.0,0.0,0.0,0.0,0.0,0.0,0.0,0.0,0.0,0.0,0.0,0.0,0.0,0.0,0.0,0.0,0.0,0.0,0.0,0.0,0.0,0.0,0.0,0.0,0.0,0.0,0.0,0.0,0.0,0.0,0.0,0.0,0.0,0.0,0.0,0.0,0.0,0.0,0.0,0.0,0.0,0.0,0.0,0.0,0.0,0.0,0.0,0.0,0.0,0.0,0.0,0.0,0.0,0.0,0.0,0.0,0.0,0.0,0.0,0.0,0.0,0.0,0.0,0.0,0.0,0.0,0.0,0.0,0.0,0.0,0.0,0.0,0.0,0.0,0.0,0.0,0.0,0.0,0.0,0.0,0.0,0.0,0.0,0.0,0.0,0.0,0.0,0.0,0.0,0.0,0.0,0.0,0.0,0.0,0.0,0.0,0.0,0.0,0.0,0.0,0.0,0.0,0.0,0.0,0.0,0.0,0.0,0.0,0.0,0.0,0.0,0.0,0.0,0.0,0.0,0.0,0.0,0.0,0.0,0.0,0.0,0.0,0.0,0.0,0.0,0.0,0.0,0.0,0.0,0.0,0.0,0.0,0.0,0.0,0.0,0.0,0.0,0.0,0.0,0.0,0.0,0.0,0.0,0.0,0.0,0.0,0.0,0.0,0.0,0.0,0.0,0.0,0.0,0.0,0.0,0.0,0.0,0.0,0.0,0.0,0.0,0.0,0.0,0.0,0.0,0.0,0.0,0.0,0.0,0.0,0.0,0.0,0.0,0.0,0.0,0.0,0.0,0.0,0.0,0.0,0.0,0.0,0.0,0.0,0.0,0.0,0.0,0.0,0.0,0.0,0.0,0.0,0.0,0.0,0.0,0.0,0.0,0.0,0.0,0.0,0.0,0.0,0.0,0.0,0.0,0.0,0.0,0.0,0.0,0.0,0.0,0.0,0.0,0.0,0.0,0.0,0.0,0.0,0.0,0.0,0.0,0.0,0.0,0.0,0.0,0.0,0.0,0.0,0.0,0.0,0.0,0.0,0.0,0.0,0.0,0.0,0.0,0.0,0.0,0.0,0.0,0.0,0.0,0.0,0.0,0.0,0.0,0.0,0.0,0.0,0.0,0.0,0.0,0.0,0.0,0.0,0.0,0.0,0.0,0.0,0.0,0.0,0.0,0.0,0.0,0.0,0.0,0.0,0.0,0.0,0.0,0.0,0.0,0.0,0.0,0.0,0.0,0.0,0.0,0.0,0.0,0.0,0.0,0.0,0.0,0.0,0.0,0.0,0.0,0.0,0.0,0.0,0.0,0.0,0.0,0.0,0.0,0.0,0.0,0.0,0.0,0.0,0.0,0.0,0.0,0.0,0.0,0.0,0.0,0.0,0.0,0.0,0.0,0.0,0.0,0.0,0.0,0.0,0.0,0.0,0.0,0.0,0.0,0.0,0.0,0.0,0.0,0.0,0.0,0.0,0.0,0.0,0.0,0.0,0.0,0.0,0.0,0.0,0.0,0.0,0.0,0.0,0.0,0.0,0.0,0.0,0.0,0.0,0.0,0.0,0.0,0.0,0.0,0.0,0.0,0.0,0.0,0.0,0.0,0.0,0.0,0.0,0.0,0.0,0.0,0.0,0.0,0.0,0.0,0.0,0.0,0.0,0.0,0.0,0.0,0.0,0.0,0.0,0.0,0.0,0.0,0.0,0.0,0.0,0.0,0.0,0.0,0.0,0.0,0.0,0.0,0.0,0.0,0.0,0.0,0.0,0.0,0.0,0.0,0.0,0.0,0.0,0.0,0.0,0.0,0.0,0.0,0.0,0.0,0.0,0.0,0.0,0.0,0.0,0.0,0.0,0.0,0.0,0.0,0.0,0.0,0.0,0.0,0.0,0.0,0.0,0.0,0.0,0.0,0.0,0.0,0.0,0.0,0.0,0.0,0.0,0.0,0.0,0.0,0.0,0.0,0.0,0.0,0.0,0.0,0.0,0.0,0.0,0.0,0.0,0.0,0.0,0.0,0.0,0.0,0.0,0.0,0.0,0.0,0.0,0.0,0.0,0.0,0.0,0.0,0.0,0.0,0.0,0.0,0.0,0.0,0.0,0.0,0.0,0.0,0.0,0.0,0.0,0.0,0.0,0.0,0.0,0.0,0.0,0.0,0.0,0.0,0.0,0.0,0.0,0.0,0.0,0.0,0.0,0.0,0.0,0.0,0.0,0.0,0.0,0.0,0.0,0.0,0.0,0.0,0.0,0.0,0.0,0.0,0.0,0.0,0.0,0.0,0.0,0.0,0.0,0.0,0.0,0.0,0.0,0.0,0.0,0.0,0.0,0.0,0.0,0.0,0.0,0.0,0.0,0.0,0.0,0.0,0.0,0.0,0.0,0.0,0.0,0.0,0.0,0.0,0.0,0.0,0.0,0.0,0.0,0.0,0.0,0.0,0.0,0.0,0.0,0.0,0.0,0.0,0.0,0.0,0.0,0.0,0.0,0.0,0.0,0.0,0.0,0.0,0.0,0.0,0.0,0.0,0.0,0.0,0.0,0.0,0.0,0.0,0.0,0.0,0.0,0.0,0.0,0.0,0.0,0.0,0.0,0.0,0.0,0.0,0.0,0.0,0.0,0.0,0.0,0.0,0.0,0.0,0.0,0.0,0.0,0.0,0.0,0.0,0.0,0.0,0.0,0.0,0.0,0.0,0.0,0.0,0.0,0.0,0.0,0.0,0.0,0.0,0.0,0.0,0.0,0.0,0.0,0.0,0.0,0.0,0.0,0.0,0.0,0.0,0.0,0.0,0.0,0.0,0.0,0.0,0.0,0.0,0.0,0.0,0.0,0.0,0.0,0.0,0.0,0.0,0.0,0.0,0.0,0.0,0.0,0.0,0.0,0.0,0.0,0.0,0.0,0.0,0.0,0.0,0.0,0.0,0.0,0.0,0.0,0.0,0.0,0.0,0.0,0.0,0.0,0.0,0.0,0.0,0.0,0.0,0.0,0.0,0.0,0.0,0.0,0.0,0.0,0.0,0.0,0.0,0.0,0.0,0.0,0.0,0.0,0.0,0.0,0.0,0.0,0.0,0.0,0.0,0.0,0.0,0.0,0.0,0.0,0.0,0.0,0.0,0.0,0.0,0.0,0.0,0.0,0.0,0.0,0.0,0.0,0.0,0.0,0.0,0.0,0.0,0.0,0.0,0.0,0.0,0.0,0.0,0.0,0.0,0.0,0.0,0.0,0.0,0.0,0.0,0.0,0.0,0.0,0.0,0.0,0.0,0.0,0.0,0.0,0.0,0.0,0.0,0.0,0.0,0.0,0.0,0.0,0.0,0.0,0.0,0.0,0.0,0.0,0.0,0.0,0.0,0.0,0.0,0.0,0.0,0.0,0.0,0.0,0.0,0.0,0.0,0.0,0.0,0.0,0.0,0.0,0.0,0.0,0.0,0.0,0.0,0.0,0.0,0.0,0.0,0.0,0.0,0.0,0.0,0.0,0.0,0.0,0.0,0.0,0.0,0.0,0.0,0.0,0.0,0.0,0.0,0.0,0.0,0.0,0.0,0.0,0.0,0.0,0.0,0.0,0.0,0.0,0.0,0.0,0.0,0.0,0.0,0.0,0.0,0.0,0.0,0.0,0.0,0.0,0.0,0.0,0.0,0.0,0.0,0.0,0.0,0.0,0.0,0.0,0.0,0.0,0.0,0.0,0.0,0.0,0.0,0.0,0.0,0.0,0.0,0.0,0.0,0.0,0.0,0.0,0.0,0.0,0.0,0.0,0.0,0.0,0.0,0.0,0.0,0.0,0.0,0.0,0.0,0.0,0.0,0.0,0.0,0.0,0.0,0.0,0.0,0.0,0.0,0.0,0.0,0.0,0.0,0.0,0.0,0.0,0.0,0.0,0.0,0.0,0.0,0.0,0.0,0.0,0.0,0.0,0.0,0.0,0.0,0.0,0.0,0.0,0.0,0.0,0.0,0.0,0.0,0.0,0.0,0.0,0.0,0.0,0.0,0.0,0.0,0.0,0.0,0.0,0.0,0.0,0.0,0.0,0.0,0.0,0.0,0.0,0.0,0.0,0.0,0.0,0.0,0.0,0.0,0.0,0.0,0.0,0.0,0.0,0.0,0.0,0.0,0.0,0.0,0.0,0.0,0.0,0.0,0.0,0.0,0.0,0.0,0.0,0.0,0.0,0.0,0.0,0.0,0.0,0.0,0.0,0.0,0.0,0.0,0.0,0.0,0.0,0.0,0.0,0.0,0.0,0.0,0.0,0.0,0.0,0.0,0.0,0.0,0.0,0.0,0.0,0.0,0.0,0.0,0.0,0.0,0.0,0.0,0.0,0.0,0.0,0.0,0.0,0.0,0.0,0.0,0.0,0.0,0.0,0.0,0.0,0.0,0.0,0.0,0.0,0.0,0.0,0.0,0.0,0.0,0.0,0.0,0.0,0.0,0.0,0.0,0.0,0.0,0.0,0.0,0.0,0.0,0.0,0.0,0.0,0.0,0.0,0.0,0.0,0.0,0.0,0.0,0.0,0.0,0.0,0.0,0.0,0.0,0.0,0.0,0.0,0.0,0.0,0.0,0.0,0.0,0.0,0.0,0.0,0.0,0.0,0.0,0.0,0.0,0.0,0.0,0.0,0.0,0.0,0.0,0.0,0.0,0.0,0.0,-5.1202,0.0,0.0,0.0,0.0,0.0,0.0,0.0,0.0,0.0,0.0,0.0,0.0,0.0,0.0,0.0,0.0,0.0,0.0,0.0,0.0,0.0,0.0,0.0,0.0,0.0,0.0,0.0,0.0,0.0,0.0,0.0,0.0,0.0,0.0,0.0,0.0,0.0,0.0,0.0,0.0,0.0,0.0,0.0,0.0,0.0,0.0,0.0,0.0,0.0,0.0,0.0,0.0,0.0,0.0,0.0,0.0,0.0,0.0,0.0,0.0,0.0,0.0,0.0,0.0,0.0,0.0,0.0,0.0,0.0,0.0,0.0,0.0,0.0,0.0,0.0,0.0,0.0,0.0,0.0,0.0,0.0,0.0,0.0,0.0,0.0,0.0,0.0,0.0,0.0,0.0,0.0,0.0,0.0,0.0,0.0,0.0,0.0,0.0,0.0,0.0,0.0,0.0,0.0,0.0,0.0,0.0,0.0,0.0,0.0,0.0,0.0,0.0,0.0,0.0,0.0,0.0,-5.1202,0.0,0.0,0.0,0.0,0.0,0.0,0.0,0.0,0.0,0.0,0.0,0.0,0.0,0.0,0.0,0.0,0.0,0.0,0.0,0.0,0.0,0.0,0.0,0.0,0.0,0.0,0.0,0.0,0.0,0.0,0.0,0.0,0.0,0.0,0.0,0.0,0.0,0.0,0.0,0.0,0.0,0.0,0.0,0.0,0.0,0.0,0.0,0.0,0.0,0.0,0.0,0.0,0.0,0.0,0.0,0.0,0.0,0.0,0.0,0.0,0.0,0.0,0.0,0.0,0.0,0.0,0.0,0.0,0.0,0.0,0.0,0.0,0.0,0.0,0.0,0.0,0.0,0.0,0.0,0.0,0.0,0.0,0.0,0.0,0.0,0.0,0.0,0.0,0.0,0.0,0.0,0.0,0.0,0.0,0.0,0.0,0.0,0.0,0.0,0.0,0.0,0.0,0.0,0.0,0.0,0.0,0.0,0.0,-5.1494,-5.1541,-5.1546,-5.1541,-5.1535,-5.1548,-5.1456,-5.1332,-5.1202,-5.1202,0.0,0.0,0.0,0.0,0.0,0.0,0.0,0.0,0.0,0.0,0.0,0.0,0.0,0.0,0.0,0.0,0.0,0.0,0.0,0.0,0.0,0.0,0.0,0.0,0.0,0.0,0.0,0.0,0.0,0.0,0.0,0.0,0.0,0.0,0.0,0.0,0.0,0.0,-4.3918,-4.426,-4.4452,-4.4559,-4.4985,0.0,0.0,0.0,0.0,0.0,0.0,0.0,0.0,0.0,0.0,0.0,0.0,0.0,0.0,0.0,0.0,0.0,0.0,0.0,0.0,0.0,0.0,0.0,0.0,0.0,0.0,0.0,0.0,0.0,0.0,0.0,0.0,0.0,0.0,0.0,0.0,0.0,0.0,0.0,0.0,0.0,0.0,0.0,-5.1399,-5.1404,0.0,0.0,0.0,0.0,0.0,0.0,0.0,0.0,0.0,0.0,0.0,0.0,0.0,-5.1494,-5.1312,-5.2003,-5.2313,-5.2251,-5.2945,-5.3279,-5.3272,-5.3272,-5.33,-5.3327,-5.257,0.0,-5.1202,-5.1202,0.0,0.0,0.0,0.0,0.0,0.0,0.0,0.0,0.0,0.0,0.0,0.0,0.0,0.0,0.0,0.0,0.0,0.0,0.0,0.0,0.0,0.0,0.0,0.0,0.0,0.0,0.0,0.0,0.0,0.0,0.0,0.0,0.0,0.0,0.0,0.0,-4.3032,-4.3267,-4.3526,-4.3707,-4.3931,-4.4196,-4.443,-4.4788,-4.5232,-4.5399,0.0,0.0,0.0,0.0,0.0,0.0,0.0,0.0,0.0,0.0,0.0,0.0,0.0,0.0,0.0,0.0,0.0,0.0,0.0,0.0,0.0,0.0,0.0,0.0,0.0,0.0,0.0,0.0,0.0,0.0,0.0,0.0,0.0,0.0,0.0,0.0,0.0,0.0,0.0,-5.1402,-5.1404,-5.1406,-5.1406,-5.1406,0.0,0.0,0.0,0.0,0.0,0.0,0.0,0.0,0.0,-5.1402,-5.1845,-5.2038,-5.1981,-5.2771,-5.3145,-5.3081,-5.3393,-5.353,-5.3534,-5.3538,-5.3553,-5.3575,-5.3268,-5.2926,-5.2537,-5.1579,-5.1202,-5.1202,0.0,0.0,0.0,0.0,-4.9978,-4.9182,0.0,0.0,0.0,0.0,0.0,0.0,0.0,0.0,0.0,0.0,0.0,0.0,0.0,0.0,0.0,-4.0655,0.0,0.0,0.0,0.0,0.0,0.0,0.0,0.0,0.0,0.0,0.0,0.0,-4.2472,-4.271,-4.3124,-4.316,-4.3408,-4.3795,-4.3905,-4.4318,-4.4922,-4.5137,-4.5362,0.0,0.0,0.0,0.0,0.0,0.0,0.0,0.0,0.0,0.0,0.0,0.0,0.0,0.0,0.0,0.0,0.0,0.0,0.0,0.0,0.0,0.0,0.0,0.0,0.0,0.0,0.0,0.0,0.0,0.0,0.0,0.0,0.0,0.0,0.0,0.0,0.0,0.0,-5.1405,-5.1406,-5.1406,-5.1406,-5.1406,0.0,0.0,0.0,0.0,0.0,0.0,-5.1405,-5.1615,-5.172,-5.1718,-5.249,-5.2866,-5.2811,-5.3604,-5.3973,-5.3909,-5.4065,-5.4141,-5.4136,-5.4149,-5.4146,-5.4161,-5.4028,-5.3986,-5.3876,-5.2194,-5.1513,-5.1494,-5.128,-5.1202,-5.1125,-5.0464,-5.0101,-4.9707,0.0,0.0,0.0,0.0,0.0,0.0,0.0,0.0,0.0,0.0,0.0,0.0,0.0,0.0,-4.0087,-3.9977,-3.9952,-3.9952,0.0,0.0,0.0,0.0,0.0,0.0,0.0,0.0,0.0,-4.1956,-4.2113,-4.2376,-4.2649,-4.2825,-4.3032,-4.325,-4.3512,-4.3999,-4.4646,-4.491,-4.5129,-4.5342,0.0,0.0,0.0,0.0,0.0,0.0,0.0,0.0,0.0,0.0,0.0,0.0,0.0,0.0,0.0,0.0,0.0,0.0,0.0,0.0,0.0,0.0,0.0,0.0,0.0,0.0,0.0,0.0,0.0,0.0,0.0,0.0,0.0,0.0,0.0,0.0,0.0,0.0,0.0,-5.1406,-5.1406,0.0,0.0,0.0,0.0,-5.1406,-5.1406,-5.1406,-5.1405,-5.2177,-5.2607,-5.2548,-5.3327,-5.3701,-5.363,-5.4432,-5.482,-5.4754,-5.5507,-5.5877,-5.5877,-5.5877,-5.5921,-5.5924,-5.511,-5.4785,-5.4706,-5.3036,-5.2348,-5.2251,-5.1494,-5.1202,-5.1183,-5.1144,-5.06,-4.9876,0.0,0.0,0.0,0.0,0.0,0.0,0.0,0.0,0.0,0.0,0.0,0.0,0.0,-3.9635,-3.9372,-3.9319,-3.9158,-3.9104,-3.9185,0.0,0.0,0.0,0.0,0.0,0.0,0.0,-4.1221,-4.1323,-4.1468,-4.1683,-4.1956,-4.2169,-4.2416,-4.2692,-4.3014,-4.3425,-4.3923,-4.4508,-4.4875,-4.5129,-4.5428,-4.5613,0.0,0.0,0.0,0.0,0.0,0.0,0.0,0.0,0.0,0.0,0.0,0.0,0.0,0.0,0.0,0.0,0.0,0.0,0.0,0.0,0.0,0.0,0.0,0.0,0.0,0.0,0.0,0.0,0.0,0.0,0.0,0.0,0.0,0.0,0.0,0.0,0.0,-5.1406,-5.1406,0.0,-5.1406,-5.1406,-5.1406,-5.1406,-5.1914,-5.2245,-5.2236,-5.3066,-5.3484,-5.3385,-5.4144,-5.4535,-5.447,-5.5273,-5.5652,-5.5584,-5.5857,-5.6012,-5.6012,-5.6012,-5.602,-5.6018,-5.5752,-5.5652,-5.5599,-5.4469,-5.3378,-5.2376,-5.209,-5.1668,-5.1202,-5.1202,-5.1008,-5.0653,0.0,0.0,0.0,0.0,0.0,0.0,0.0,0.0,0.0,0.0,0.0,-3.9705,-3.9425,-3.9077,-3.8832,-3.8794,-3.8655,-3.8528,-3.8567,0.0,0.0,0.0,0.0,0.0,0.0,-4.0345,-4.0566,-4.0724,-4.0884,-4.1117,-4.1408,-4.1525,-4.1792,-4.2151,-4.2436,-4.2788,-4.3196,-4.3852,-4.4402,-4.4862,-4.5148,-4.5352,-4.5509,0.0,0.0,0.0,0.0,0.0,0.0,0.0,0.0,0.0,0.0,0.0,0.0,0.0,0.0,0.0,0.0,0.0,0.0,0.0,0.0,0.0,0.0,0.0,0.0,0.0,0.0,0.0,0.0,0.0,0.0,0.0,0.0,0.0,0.0,-5.0996,-5.1094,-5.1367,-5.1406,-5.1406,-5.1406,-5.1406,-5.1523,-5.1816,-5.2363,-5.2967,-5.3541,-5.4387,-5.4937,-5.5117,-5.5889,-5.6272,-5.618,-5.6432,-5.6499,-5.6429,-5.6139,-5.6012,-5.6012,-5.6012,-5.6012,-5.6012,-5.6037,-5.6073,-5.5996,-5.5211,-5.404,-5.275,-5.2505,-5.1909,-5.1202,-5.1202,-5.1202,-5.1107,0.0,0.0,0.0,0.0,0.0,0.0,0.0,0.0,0.0,0.0,-3.967,-3.9249,-3.8832,-3.8667,-3.85,-3.8363,-3.8335,-3.8262,-3.8087,-3.8234,0.0,0.0,0.0,0.0,-3.9179,-3.9504,-3.9825,-4.0145,-4.0353,-4.0638,-4.0954,-4.0977,-4.1186,-4.1582,-4.1792,-4.2113,-4.2519,-4.2959,-4.367,-4.4472,-4.4831,-4.5096,-4.5283,0.0,0.0,0.0,0.0,0.0,0.0,0.0,0.0,0.0,0.0,0.0,0.0,0.0,0.0,0.0,0.0,0.0,0.0,0.0,0.0,0.0,0.0,0.0,0.0,0.0,0.0,0.0,0.0,0.0,0.0,0.0,0.0,0.0,-5.0078,-5.0195,-5.0508,-5.1308,-5.1406,-5.1406,-5.1406,-5.1406,-5.1758,-5.2637,-5.2754,-5.3534,-5.5245,-5.6126,-5.6946,-5.7706,-5.8493,-5.8843,-5.8707,-5.7873,-5.7398,-5.7288,-5.6457,-5.6031,-5.6012,-5.6012,-5.6012,-5.6012,-5.5973,-5.5993,-5.5935,-5.5133,-5.4297,-5.3464,-5.2692,-5.191,-5.1196,-5.1202,-5.1216,-5.1192,0.0,0.0,0.0,0.0,0.0,0.0,0.0,0.0,0.0,0.0,-3.9435,-3.8898,-3.8343,-3.7886,-3.7506,-3.7342,-3.7118,-3.7059,-3.7074,0.0,0.0,0.0,0.0,0.0,-3.8551,-3.8871,-3.9142,-3.9329,-3.947,-3.9731,-4.0054,-4.0311,-4.058,-4.089,-4.1237,-4.1578,-4.1948,-4.2366,-4.2886,-4.3473,-4.4209,-4.4612,-4.4812,0.0,0.0,0.0,0.0,0.0,0.0,0.0,0.0,0.0,0.0,0.0,0.0,0.0,0.0,0.0,0.0,0.0,0.0,0.0,0.0,0.0,0.0,0.0,0.0,0.0,0.0,0.0,0.0,0.0,0.0,0.0,-4.7965,-4.8475,-4.998,-5.0195,-5.0508,-5.1308,-5.1406,-5.1406,-5.1406,-5.1406,-5.1758,-5.2637,-5.3867,-5.5057,-5.6118,-5.7576,-5.844,-5.8564,-5.8773,-5.8867,-5.8772,-5.8532,-5.806,-5.7359,-5.7127,-5.6665,-5.6012,-5.6012,-5.6012,-5.5973,-5.5374,-5.547,-5.5935,-5.5139,-5.4652,-5.4316,-5.2924,-5.1878,-5.1133,-5.1171,-5.1541,-5.2064,0.0,0.0,0.0,0.0,0.0,0.0,0.0,0.0,0.0,0.0,-3.9339,-3.8733,-3.8017,-3.7433,-3.7059,-3.683,-3.6616,-3.6492,-3.6492,0.0,0.0,0.0,0.0,-3.7709,-3.7709,-3.8185,-3.8483,-3.8623,-3.8827,-3.9088,-3.9319,-3.9523,-3.9765,-4.0045,-4.0375,-4.0761,-4.1185,-4.1635,-4.2101,-4.2599,-4.3263,-4.3906,-4.4457,-4.4739,-4.4992,-4.5253,-4.5454,-4.5634,-4.5796,-4.5928,0.0,0.0,0.0,0.0,0.0,0.0,0.0,0.0,0.0,0.0,0.0,0.0,0.0,0.0,0.0,0.0,0.0,0.0,0.0,0.0,0.0,0.0,0.0,0.0,-4.706,-4.7669,-4.9413,-4.9668,-5.0097,-5.1269,-5.1406,-5.1406,-5.1406,-5.1738,-5.2305,-5.3183,-5.4512,-5.5819,-5.7021,-5.8013,-5.8695,-5.8964,-5.8951,-5.8919,-5.8836,-5.848,-5.7838,-5.6889,-5.6525,-5.5854,-5.4954,-5.4957,-5.4948,-5.4929,-5.4465,-5.4523,-5.489,-5.4039,-5.3939,0.0,0.0,0.0,0.0,0.0,-5.2499,-5.2916,0.0,0.0,0.0,0.0,0.0,0.0,0.0,0.0,0.0,0.0,0.0,-3.8689,-3.7801,-3.7285,-3.6892,-3.6662,-3.6507,-3.632,0.0,0.0,0.0,-3.6429,-3.6693,-3.6814,-3.6814,-3.7431,-3.7828,-3.7956,-3.8242,-3.8511,-3.8694,-3.8706,-3.8871,-3.9152,-3.9401,-3.98,-4.0326,-4.0825,-4.1333,-4.1817,-4.2239,-4.3069,-4.4117,-4.4388,-4.472,-4.503,-4.518,-4.5381,-4.5579,-4.5728,0.0,0.0,0.0,0.0,0.0,0.0,0.0,0.0,0.0,0.0,0.0,0.0,0.0,0.0,0.0,0.0,0.0,0.0,0.0,0.0,0.0,0.0,0.0,0.0,-4.6285,-4.6898,-4.8647,-4.8883,-4.951,-5.1191,-5.1406,-5.1406,-5.1406,-5.2187,-5.3066,-5.3926,-5.4902,-5.6152,-5.781,0.0,0.0,0.0,0.0,-5.8987,-5.8913,-5.8148,-5.7247,-5.62,-5.5421,-5.4505,-5.3503,-5.3503,-5.3506,-5.3478,-5.3401,-5.3401,-5.342,-5.2558,-5.2705,-5.3583,-5.4351,-5.4265,-5.3702,-5.3793,-5.3799,-5.3742,0.0,0.0,0.0,0.0,0.0,0.0,0.0,0.0,0.0,-4.04,-3.9636,-3.881,-3.7943,-3.7282,-3.6738,-3.6321,-3.6022,-3.5847,0.0,0.0,-3.6068,-3.6115,-3.6242,-3.6352,-3.6352,-3.6616,-3.6876,-3.7131,-3.7207,-3.7504,-3.8087,-3.8185,-3.8399,-3.8706,-3.8871,-3.9179,-3.961,-4.0053,-4.0546,-4.1065,-4.1626,-4.2444,-4.3353,-4.3724,-4.4084,-4.4416,-4.4701,-4.4988,-4.5235,-4.549,-4.5646,-4.5763,-4.5904,0.0,0.0,0.0,0.0,0.0,0.0,0.0,0.0,0.0,0.0,0.0,0.0,0.0,0.0,0.0,0.0,0.0,0.0,0.0,0.0,-4.6141,-4.6135,-4.6766,-4.8578,-4.8821,-4.9461,-5.1191,-5.1406,-5.1406,-5.1406,-5.2187,-5.3066,-5.3926,-5.5469,-5.6797,-5.7849,-5.8552,-5.8976,-5.9095,-5.9091,-5.9051,-5.8972,-5.8799,-5.7917,-5.6275,0.0,0.0,-5.3587,-5.3522,-5.3511,-5.3459,-5.2763,-5.284,-5.342,-5.2558,-5.2705,-5.3525,-5.3693,-5.3722,-5.3773,-5.444,-5.4664,-5.473,0.0,0.0,0.0,0.0,0.0,0.0,0.0,0.0,0.0,0.0,-4.0019,-3.9129,-3.8197,-3.7533,-3.6921,-3.6414,-3.5943,0.0,0.0,-3.5718,-3.5733,-3.5733,-3.5863,-3.5943,-3.5943,-3.6211,-3.643,-3.6554,-3.6662,-3.6876,-3.7194,-3.7268,-3.746,-3.7767,-3.7985,-3.8355,-3.8799,-3.9295,-3.98,-4.0326,-4.0838,-4.1525,-4.2324,-4.2996,-4.3488,-4.3896,-4.4194,-4.4474,-4.4745,-4.508,-4.5314,-4.5479,-4.5691,-4.5829,-4.5908,0.0,0.0,0.0,0.0,0.0,0.0,0.0,0.0,0.0,0.0,0.0,0.0,0.0,0.0,-4.6042,-4.6042,0.0,-4.6051,-4.6087,-4.6103,-4.6874,-4.9137,-4.9077,-4.9451,-5.119,-5.1406,-5.1406,-5.1406,-5.2578,-5.3535,-5.3965,-5.5605,-5.6797,-5.7226,-5.7656,-5.7888,-5.7843,-5.7841,-5.7814,-5.7746,-5.7749,-5.6858,-5.5102,-5.5068,-5.4107,-5.235,-5.2276,-5.2252,-5.2214,-5.1745,-5.1796,-5.2202,-5.2202,-5.2461,-5.2887,-5.3328,-5.3821,-5.4365,-5.5234,-5.5535,-5.5552,0.0,0.0,0.0,0.0,0.0,0.0,0.0,0.0,0.0,0.0,-4.0494,-3.9612,-3.864,-3.7998,-3.7342,0.0,0.0,0.0,0.0,-3.5636,-3.5537,-3.5504,-3.5589,-3.5671,-3.5671,-3.5926,-3.6085,-3.6101,-3.6289,-3.6383,-3.6445,-3.6445,-3.6508,-3.6658,-3.6944,-3.7329,-3.7821,-3.8394,-3.903,-3.9662,-4.012,-4.0659,-4.1288,-4.2103,-4.2774,-4.3333,-4.3638,-4.3927,-4.4246,-4.4624,-4.4884,-4.511,-4.5389,-4.5563,-4.5703,-4.5783,-4.5821,0.0,0.0,0.0,0.0,0.0,0.0,0.0,0.0,-4.5964,-4.5958,-4.5964,-4.5964,-4.5964,-4.5964,-4.5964,-4.5986,-4.6052,-4.6066,-4.6997,-4.9685,-4.9321,-4.9486,-5.1416,-5.1499,-5.1405,-5.1406,-5.2812,-5.3828,-5.3984,-5.5469,-5.6426,-5.6582,-5.6601,-5.6601,-5.66,-5.66,-5.6578,-5.6528,-5.6343,-5.5484,-5.3923,-5.3685,-5.2709,-5.1128,-5.1056,-5.1016,-5.0993,-5.0921,-5.0898,-5.0956,-5.166,-5.195,-5.2028,-5.2898,-5.3677,-5.4413,-5.5361,-5.5772,-5.5799,0.0,0.0,0.0,0.0,0.0,0.0,0.0,0.0,0.0,0.0,0.0,0.0,0.0,0.0,0.0,0.0,0.0,0.0,-3.5973,-3.5799,-3.5621,-3.5504,-3.5504,-3.5537,-3.5537,-3.5554,-3.5636,-3.5752,-3.5784,-3.5943,-3.6242,-3.6242,-3.6029,-3.5674,-3.5825,-3.615,-3.6629,-3.711,-3.8008,-3.9158,-3.9713,-4.0179,-4.0546,-4.0885,-4.1682,-4.2657,-4.3051,-4.3439,-4.3804,-4.4087,-4.436,-4.4637,-4.4889,-4.511,-4.5294,-4.5498,-4.5579,-4.565,-4.5713,-4.5768,-4.5815,-4.5815,-4.5814,-4.5812,0.0,-4.5826,-4.5831,-4.5821,-4.5827,-4.5827,-4.5827,-4.5827,-4.5841,-4.5899,-4.5911,-4.6862,-4.9557,-4.9216,-4.9652,-5.218,-5.1833,-5.1401,-5.1405,-5.2284,-5.3163,-5.3945,-5.4902,-5.5781,-5.6562,-5.6601,-5.6601,-5.6601,-5.6601,-5.6601,-5.6598,-5.5812,-5.4944,-5.3988,-5.3143,-5.2201,-5.1195,-5.1114,-5.1056,-5.1009,-5.0937,-5.0898,-5.0917,-5.1014,-5.1053,-5.113,-5.2008,-5.2403,-5.2605,-5.3542,-5.4351,-5.4715,0.0,0.0,0.0,0.0,0.0,0.0,0.0,0.0,0.0,0.0,0.0,0.0,0.0,0.0,0.0,0.0,0.0,0.0,-3.6414,-3.6148,-3.5958,-3.591,-3.5718,-3.5621,-3.5621,-3.5554,-3.5537,-3.5572,-3.5198,-3.5067,-3.5209,-3.48,-3.4576,-3.4516,-3.4652,-3.4935,-3.5301,-3.5818,-3.6465,-3.7286,-3.7824,-3.8563,-3.9394,-3.9754,-4.0498,-4.1481,-4.2142,-4.2657,0.0,0.0,-4.3818,-4.4136,-4.4414,-4.467,-4.4872,-4.4992,-4.5123,-4.5217,-4.5371,-4.5427,-4.5482,-4.5607,-4.5635,-4.5635,-4.5676,-4.5673,-4.568,-4.5677,-4.5761,-4.5791,-4.5791,-4.5793,-4.5821,-4.5893,-4.5893,-4.6997,-5.0161,-4.9476,-4.9795,-5.2936,-5.211,-5.1318,-5.1395,-5.2181,-5.2848,-5.3222,-5.4511,-5.5468,-5.582,-5.6328,-5.6601,-5.6601,-5.6601,-5.6367,-5.5859,-5.5485,-5.4602,-5.3246,-5.2852,-5.2171,-5.1265,-5.1191,-5.1103,-5.0997,-5.0966,-5.0941,-5.0898,-5.0898,-5.0898,-5.0937,-5.1312,-5.1447,-5.1629,-5.3069,-5.3476,-5.3174,0.0,0.0,0.0,0.0,0.0,0.0,0.0,0.0,0.0,0.0,0.0,0.0,0.0,0.0,0.0,0.0,0.0,0.0,0.0,-3.6569,-3.6352,-3.6211,-3.5911,-3.5752,-3.5688,-3.5572,-3.5415,-3.522,-3.4758,-3.4414,-3.4219,-3.3724,-3.3471,-3.3457,-3.3592,-3.383,-3.4183,-3.4657,-3.5269,-3.5991,-3.6519,-3.7298,-3.8229,-3.8593,-3.9183,-3.9966,-4.1243,-4.1948,0.0,0.0,-4.3122,-4.3505,-4.3822,-4.4098,-4.4337,-4.4506,-4.4663,-4.4825,-4.4966,-4.5052,-4.5156,-4.5301,-4.538,-4.5429,-4.5485,-4.5493,-4.5537,-4.5563,-4.5651,-4.5727,-4.575,-4.5769,-4.5786,-4.5866,-4.588,-4.701,-5.0267,-4.9478,-4.9773,-5.3036,-5.2095,-5.1226,-5.1333,-5.1947,-5.245,-5.2671,-5.3865,-5.4687,-5.4922,-5.5547,-5.5879,-5.5879,-5.5879,-5.5586,-5.4941,-5.4706,-5.3943,-5.2709,-5.2464,-5.1993,-5.1313,-5.1238,-5.1146,-5.1024,-5.1002,-5.0978,-5.0941,-5.0906,-5.0898,-5.0879,-5.0666,-5.0569,-5.0693,-5.1776,-5.1885,-5.1447,0.0,0.0,0.0,0.0,0.0,0.0,0.0,0.0,0.0,0.0,0.0,0.0,0.0,0.0,0.0,0.0,0.0,0.0,0.0,-3.6982,-3.6662,-3.6227,-3.6068,-3.5894,-3.5688,-3.5572,-3.5175,-3.4533,-3.4518,-3.4174,-3.3529,-3.3499,-3.3155,-3.2542,-3.2675,-3.2925,-3.3259,-3.3743,-3.466,-3.5856,-3.645,-3.6898,-3.7178,-3.7468,-3.764,-3.8091,-4.0395,0.0,0.0,-4.1969,-4.2244,-4.262,-4.3087,-4.3368,-4.3621,-4.4084,-4.436,-4.4519,-4.4519,-4.4701,-4.4907,-4.4919,-4.5061,-4.5205,-4.522,-4.5253,-4.5342,-4.5485,-4.5504,-4.554,-4.5588,-4.5665,-4.5723,-4.5781,-4.5805,-4.673,-4.9366,-4.9037,-4.9491,-5.2136,-5.165,-5.1134,-5.1191,-5.1356,-5.1781,-5.264,-5.2748,-5.3143,-5.3983,-5.4062,-5.4082,-5.4082,-5.4082,-5.4062,-5.4043,-5.3203,-5.2754,-5.2694,-5.1831,-5.1411,-5.139,-5.1257,-5.1167,-5.1093,-5.103,-5.0995,-5.0986,-5.0941,-5.0898,-5.0821,-5.0035,-4.9745,-4.9649,-4.8856,-4.9068,-4.9525,0.0,0.0,0.0,0.0,0.0,0.0,0.0,0.0,0.0,0.0,0.0,0.0,0.0,0.0,0.0,0.0,0.0,0.0,0.0,-3.787,-3.7549,-3.721,-3.6723,-3.6383,-3.6226,-3.5407,-3.484,-3.4645,-3.3651,-3.3066,-3.2841,-3.2392,-3.2049,-3.1839,-3.2014,-3.2258,-3.2555,-3.2903,-3.352,-3.4319,-3.4804,-3.5437,-3.6141,-3.6488,-3.6959,-3.7559,0.0,0.0,0.0,-4.056,-4.1099,-4.15,-4.23,-4.2734,-4.3051,-4.3474,-4.3758,-4.3946,-4.4117,-4.4269,-4.4412,-4.453,-4.47,-4.4821,-4.4912,-4.5053,-4.5184,-4.5227,-4.5301,-4.5381,-4.5447,-4.5566,-4.5635,-4.5657,-4.5746,-4.6699,-4.9266,-4.8941,-4.9396,-5.2022,-5.1559,-5.105,-5.1138,-5.1248,-5.1466,-5.1818,-5.2379,-5.2822,-5.3123,-5.369,-5.4003,-5.4004,-5.4004,-5.3711,-5.3144,-5.2851,-5.2402,-5.1836,-5.1538,-5.1391,-5.1392,-5.1304,-5.1226,-5.1167,-5.1105,-5.1037,-5.1002,-5.0978,-5.0604,-5.0016,-4.9745,-4.8953,-4.7948,-4.7639,-4.7364,-4.7115,0.0,0.0,0.0,0.0,0.0,0.0,0.0,0.0,0.0,0.0,0.0,0.0,0.0,0.0,0.0,0.0,0.0,0.0,0.0,0.0,-3.8201,-3.786,-3.7048,-3.6503,-3.6306,-3.5156,-3.4486,-3.4228,-3.3289,-3.2701,-3.2459,-3.2021,-3.1824,-3.184,-3.1968,-3.2163,-3.2453,-3.2749,-3.3219,-3.3745,-3.4201,-3.4775,-3.5375,-3.5691,-3.6071,0.0,0.0,0.0,0.0,-3.9002,-3.9856,-4.0438,-4.1273,-4.1984,-4.2596,-4.2977,-4.3232,-4.3442,-4.3647,-4.3825,-4.3999,-4.4114,-4.4298,-4.4463,-4.4568,-4.4694,-4.4833,-4.4931,-4.503,-4.5135,-4.527,-4.5361,-4.5428,-4.551,-4.5616,-4.6483,-4.8784,-4.867,-4.922,-5.154,-5.1304,-5.0993,-5.1056,-5.1147,-5.1224,-5.1323,-5.1884,-5.2239,-5.2238,-5.277,-5.3065,-5.3066,-5.3066,-5.2793,-5.2246,-5.2246,-5.1953,-5.1406,-5.1404,-5.1396,-5.1403,-5.1355,-5.1297,-5.123,-5.1167,-5.1092,-5.103,-5.1015,-5.0465,-4.9591,-4.9269,-4.8295,-4.704,-4.6712,-4.6252,-4.5882,0.0,0.0,0.0,0.0,0.0,0.0,0.0,0.0,0.0,0.0,0.0,0.0,0.0,0.0,0.0,0.0,0.0,0.0,0.0,0.0,0.0,-3.8185,-3.7055,-3.6316,-3.5952,-3.4929,-3.4075,-3.3426,-3.3396,-3.3041,-3.2425,-3.2425,-3.241,-3.2437,-3.2453,-3.2586,-3.2868,-3.3266,-3.3713,-3.4176,-3.4691,-3.4923,-3.4923,-3.5065,0.0,0.0,0.0,0.0,-3.5578,-3.7418,-3.8638,-3.9506,-4.0078,-4.1135,-4.2218,-4.2537,-4.2808,-4.2995,-4.3142,-4.3426,-4.3679,-4.3679,-4.3873,-4.4091,-4.4147,-4.4217,-4.4365,-4.4627,-4.4667,-4.4757,-4.5045,-4.5079,-4.5159,-4.5371,-4.5457,-4.6127,-4.7929,-4.8232,-4.8938,-5.0679,-5.0893,-5.0914,-5.0998,-5.0995,-5.1049,-5.1171,0.0,-5.1381,-5.1392,-5.1397,-5.1404,-5.1405,-5.1406,-5.1406,-5.1406,-5.1406,-5.1406,-5.1406,-5.1405,-5.1403,-5.1398,-5.1405,-5.1377,-5.1294,-5.1234,-5.1172,-5.1099,-5.0977,-5.0429,-4.9552,-4.8596,-4.7695,-4.6819,-4.5989,-4.575,-4.5788,0.0,0.0,0.0,0.0,0.0,0.0,0.0,0.0,0.0,0.0,0.0,0.0,0.0,0.0,0.0,0.0,0.0,0.0,0.0,0.0,0.0,0.0,0.0,0.0,0.0,0.0,0.0,0.0,0.0,-3.2866,-3.2695,-3.2695,-3.2734,-3.2868,-3.3066,-3.3303,-3.3578,-3.3969,-3.4333,-3.4642,0.0,-3.5165,-3.5222,0.0,0.0,0.0,0.0,0.0,-3.5488,-3.6715,-3.8229,-3.9593,-3.9807,-4.0672,-4.164,-4.1831,-4.2272,-4.271,-4.2788,-4.3087,-4.3339,-4.339,-4.3562,-4.3744,-4.3809,-4.3999,-4.4181,-4.4312,-4.4449,-4.4619,-4.4833,-4.4967,-4.5065,-4.5227,-4.5301,-4.5956,-4.7662,-4.8058,-4.8804,-5.0536,-5.0846,-5.0913,-5.0914,-5.0978,-5.1009,-5.1043,-5.1181,-5.1291,-5.1381,-5.1398,-5.1394,-5.1404,-5.1405,-5.1406,-5.1406,-5.1406,-5.1406,-5.1406,-5.1406,-5.1406,-5.1403,-5.1397,-5.1384,-5.1379,-5.1301,-5.1233,-5.1114,-5.0403,-4.9531,-4.8557,-4.7632,-4.6758,-4.6007,-4.5775,-4.5703,-4.5723,0.0,0.0,0.0,0.0,0.0,0.0,0.0,0.0,0.0,0.0,0.0,0.0,0.0,0.0,0.0,0.0,0.0,0.0,0.0,0.0,0.0,0.0,0.0,0.0,0.0,0.0,0.0,0.0,0.0,0.0,0.0,-3.3691,-3.3716,-3.3802,-3.3953,-3.4153,-3.4439,-3.4776,0.0,0.0,0.0,0.0,0.0,0.0,0.0,0.0,0.0,0.0,-3.6047,-3.6962,-3.8231,-3.9497,-3.9924,-4.0562,-4.1226,-4.1453,-4.1874,-4.2333,-4.2534,-4.2806,-4.3087,-4.3178,-4.3322,-4.3443,-4.3511,-4.3646,-4.3791,-4.3949,-4.4109,-4.4325,-4.46,-4.4745,-4.4883,-4.5091,-4.5132,-4.5769,-4.7513,-4.789,-4.8624,-5.0403,-5.073,-5.0819,-5.0841,-5.0925,-5.0971,-5.0995,-5.1122,-5.1233,-5.1317,-5.1372,-5.1398,-5.1396,-5.1402,-5.1405,-5.1406,-5.1406,-5.1406,-5.1406,-5.1406,-5.1406,-5.1406,-5.1403,-5.1397,-5.1405,0.0,-5.1319,-5.1176,-5.0163,-4.9204,-4.8245,-4.7289,-4.6399,-4.5648,-4.5648,-4.5682,-4.5695,0.0,0.0,0.0,0.0,0.0,0.0,0.0,0.0,0.0,0.0,0.0,0.0,0.0,0.0,0.0,0.0,0.0,0.0,0.0,0.0,0.0,0.0,0.0,0.0,0.0,0.0,0.0,0.0,0.0,0.0,0.0,0.0,0.0,0.0,0.0,0.0,0.0,0.0,0.0,0.0,0.0,0.0,0.0,0.0,0.0,0.0,0.0,-3.6458,-3.718,-3.7845,-3.8553,-3.9319,-4.0053,-4.0546,-4.0918,-4.1232,-4.1613,-4.1959,-4.231,-4.2613,-4.2919,-4.303,-4.3142,-4.3196,-4.3286,-4.3303,-4.3391,-4.3664,-4.3814,-4.4039,-4.443,-4.4551,-4.4699,-4.4962,-4.4998,-4.5603,-4.7403,-4.7743,-4.8444,-5.0246,-5.0595,-5.0692,-5.0775,-5.0841,-5.0906,-5.099,-5.1101,-5.118,-5.12,-5.1317,-5.1377,-5.1394,-5.1398,-5.1405,-5.1406,-5.1406,-5.1406,-5.1406,-5.1406,-5.1406,-5.1406,-5.1406,-5.1404,-5.1398,-5.1396,0.0,-5.1195,-5.0017,-4.9077,-4.8287,-4.7165,-4.6268,-4.5594,-4.5594,-4.564,-4.5693,0.0,0.0,0.0,0.0,0.0,0.0,0.0,0.0,0.0,0.0,-4.5104,0.0,0.0,0.0,0.0,0.0,0.0,0.0,0.0,0.0,0.0,0.0,0.0,0.0,0.0,0.0,0.0,0.0,0.0,0.0,0.0,0.0,0.0,0.0,0.0,0.0,0.0,0.0,0.0,0.0,0.0,0.0,0.0,0.0,0.0,0.0,0.0,-3.7786,-3.8988,0.0,-3.8911,-3.9071,-3.9214,-3.9941,-4.0769,-4.0942,-4.1431,-4.1977,-4.2228,-4.257,-4.2841,-4.2919,-4.303,-4.3123,-4.3196,-4.3304,-4.3464,-4.3719,-4.3897,-4.4082,-4.4444,-4.4592,-4.4719,-4.4883,-4.4907,-4.5507,-4.7201,-4.7571,-4.8276,-5.0045,-5.0427,-5.0565,-5.0625,-5.0747,-5.0855,-5.0905,-5.0998,-5.1082,-5.118,-5.1224,-5.1294,-5.1392,-5.1398,-5.1405,-5.1405,-5.1406,-5.1406,-5.1406,-5.1406,-5.1406,-5.1406,-5.1406,-5.1406,-5.1404,-5.1393,0.0,-5.1098,-4.94,-4.8542,-4.8164,-4.6535,-4.5783,-4.5594,-4.5594,-4.5614,-4.5622,0.0,0.0,0.0,0.0,0.0,0.0,0.0,0.0,0.0,-4.577,-4.5475,-4.5144,0.0,0.0,0.0,0.0,0.0,0.0,0.0,0.0,0.0,0.0,0.0,0.0,0.0,0.0,-3.9333,-3.8405,0.0,-3.7717,-3.7389,-3.7025,-3.6892,-3.697,0.0,0.0,0.0,0.0,0.0,0.0,0.0,0.0,0.0,0.0,0.0,0.0,0.0,-3.8677,-3.951,-3.9649,-3.9638,-3.9571,-3.9571,-4.0016,-4.0551,-4.0817,-4.1203,-4.1657,-4.2145,-4.245,-4.2631,-4.2862,-4.2994,-4.3104,-4.3142,-4.3251,-4.341,-4.3651,-4.3832,-4.407,-4.4426,-4.4578,-4.4712,-4.487,-4.4895,-4.5483,-4.715,-4.746,-4.8131,-4.9886,-5.0236,-5.0374,-5.0493,-5.0654,-5.0775,-5.0846,-5.0909,-5.0988,-5.1094,-5.1162,-5.1253,-5.1403,-5.1405,-5.1398,-5.1405,-5.1405,-5.1406,-5.1406,-5.1406,-5.1406,-5.1406,-5.1406,-5.1406,-5.1406,-5.1397,0.0,-5.1106,-4.9308,-4.8481,-4.8227,-4.6407,-4.569,-4.5648,-4.5603,-4.5594,-4.5594,0.0,0.0,0.0,0.0,0.0,0.0,0.0,-4.6155,-4.6076,-4.5929,-4.5757,-4.5505,-4.5156,-4.4912,-4.4706,0.0,0.0,0.0,0.0,0.0,0.0,0.0,0.0,0.0,0.0,0.0,0.0,-4.027,-3.9751,0.0,0.0,0.0,0.0,0.0,-3.8006,-3.8074,-3.8174,0.0,0.0,0.0,0.0,-3.8129,0.0,0.0,0.0,0.0,0.0,-3.9339,-3.9896,-4.0273,-4.0288,-4.0188,-4.0188,-4.0238,-4.0379,-4.0776,-4.1041,-4.1368,-4.2103,-4.2351,-4.2474,-4.2806,-4.2994,-4.3104,-4.3142,-4.3268,-4.3425,-4.3662,-4.3878,-4.4116,-4.4468,-4.4592,-4.4712,-4.487,-4.4895,-4.5483,-4.715,-4.7397,-4.8048,-4.977,-5.0076,-5.02,-5.0329,-5.0535,-5.0682,-5.0775,-5.085,-5.0937,-5.0997,-5.1125,-5.1253,-5.1358,-5.1381,-5.1403,-5.1401,-5.1404,-5.1405,-5.1406,-5.1406,-5.1406,-5.1406,-5.1406,-5.1406,-5.1406,-5.14,0.0,0.0,-4.9375,-4.8568,-4.8348,-4.6462,-4.5727,-4.569,-4.5648,-4.5603,-4.5594,0.0,0.0,0.0,0.0,0.0,0.0,0.0,-4.618,-4.6142,-4.6005,-4.5865,-4.5723,-4.5571,-4.527,-4.5022,0.0,0.0,0.0,0.0,0.0,0.0,0.0,0.0,0.0,0.0,0.0,0.0,-4.2044,-4.2051,0.0,0.0,0.0,0.0,0.0,0.0,-3.9012,-3.908,-3.9152,0.0,0.0,0.0,0.0,0.0,0.0,0.0,0.0,0.0,-3.9899,-4.0919,-4.0728,-4.0558,-4.0444,-4.0444,-4.0387,-4.0379,-4.0776,-4.1041,-4.1368,-4.2103,-4.2351,-4.2474,-4.2806,-4.2994,-4.3123,-4.325,-4.3425,-4.3662,-4.3983,-4.4218,-4.4426,-4.4646,-4.4751,-4.4815,-4.4883,-4.4895,-4.5483,-4.715,-4.7397,-4.8016,-4.9703,-4.9959,-5.0063,-5.0219,-5.0404,-5.0575,-5.0692,-5.0833,-5.0937,-5.0997,-5.1125,-5.1206,-5.1222,-5.1333,-5.1406,-5.1398,-5.1399,-5.1405,-5.1405,-5.1406,-5.1406,-5.1406,-5.1406,-5.1406,-5.1406,-5.1405,0.0,0.0,-4.9438,-4.8654,-4.8419,-4.659,-4.5798,-4.5692,-4.569,-4.5648,-4.5594,0.0,0.0,0.0,0.0,0.0,0.0,0.0,-4.6191,-4.6173,-4.6066,-4.5973,-4.5872,-4.5747,-4.558,-4.5352,0.0,0.0,0.0,0.0,0.0,0.0,0.0,0.0,0.0,0.0,0.0,-4.3833,-4.3558,-4.3146,0.0,0.0,0.0,0.0,0.0,0.0,-3.9576,-3.9564,-3.9622,0.0,0.0,0.0,0.0,0.0,0.0,0.0,0.0,0.0,0.0,-4.1375,-4.1088,-4.0894,-4.0728,-4.0728,-4.0704,-4.0721,-4.0935,-4.1175,-4.1463,-4.2124,-4.2351,-4.2512,-4.2918,-4.3105,-4.3214,-4.3443,-4.3681,-4.3923,-4.4218,-4.4407,-4.4578,-4.4719,-4.477,-4.4821,-4.4883,-4.4895,-4.5483,-4.715,-4.7397,-4.8022,-4.9703,-4.9906,-4.9986,-5.0133,-5.0321,-5.0557,-5.0808,-5.0874,-5.0914,-5.0944,-5.1037,-5.1125,-5.1201,-5.1253,-5.1327,-5.1403,-5.1403,-5.1395,-5.1402,-5.1405,-5.1406,-5.1406,-5.1406,-5.1406,-5.1406,-5.1405,0.0,0.0,-4.9486,-4.8727,-4.8482,-4.663,-4.5835,-4.5769,-4.5714,-4.5693,-4.5648,0.0,0.0,0.0,0.0,0.0,-4.6114,-4.6186,-4.6203,-4.6189,-4.615,-4.6072,-4.5988,-4.5879,-4.5787,-4.5665,-4.539,0.0,0.0,0.0,0.0,0.0,0.0,0.0,0.0,0.0,0.0,-4.457,-4.4604,-4.4121,-4.3786,0.0,0.0,-4.1846,-4.159,0.0,0.0,0.0,0.0,0.0,0.0,0.0,0.0,0.0,0.0,0.0,0.0,0.0,0.0,0.0,0.0,0.0,-4.1105,-4.1105,-4.1152,0.0,-4.1192,-4.1272,-4.1547,-4.2166,-4.2391,-4.2552,-4.2993,-4.3196,-4.3357,-4.358,-4.3841,-4.4124,-4.4393,-4.4565,-4.468,-4.4815,-4.4821,-4.4852,-4.4883,-4.4895,-4.5483,-4.715,-4.7397,-4.8022,-4.9703,-4.9925,-4.9973,-5.012,-5.0377,-5.0625,-5.0882,-5.0941,-5.0948,-5.0921,-5.0974,-5.1043,-5.115,-5.1176,-5.1245,-5.1343,-5.1352,-5.1375,-5.139,-5.1399,-5.1403,-5.1405,-5.1406,-5.1406,-5.1406,-5.1406,0.0,0.0,-4.9528,-4.8767,-4.8549,-4.6683,-4.5916,-4.5827,-4.5739,-4.5714,-4.5693,0.0,0.0,0.0,0.0,0.0,0.0,0.0,-4.6194,-4.6191,-4.6209,-4.6147,-4.6063,-4.6007,-4.5937,-4.586,-4.5807,0.0,0.0,0.0,0.0,0.0,0.0,0.0,0.0,0.0,0.0,-4.5103,-4.5084,-4.522,-4.4901,-4.4183,-4.4245,-4.3835,-4.3044,0.0,0.0,0.0,0.0,0.0,0.0,0.0,0.0,0.0,0.0,0.0,0.0,0.0,0.0,0.0,0.0,0.0,0.0,0.0,-4.1719,0.0,0.0,-4.1413,-4.1552,-4.221,-4.2492,-4.2668,-4.303,-4.3305,-4.3531,-4.3681,-4.3968,-4.4269,-4.4532,-4.4693,-4.4827,-4.4883,-4.4895,-4.4895,-4.4895,-4.4895,-4.5483,-4.715,-4.7397,-4.8022,-4.9703,-4.9965,-5.0038,-5.0175,-5.0546,-5.0816,-5.089,-5.1012,0.0,-5.1005,-5.1005,-5.1007,-5.0997,-5.1125,-5.1205,-5.1191,-5.1261,-5.1325,-5.1399,-5.1402,-5.1397,-5.1405,-5.1405,-5.1406,-5.1406,0.0,0.0,0.0,-4.9522,-4.8798,-4.8622,-4.6812,-4.6012,-4.588,-4.5808,-4.5765,-4.5701,0.0,0.0,0.0,0.0,0.0,0.0,0.0,-4.6195,-4.6207,-4.6209,-4.6186,-4.6134,-4.6083,-4.6011,-4.5937,-4.5861,0.0,0.0,0.0,0.0,0.0,0.0,0.0,0.0,0.0,0.0,-4.5321,-4.538,-4.5456,-4.5385,-4.5152,-4.4658,-4.4305,-4.4023,-4.3253,-4.2892,0.0,0.0,0.0,0.0,0.0,0.0,0.0,0.0,0.0,0.0,0.0,0.0,0.0,0.0,0.0,0.0,0.0,0.0,0.0,0.0,-4.2148,-4.2151,-4.2516,-4.271,-4.29,-4.3286,-4.3462,-4.3664,-4.3965,-4.4225,-4.4458,-4.468,-4.4815,-4.487,-4.4914,-4.4895,-4.4895,-4.4895,-4.5444,-4.6239,-4.7321,-4.806,-4.8883,-4.9987,-5.0255,-5.0388,-5.0538,-5.0708,-5.0866,-5.1012,-5.1087,-5.106,-5.1005,-5.1005,-5.0993,-5.1,-5.1043,-5.1101,-5.1134,-5.1205,-5.1273,-5.133,-5.1374,-5.14,-5.1396,-5.1403,-5.1405,0.0,0.0,0.0,0.0,-4.9331,-4.8497,-4.7791,-4.656,-4.6078,-4.6011,-4.5906,-4.5824,-4.5762,0.0,0.0,0.0,0.0,0.0,0.0,0.0,-4.6189,-4.6196,-4.6191,-4.6191,-4.6173,-4.6115,-4.6061,-4.6014,-4.5929,0.0,0.0,0.0,0.0,0.0,0.0,0.0,0.0,0.0,-4.5494,-4.553,-4.5584,-4.5669,-4.5703,-4.5703,-4.5293,-4.5084,-4.5039,-4.4307,-4.3938,0.0,0.0,0.0,0.0,0.0,0.0,-3.9927,0.0,0.0,0.0,0.0,0.0,0.0,0.0,0.0,0.0,0.0,0.0,0.0,0.0,-4.2767,-4.2768,-4.2825,-4.2939,-4.3142,-4.3462,-4.3664,-4.3873,-4.4196,-4.4416,-4.4613,-4.4757,-4.4846,-4.4907,-4.4931,-4.4931,-4.4962,-4.4967,-4.5767,-4.667,-4.7457,-4.8414,-4.9358,-5.0214,-5.0472,-5.05,-5.0306,-5.0368,-5.0347,-5.0177,-5.0157,-5.0125,-5.006,-5.0065,-5.0051,-5.0018,-5.0659,-5.1023,-5.1069,-5.113,-5.119,-5.1263,-5.133,-5.1372,-5.14,-5.1398,-5.1228,0.0,0.0,0.0,0.0,-4.8767,-4.8077,-4.7435,-4.6501,-4.6111,-4.6095,-4.5978,-4.5906,-4.5817,0.0,0.0,0.0,0.0,0.0,0.0,0.0,0.0,0.0,0.0,-4.6203,-4.6184,-4.6107,-4.6093,-4.6061,0.0,0.0,0.0,0.0,0.0,0.0,0.0,0.0,0.0,0.0,-4.568,-4.5704,-4.5712,-4.5841,-4.591,-4.5916,-4.6042,-4.6074,-4.5978,-4.5301,-4.4923,0.0,0.0,0.0,0.0,0.0,0.0,0.0,0.0,0.0,0.0,0.0,0.0,0.0,0.0,0.0,0.0,0.0,0.0,0.0,0.0,0.0,0.0,0.0,-4.325,-4.3373,-4.3579,-4.3873,-4.4185,-4.4364,-4.4578,0.0,-4.4815,-4.487,-4.4931,-4.4991,-4.5033,-4.5064,-4.519,-4.5981,-4.6884,-4.7694,-4.8627,-4.9531,-5.0421,-5.0577,-5.0359,-4.9699,-4.9679,-4.94,-4.8671,-4.8602,-4.8577,-4.8508,-4.8496,-4.8464,-4.841,-4.9979,-5.0831,-5.0831,-5.0881,-5.0951,-5.1014,-5.1087,-5.1154,-5.1223,-5.1213,-5.0814,0.0,0.0,0.0,0.0,-4.7929,-4.7553,-4.7425,-4.6548,-4.6176,-4.6107,-4.6037,-4.5966,-4.5886,0.0,0.0,0.0,0.0,0.0,0.0,0.0,0.0,0.0,0.0,-4.6209,-4.6181,-4.6178,-4.6135,-4.6066,0.0,0.0,0.0,0.0,0.0,0.0,0.0,0.0,0.0,0.0,-4.5814,-4.5854,-4.5841,-4.5983,-4.6039,-4.606,-4.6148,-4.617,-4.6159,-4.5972,-4.5498,0.0,0.0,0.0,0.0,0.0,0.0,0.0,0.0,0.0,0.0,-4.2723,-4.295,0.0,0.0,0.0,0.0,0.0,0.0,0.0,0.0,-4.358,-4.3646,-4.3809,0.0,-4.3679,-4.398,-4.4199,-4.4393,0.0,-4.477,-4.4883,-4.501,-4.5091,-4.5136,-4.5148,-4.5192,-4.5434,-4.6067,-4.6961,-4.7875,-4.8741,-4.97,-5.0432,-5.0769,-5.0243,-4.985,-4.9834,-4.9244,-4.8807,-4.8607,-4.8598,-4.8577,-4.8508,-4.8496,-4.8464,-4.841,-4.8808,-4.9006,-4.9006,-4.9076,-4.911,-4.9146,-4.925,-4.9348,-4.9413,-4.9401,-4.9342,0.0,0.0,0.0,-4.7891,-4.7675,-4.7203,-4.6572,-4.6363,-4.6236,-4.6167,-4.6106,-4.5997,-4.5886,0.0,0.0,0.0,0.0,0.0,0.0,0.0,0.0,0.0,0.0,0.0,0.0,0.0,0.0,0.0,0.0,0.0,0.0,0.0,0.0,0.0,0.0,0.0,0.0,-4.5893,-4.5969,-4.5988,-4.5993,-4.6091,-4.6147,-4.6156,-4.6201,-4.6255,-4.6241,-4.6255,-4.5941,0.0,0.0,0.0,0.0,-4.3447,0.0,0.0,0.0,0.0,0.0,-4.3471,-4.3731,0.0,-4.4303,-4.4341,-4.4221,0.0,0.0,0.0,0.0,-4.3949,-4.4026,-4.4273,-4.4151,-4.4042,-4.4331,-4.4527,-4.4719,-4.4895,-4.5007,-4.509,-4.5175,-4.5218,-4.5258,-4.529,-4.5625,-4.6056,-4.6527,-4.771,-4.8903,-4.9856,-5.045,-5.0673,-5.0372,-4.9957,-4.942,-4.878,-4.8316,-4.7903,-4.7529,-4.7461,-4.7437,-4.739,-4.7369,-4.7327,-4.7256,-4.7261,-4.762,-4.8392,-4.8433,-4.8468,-4.8509,-4.8605,-4.869,-4.8759,-4.8794,-4.8608,0.0,0.0,0.0,-4.6992,-4.6992,-4.6737,-4.6304,-4.6296,-4.6278,-4.6228,-4.6134,-4.6041,-4.598,0.0,0.0,0.0,0.0,0.0,0.0,0.0,0.0,0.0,0.0,0.0,0.0,0.0,0.0,0.0,0.0,0.0,0.0,0.0,0.0,0.0,0.0,0.0,-4.5953,-4.6012,-4.6091,-4.6114,-4.6112,-4.6177,-4.6214,-4.6216,-4.627,-4.6296,-4.6295,-4.6309,-4.6277,0.0,0.0,-4.5068,-4.4914,-4.4065,0.0,0.0,0.0,0.0,0.0,0.0,0.0,0.0,-4.4876,-4.472,-4.4525,-4.4484,0.0,0.0,0.0,0.0,0.0,-4.4627,-4.4562,-4.4484,-4.4635,-4.4839,-4.5042,-4.5151,-4.5241,-4.5342,-4.5362,-4.5352,-4.5391,-4.5448,-4.611,-4.6733,-4.6906,-4.8462,-4.9938,-5.0775,-5.0808,-5.0473,-4.9797,-4.9536,-4.8863,-4.7451,-4.7266,-4.6924,-4.6244,-4.6149,-4.6104,-4.61,-4.6049,-4.5966,-4.5917,-4.5919,-4.6577,-4.7993,-4.8012,-4.8046,-4.81,-4.8159,-4.8233,-4.8297,-4.837,-4.7982,-4.7313,0.0,0.0,-4.6307,-4.6308,-4.6308,-4.6307,-4.6304,-4.6295,-4.6277,-4.6153,-4.6103,-4.6065,0.0,0.0,0.0,0.0,0.0,0.0,0.0,0.0,0.0,0.0,0.0,0.0,0.0,0.0,0.0,0.0,0.0,0.0,0.0,0.0,0.0,0.0,-4.6016,-4.6012,-4.6084,-4.6144,-4.6184,-4.618,-4.6249,-4.6281,-4.6284,-4.6305,-4.6306,-4.6306,-4.6305,-4.6297,-4.6275,-4.6087,-4.5969,-4.5881,-4.5731,0.0,0.0,0.0,0.0,0.0,0.0,0.0,0.0,-4.5159,-4.5102,-4.5061,-4.4883,0.0,0.0,0.0,0.0,0.0,-4.4979,-4.5079,-4.5118,-4.503,-4.5105,-4.5211,-4.5409,-4.5445,-4.55,-4.5624,-4.5645,-4.5642,-4.5648,-4.6367,-4.7174,-4.7935,-4.9571,-5.0798,-5.0898,-5.0351,-4.9917,-4.9795,-4.8547,-4.7595,-4.7403,-4.6787,-4.6341,-4.6209,-4.6149,-4.6104,-4.61,-4.6049,-4.5991,-4.5991,-4.5932,-4.6009,-4.6274,-4.6227,-4.6227,-4.6306,-4.6312,-4.6377,-4.6499,-4.6516,-4.6476,-4.6405,0.0,-4.6415,-4.6307,-4.6307,-4.6308,-4.6307,-4.6306,-4.63,-4.6298,-4.6206,-4.6144,-4.599,0.0,0.0,0.0,0.0,0.0,0.0,0.0,0.0,0.0,0.0,0.0,0.0,0.0,0.0,0.0,0.0,0.0,0.0,0.0,0.0,0.0,0.0,-4.6099,-4.6121,-4.6157,-4.6219,-4.6243,-4.6256,-4.6285,-4.6307,-4.6308,-4.6308,-4.6308,-4.6308,-4.6307,-4.6305,-4.6297,-4.6262,-4.6219,-4.6144,0.0,0.0,0.0,0.0,0.0,0.0,0.0,0.0,0.0,0.0,-4.5381,-4.5351,-4.525,0.0,0.0,0.0,0.0,0.0,-4.5292,-4.54,-4.5464,-4.5488,-4.5479,-4.5507,-4.5634,-4.573,-4.578,-4.5854,-4.5854,-4.5854,-4.5801,-4.6871,-4.8193,-4.9551,-5.0451,-5.0847,-5.0364,-5.0009,-4.9452,-4.8557,-4.777,-4.7165,-4.6787,-4.6415,-4.6193,-4.6204,-4.6166,-4.6145,-4.6099,-4.6066,-4.6049,-4.5997,-4.5968,-4.5938,-4.59,-4.586,-4.5854,-4.5854,-4.5887,-4.5937,-4.5994,-4.6066,-4.6127,-4.6144,0.0,-4.6264,-4.6297,-4.6305,-4.6308,-4.6308,-4.6307,-4.6305,-4.6296,-4.6216,-4.5861,-4.534,0.0,0.0,0.0,0.0,0.0,0.0,0.0,0.0,0.0,0.0,0.0,0.0,0.0,0.0,0.0,0.0,0.0,0.0,0.0,0.0,-4.6183,-4.6125,-4.6199,-4.6212,-4.621,-4.627,-4.6301,-4.6307,-4.6308,-4.6308,-4.6308,-4.6308,-4.6308,-4.6308,-4.6308,-4.6307,-4.6306,-4.6296,-4.6262,-4.6228,0.0,0.0,0.0,0.0,0.0,0.0,0.0,0.0,0.0,0.0,0.0,0.0,0.0,0.0,0.0,-4.5466,-4.5438,-4.5419,-4.5516,-4.5602,-4.57,-4.5815,-4.5796,-4.5761,-4.5854,-4.5949,-4.6019,-4.6025,-4.6025,-4.6019,-4.5966,-4.7158,-4.8658,-5.0196,-5.0442,-5.0247,-4.9609,-4.9368,-4.8757,-4.7451,-4.7155,-4.6828,-4.6244,-4.6193,-4.6201,-4.6196,-4.6201,-4.6181,-4.6126,-4.6114,-4.6081,-4.6039,-4.5809,-4.5677,-4.5622,-4.5396,-4.5454,-4.5807,-4.5854,-4.5887,-4.5899,-4.6019,-4.6066,-4.6099,-4.6147,-4.6201,-4.628,-4.628,-4.6306,-4.6307,-4.6308,-4.617,-4.5993,-4.5931,-4.5326,-4.451,0.0,0.0,0.0,0.0,0.0,0.0,0.0,0.0,0.0,0.0,0.0,0.0,0.0,0.0,0.0,0.0,0.0,0.0,0.0,0.0,-4.6199,-4.6199,-4.6267,-4.6288,-4.63,-4.6301,-4.6306,-4.6307,-4.6308,-4.6308,-4.6308,-4.6308,-4.6308,-4.6308,-4.6308,-4.6308,-4.6307,-4.6306,-4.63,-4.6298,-4.6228,0.0,0.0,0.0,0.0,0.0,0.0,0.0,0.0,0.0,0.0,0.0,0.0,0.0,-4.5665,-4.5684,-4.5677,-4.5661,-4.5676,-4.5793,-4.59,-4.5974,-4.5943,-4.5923,-4.6046,-4.609,-4.6081,-4.6084,-4.6089,-4.608,-4.6095,-4.6785,-4.7694,-4.8612,-4.8827,-4.8813,-4.87,-4.8035,-4.7495,-4.732,-4.6701,-4.6263,-4.6209,-4.6204,-4.6196,-4.6199,-4.6201,-4.6209,-4.6185,-4.6123,-4.6095,-4.6095,-4.5248,-4.4791,-4.4794,-4.3917,-4.4273,-4.5807,-4.5807,-4.5847,-4.5906,-4.5905,-4.5989,-4.611,-4.6119,-4.6157,-4.621,-4.6269,-4.6301,-4.6307,-4.6308,-4.58,-4.5095,-4.5098,-4.4532,-4.3653,0.0,0.0,0.0,0.0,0.0,0.0,0.0,0.0,0.0,0.0,0.0,0.0,0.0,0.0,0.0,0.0,0.0,0.0,0.0,0.0,-4.6261,-4.6256,-4.6281,-4.6302,-4.6301,-4.6305,-4.6307,-4.6308,-4.6308,-4.6308,-4.6308,-4.6308,-4.6308,-4.6308,-4.6308,-4.6308,-4.6308,-4.6307,-4.6305,-4.63,-4.6264,-4.6221,0.0,0.0,0.0,0.0,0.0,0.0,0.0,0.0,-4.5812,-4.5764,-4.5812,-4.5798,-4.5771,-4.5821,-4.5822,-4.5822,-4.5886,-4.5947,-4.603,-4.6105,-4.611,-4.609,-4.6156,-4.6154,-4.6166,-4.6154,-4.6158,-4.6325,-4.6826,-4.7154,-4.7655,-4.8525,-4.8675,-4.8528,-4.7992,-4.765,-4.7241,-4.6687,-4.6372,-4.6208,-4.6208,-4.6192,-4.6199,-4.6199,-4.6192,-4.6201,-4.6209,-4.5667,-4.533,-4.5283,-4.4424,-4.3922,-4.3893,-4.354,-4.3665,-4.4247,-4.4247,-4.4259,-4.4273,-4.4331,-4.438,-4.4416,-4.4467,-4.4518,-4.4593,-4.4669,-4.4671,-4.4684,-4.4687,-4.4472,-4.4197,-4.419,-4.3632,-4.2832,0.0,0.0,0.0,0.0,0.0,0.0,0.0,0.0,0.0,0.0,0.0,0.0,0.0,0.0,0.0,0.0,0.0,0.0,0.0,0.0,-4.6308,-4.6305,-4.6307,-4.6308,-4.6308,-4.6308,-4.6308,-4.6308,-4.6308,-4.6308,-4.6308,-4.6308,-4.6308,-4.6308,-4.6308,-4.6308,-4.6308,-4.6308,-4.6307,-4.6306,-4.6297,-4.6267,0.0,0.0,0.0,0.0,0.0,0.0,0.0,0.0,-4.588,-4.5841,0.0,0.0,-4.5887,-4.5935,-4.5953,-4.5964,-4.6012,-4.6076,-4.6123,-4.6189,-4.6197,-4.6201,-4.6192,-4.6196,-4.6199,-4.6199,-4.6199,-4.6367,-4.6917,-4.7018,-4.7228,-4.7805,-4.7907,-4.7716,-4.717,-4.7092,-4.6881,-4.6277,-4.6199,-4.6199,-4.6199,-4.6199,-4.6199,-4.6199,-4.6199,-4.6075,-4.5807,-4.5219,-4.4748,-4.4437,-4.3563,-4.3063,-4.2987,-4.2718,-4.2553,-4.2511,-4.2512,-4.2789,-4.3305,-4.335,-4.3382,-4.3399,-4.3442,-4.3512,-4.3575,-4.3631,-4.3687,-4.3706,-4.3691,-4.3535,-4.33,-4.3297,-4.2744,-4.1971,0.0,0.0,0.0,0.0,0.0,0.0,0.0,0.0,0.0,0.0,0.0,0.0,0.0,0.0,0.0,0.0,0.0,0.0,0.0,-4.6307,-4.6307,-4.6308,-4.6308,-4.6308,-4.6308,-4.6308,-4.6308,-4.6308,-4.6308,-4.6308,-4.6308,-4.6308,-4.6308,-4.6308,-4.6308,-4.6308,-4.6308,-4.6308,-4.6308,-4.6307,-4.6307,-4.6303,-4.6291,0.0,0.0,0.0,0.0,0.0,0.0,0.0,-4.5892,-4.5892,-4.5892,0.0,0.0,-4.6085,-4.61,-4.6105,-4.6089,-4.6098,-4.613,-4.6189,-4.6199,-4.6209,-4.6201,-4.6203,-4.6199,-4.6199,-4.6199,-4.6199,-4.6199,-4.6199,-4.6199,-4.6199,-4.6199,-4.6199,-4.6199,-4.6199,-4.6199,-4.6199,-4.6199,-4.6199,-4.6199,-4.6199,-4.6199,-4.6199,-4.6199,-4.5809,-4.4952,-4.4876,-4.4483,-4.3603,-4.2684,-4.217,-4.2097,-4.1239,-4.0798,-4.0797,-4.0802,-4.1673,-4.3285,-4.3285,-4.3305,-4.3382,-4.3388,-4.3404,-4.3475,-4.3551,-4.3627,-4.367,-4.3672,-4.3144,-4.2383,-4.2381,-4.1832,-4.1106,0.0,0.0,0.0,0.0,0.0,0.0,0.0,0.0,0.0,0.0,0.0,0.0,0.0,0.0,0.0,0.0,0.0,0.0,0.0,-4.6301,-4.6305,-4.6307,-4.6308,-4.6308,-4.6308,-4.6308,-4.6308,-4.6308,-4.6308,-4.6308,-4.6308,-4.6308,-4.6308,-4.6308,-4.6308,-4.6308,-4.6308,-4.6308,-4.6308,-4.6308,-4.6307,-4.6306,-4.6304,0.0,0.0,0.0,0.0,0.0,0.0,0.0,0.0,0.0,-4.5969,0.0,0.0,-4.6098,-4.6131,-4.6173,-4.616,-4.618,-4.6178,-4.6206,-4.6197,-4.6206,-4.6193,-4.6206,-4.6193,-4.6199,-4.6199,-4.6199,-4.6199,-4.6199,-4.6199,-4.6199,-4.6199,-4.6199,-4.6199,-4.6199,-4.6199,-4.6199,-4.6199,-4.6199,-4.6199,-4.6199,-4.6199,-4.6199,-4.5634,-4.5179,-4.4911,-4.3739,-4.2934,-4.2626,-4.1752,-4.1252,-4.12,-4.092,-4.08,-4.0802,-4.0796,-4.1054,-4.1545,-4.1545,-4.1551,-4.1564,-4.1567,-4.1615,-4.1682,-4.1797,-4.1851,-4.1871,-4.1873,-4.1738,-4.1543,-4.1503,-4.1326,-4.1109,0.0,0.0,0.0,0.0,0.0,0.0,0.0,0.0,0.0,0.0,0.0,0.0,0.0,0.0,0.0,0.0,0.0,0.0,0.0,0.0,-4.6301,-4.6307,-4.6308,0.0,0.0,-4.6308,-4.6308,-4.6308,-4.6308,-4.6308,-4.6308,-4.6308,-4.6308,-4.6308,-4.6308,-4.6308,-4.6308,-4.6308,-4.6308,-4.6308,-4.6308,-4.6308,-4.6308,0.0,0.0,0.0,0.0,0.0,0.0,0.0,0.0,0.0,-4.6047,0.0,-4.6142,-4.6144,-4.617,-4.6206,-4.6197,-4.6191,-4.6202,-4.6228,-4.6233,-4.6237,-4.6237,-4.6214,-4.6198,-4.6203,-4.6193,-4.6206,-4.6199,-4.6199,-4.6199,-4.6199,-4.6199,-4.6199,-4.6199,-4.6199,-4.6199,-4.6199,-4.6199,-4.6199,-4.6199,-4.6199,-4.6063,-4.5712,-4.5199,-4.46,-4.3899,-4.2848,-4.2075,-4.166,-4.111,-4.0801,-4.0756,-4.0751,-4.0758,-4.0758,-4.0758,-4.0777,-4.0797,-4.0797,-4.0797,-4.0797,-4.0831,-4.0883,-4.0948,-4.1056,-4.1104,-4.1105,-4.109,-4.1132,-4.1191,-4.1152,-4.1112,-4.1091,0.0,0.0,0.0,0.0,0.0,0.0,0.0,0.0,0.0,0.0,0.0,0.0,0.0,0.0,0.0,0.0,0.0,0.0,0.0,0.0,0.0,0.0,0.0,0.0,0.0,0.0,0.0,0.0,-4.6308,-4.6308,-4.6308,-4.6308,-4.6308,-4.6308,-4.6308,-4.6308,-4.6308,-4.6307,-4.6306,-4.6306,-4.6306,-4.6306,-4.6307,-4.6308,0.0,0.0,0.0,0.0,0.0,0.0,0.0,0.0,-4.6126,-4.6148,-4.6198,-4.6206,-4.6212,-4.6218,-4.6215,-4.6218,-4.622,-4.6287,-4.6307,-4.6307,-4.6307,-4.6257,-4.6212,-4.6194,-4.6198,-4.6203,-4.6203,-4.6199,-4.6199,-4.6199,-4.6199,-4.6199,-4.6199,-4.6199,-4.6199,-4.6199,-4.6199,-4.6199,-4.6199,-4.6141,-4.5748,-4.4968,-4.4756,-4.3973,-4.2369,-4.2155,-4.1674,-4.0815,-4.0718,-4.0688,-4.0687,-4.0687,-4.0687,-4.0687,-4.0694,-4.0732,-4.079,-4.0797,-4.0797,-4.0803,-4.0865,-4.0922,-4.1,-4.1067,-4.1092,-4.1099,-4.1109,-4.1132,-4.1191,-4.1191,-4.1152,-4.1112,0.0,0.0,0.0,0.0,0.0,0.0,0.0,0.0,0.0,0.0,0.0,0.0,0.0,0.0,0.0,0.0,0.0,0.0,0.0,0.0,0.0,0.0,0.0,0.0,0.0,0.0,0.0,0.0,-4.6308,-4.6308,-4.6308,-4.6308,-4.6308,-4.6308,-4.6308,-4.6307,-4.6307,-4.6305,-4.6303,-4.6303,-4.6303,-4.6303,-4.6303,-4.6305,-4.6307,0.0,0.0,0.0,0.0,0.0,0.0,0.0,-4.6172,-4.6189,-4.6207,-4.6255,-4.6283,-4.6287,-4.6288,-4.6289,-4.6289,-4.6308,-4.6307,-4.6305,-4.6305,-4.6289,-4.6267,-4.6204,-4.6199,-4.6198,-4.6203,-4.6206,-4.6199,-4.6199,-4.6199,-4.6199,-4.6199,-4.6199,-4.6199,-4.6199,-4.6199,-4.6199,-4.6199,-4.5576,-4.5101,-4.4911,-4.3623,0.0,-4.217,-4.1489,-4.0953,-4.0642,-4.0622,-4.06,-4.0534,-4.0595,-4.061,0.0,-4.068,-4.0713,-4.0713,-4.0784,-4.0797,-4.0797,-4.082,-4.0863,-4.0937,-4.0986,-4.1052,-4.1099,-4.1106,-4.1131,-4.1191,-4.1191,-4.1191,-4.1172,0.0,0.0,0.0,0.0,0.0,0.0,0.0,0.0,0.0,0.0,0.0,0.0,0.0,0.0,0.0,0.0,0.0,0.0,0.0,0.0,0.0,0.0,0.0,0.0,0.0,0.0,-4.6308,-4.6308,-4.6308,-4.6308,-4.6308,-4.6308,-4.6308,-4.6307,-4.6306,-4.6305,-4.6305,-4.6301,-4.6297,-4.6297,-4.6297,-4.6297,-4.6299,-4.6301,-4.6303,-4.6305,-4.6305,0.0,0.0,0.0,0.0,0.0,0.0,0.0,-4.6248,-4.6289,-4.6308,-4.6307,-4.6305,-4.6304,-4.6301,-4.6299,-4.6296,-4.6294,-4.6294,-4.6299,-4.6286,-4.6268,-4.6257,-4.6236,-4.6219,-4.6198,-4.62,-4.6193,-4.6203,-4.6199,-4.6199,-4.6199,-4.6199,-4.6199,-4.6199,-4.6043,-4.5615,-4.5166,-4.4556,-4.3716,-4.277,-4.2023,-4.1518,-4.1,-4.0655,-4.0564,-4.0519,-4.0492,-4.0444,-4.0487,-4.0519,-4.0546,-4.0617,-4.0693,-4.0746,-4.0784,-4.0797,-4.0797,-4.0802,-4.0832,-4.0917,-4.0964,-4.1031,-4.1103,-4.1102,-4.111,-4.1152,-4.1191,-4.1191,-4.1191,0.0,0.0,0.0,0.0,0.0,0.0,0.0,0.0,0.0,0.0,0.0,0.0,0.0,0.0,0.0,0.0,0.0,0.0,0.0,0.0,0.0,0.0,0.0,0.0,0.0,0.0,-4.6308,-4.6306,-4.6306,-4.6305,-4.6305,-4.6306,-4.6305,-4.6301,-4.6301,-4.6301,-4.63,-4.6294,-4.6291,-4.6291,-4.6291,-4.6291,-4.6291,-4.6297,-4.6299,-4.6299,-4.6299,-4.6302,-4.6306,-4.6307,0.0,0.0,0.0,0.0,-4.6305,-4.6301,-4.63,-4.6297,-4.6293,-4.6291,-4.6309,-4.6302,-4.63,-4.63,-4.63,-4.6306,-4.6293,-4.6299,-4.6308,-4.6282,-4.623,-4.621,-4.6209,-4.6192,-4.6193,-4.6203,-4.6199,-4.6199,-4.6199,-4.6199,-4.6063,-4.5751,-4.5186,-4.4851,-4.414,-4.2829,0.0,-4.1849,-4.1042,-4.0745,-4.0557,-4.0473,-4.0422,-4.037,-4.0381,-4.037,-4.0422,-4.0473,-4.0554,-4.0653,-4.0784,-4.079,-4.0797,-4.0797,-4.0802,-4.0848,-4.0893,-4.0964,-4.1033,-4.1098,-4.1097,-4.1108,-4.1112,-4.1172,-4.1191,-4.1191,0.0,0.0,0.0,0.0,0.0,0.0,0.0,0.0,0.0,0.0,0.0,0.0,0.0,0.0,0.0,0.0,0.0,0.0,0.0,0.0,0.0,0.0,-4.6295,0.0,0.0,0.0,-4.6303,-4.6302,-4.6299,-4.6293,-4.6306,-4.6299,-4.6302,-4.6301,-4.6296,-4.6294,-4.6294,-4.6306,-4.6302,-4.6302,-4.6302,-4.6302,-4.6302,-4.6303,-4.6303,-4.6303,-4.6303,-4.6309,-4.6295,-4.6296,-4.63,0.0,0.0,0.0,-4.6295,-4.6295,-4.6309,-4.6303,-4.6303,-4.6302,-4.6302,-4.6302,-4.63,-4.63,-4.63,-4.6302,-4.6303,-4.6303,-4.6304,-4.6308,-4.6282,-4.623,-4.6193,-4.6209,-4.6192,-4.6196,-4.6199,-4.6199,-4.6199,-4.6199,-4.5537,-4.5322,-4.5965,-4.4658,-4.3969,-4.4437,-4.299,-4.203,-4.1847,-4.1003,-4.0492,-4.0413,-4.0342,-4.0308,-4.0301,-4.0308,-4.0362,-4.0413,-4.0534,-4.0647,-4.0726,-4.0759,-4.0797,-4.0797,-4.0797,-4.0851,-4.0907,-4.0911,-4.099,-4.1098,-4.1091,-4.1106,-4.1112,-4.1172,-4.1191,-4.1191,0.0,0.0,0.0,0.0,0.0,0.0,0.0,0.0,0.0,0.0,0.0,0.0,0.0,0.0,0.0,-4.63,0.0,0.0,0.0,0.0,0.0,-4.6306,-4.6291,-4.6294,-4.6297,0.0,-4.6295,-4.6291,-4.6259,-4.6245,-4.6233,-4.6238,-4.6269,-4.6305,-4.63,-4.6302,-4.6306,-4.6302,-4.63,-4.63,-4.63,-4.63,-4.63,-4.63,-4.63,-4.63,-4.63,-4.6303,-4.6306,-4.6306,-4.6308,-4.6291,-4.6291,0.0,0.0,0.0,-4.6303,-4.63,-4.63,-4.63,-4.63,-4.63,-4.63,-4.63,-4.63,-4.63,-4.63,-4.63,-4.6293,-4.6302,-4.6308,-4.6287,-4.6256,-4.6261,-4.6216,-4.6192,-4.6196,-4.6203,-4.6024,-4.5537,-4.5556,-4.5397,-4.4793,-4.4483,-4.4257,0.0,-4.3299,-4.2588,-4.2033,-4.1459,-4.0943,-4.0426,-4.0336,-4.031,-4.0301,-4.031,-4.0335,-4.0392,-4.0564,-4.0668,-4.07,-4.0777,-4.079,-4.0797,-4.0797,-4.0827,-4.0846,-4.0873,-4.0968,-4.1048,-4.1085,-4.1103,-4.111,-4.1172,-4.1191,-4.1191,0.0,0.0,0.0,0.0,0.0,0.0,0.0,0.0,0.0,0.0,0.0,0.0,0.0,0.0,0.0,0.0,-4.63,0.0,0.0,0.0,0.0,-4.63,-4.6306,-4.6309,-4.6306,0.0,-4.6278,-4.6245,-4.6201,-4.6177,-4.6157,-4.6158,-4.6176,-4.6242,-4.6275,-4.6286,-4.6296,-4.63,-4.63,-4.63,-4.63,-4.63,-4.6319,-4.6554,-4.6632,-4.6651,-4.6866,-4.6807,-4.6632,-4.6632,-4.6475,-4.63,-4.63,-4.63,0.0,0.0,0.0,-4.63,-4.63,-4.63,-4.63,-4.63,-4.63,-4.63,-4.63,-4.63,-4.63,-4.63,-4.63,-4.6305,-4.6296,-4.6307,-4.6307,-4.63,-4.6239,-4.6114,-4.5903,-4.5862,-4.5556,-4.4676,-4.5144,-4.5124,-4.403,-4.4495,-4.4673,0.0,-4.3649,-4.3041,-4.2326,-4.1673,-4.1046,-4.0389,-4.0328,-4.0301,-4.0301,-4.0301,-4.0335,-4.0406,-4.0591,-4.0687,-4.0694,-4.077,-4.0808,-4.0803,-4.0797,-4.079,-4.0806,-4.0878,-4.0949,-4.102,-4.1078,-4.1101,-4.1108,-4.1171,-4.1191,-4.1191,0.0,0.0,0.0,0.0,0.0,0.0,0.0,0.0,0.0,0.0,0.0,0.0,-4.6203,-4.6262,-4.63,-4.63,-4.63,-4.63,-4.63,-4.63,0.0,-4.63,-4.6302,0.0,-4.6306,-4.6236,-4.6178,-4.6105,-4.6107,-4.6074,-4.6008,-4.6003,-4.6056,-4.6111,-4.6183,-4.6236,-4.6306,-4.6296,-4.63,-4.63,-4.63,-4.63,-4.6397,-4.7217,-4.7528,-4.7625,-4.8408,-4.8174,-4.7528,-4.7528,-4.6983,-4.63,-4.63,-4.63,-4.63,0.0,0.0,0.0,-4.63,-4.63,-4.63,-4.63,-4.63,-4.63,-4.63,-4.63,-4.63,-4.63,-4.63,-4.6302,-4.6302,-4.6295,-4.6306,-4.6307,-4.6237,-4.5902,-4.508,-4.4971,-4.4637,-4.3776,-4.3718,-4.401,-4.4757,-4.4818,-4.5109,0.0,-4.4215,-4.3165,-4.306,-4.1342,-4.0354,-4.0307,-4.0291,-4.0301,-4.0301,-4.0299,-4.0332,-4.0406,-4.0531,-4.0633,-4.0694,-4.0763,-4.0794,-4.0794,-4.0809,-4.079,-4.0806,-4.0873,-4.0932,-4.1016,-4.1072,-4.1098,-4.1108,-4.1171,-4.1191,-4.1191,0.0,0.0,0.0,0.0,0.0,0.0,0.0,0.0,0.0,0.0,0.0,0.0,0.0,-4.6255,-4.6294,-4.63,-4.63,-4.63,-4.63,-4.63,0.0,-4.63,-4.6294,-4.6286,-4.6233,-4.6161,-4.613,-4.6099,-4.6003,-4.595,-4.5939,-4.5949,-4.5955,-4.598,-4.6099,-4.6164,-4.6236,-4.6286,-4.6294,-4.63,-4.63,-4.6632,-4.7178,-4.7489,-4.7918,-4.8408,-4.8701,-4.8603,-4.8291,-4.7762,-4.7391,-4.7042,-4.6475,-4.63,-4.63,-4.63,-4.63,-4.63,-4.63,-4.63,-4.63,-4.63,-4.63,-4.63,-4.63,-4.63,-4.63,-4.63,-4.63,-4.63,-4.63,-4.629,-4.6124,-4.5564,-4.5447,-4.5138,-4.4241,-4.4094,-4.3945,-4.364,-4.4091,-4.4559,-4.4874,-4.4837,-4.489,0.0,0.0,-4.2938,-4.2294,-4.1545,-4.089,-4.0326,-4.0291,-4.0301,-4.0301,-4.0345,-4.0379,-4.0394,-4.0588,-4.0647,-4.0636,-4.075,-4.0806,-4.079,-4.0796,-4.0796,-4.0821,-4.0868,-4.09,-4.096,-4.1068,-4.1098,-4.1108,-4.1171,-4.1191,-4.1191,0.0,0.0,0.0,0.0,0.0,0.0,0.0,0.0,0.0,-4.5845,0.0,0.0,0.0,0.0,-4.6286,-4.63,-4.63,-4.63,-4.63,-4.6298,-4.6296,-4.6296,-4.6282,-4.6245,-4.6167,-4.6119,0.0,0.0,0.0,0.0,-4.5822,-4.5833,-4.5834,-4.5861,-4.5977,-4.6072,-4.6167,-4.6231,-4.6286,-4.6335,-4.661,-4.7081,-4.7664,-4.8211,-4.8777,-4.9267,-4.9579,-4.9481,-4.9111,-4.8271,-4.782,-4.745,-4.6573,-4.63,-4.63,-4.63,-4.63,-4.63,-4.63,-4.63,-4.63,-4.63,-4.63,-4.63,-4.63,-4.63,-4.63,-4.63,-4.63,-4.6202,-4.5929,-4.5856,-4.5667,-4.5087,-4.4746,-4.4252,-4.3381,-4.3234,-4.32,-4.3205,-4.3958,-4.4462,-4.4462,-4.4654,0.0,0.0,0.0,0.0,-4.1802,-4.1375,-4.0901,-4.0318,-4.0301,-4.0301,-4.0301,-4.0346,-4.0381,-4.0394,-4.0539,-4.0607,-4.0629,-4.075,-4.0806,-4.079,-4.08,-4.0794,-4.0803,-4.0863,-4.0896,-4.091,-4.1046,-4.1098,-4.1108,-4.1171,-4.1191,-4.1191,0.0,0.0,0.0,0.0,0.0,0.0,0.0,0.0,0.0,-4.5812,0.0,0.0,0.0,0.0,0.0,-4.6376,-4.6358,-4.6339,-4.6339,-4.631,-4.6303,-4.6284,0.0,0.0,0.0,0.0,0.0,0.0,0.0,0.0,0.0,0.0,-4.5727,-4.58,-4.586,-4.5964,-4.6107,-4.6167,-4.6233,-4.6364,-4.7251,-4.7606,-4.782,-4.946,-5.0124,-5.0241,-5.1102,-5.0867,-5.0007,-4.913,-4.8291,-4.7489,-4.6573,-4.63,-4.63,-4.63,-4.63,-4.63,0.0,0.0,0.0,-4.63,-4.63,-4.63,-4.63,0.0,-4.628,-4.6261,-4.6261,-4.6007,-4.5129,-4.4932,-4.4916,-4.4923,-4.4215,-4.3359,-4.2476,-4.2355,-4.2381,-4.2423,-4.3107,-4.3582,-4.362,-4.4247,0.0,0.0,-4.2333,-4.1726,-4.167,-4.0806,-4.0301,-4.0301,-4.0301,-4.0301,-4.0301,-4.0301,-4.0317,-4.0397,-4.0406,-4.0515,-4.0694,-4.0763,-4.0794,-4.08,-4.0796,-4.0792,-4.0803,-4.0863,-4.0896,-4.091,-4.1046,-4.1098,-4.1108,-4.1171,-4.1191,-4.1191,0.0,0.0,0.0,0.0,0.0,0.0,0.0,0.0,-4.5907,0.0,0.0,0.0,-4.7826,-4.8016,-4.8092,-4.8118,-4.7528,-4.7177,-4.7166,-4.6582,-4.6212,-4.6161,-4.6146,-4.6102,0.0,0.0,0.0,0.0,0.0,0.0,0.0,0.0,0.0,-4.5738,-4.5798,-4.5887,-4.5953,-4.6087,-4.618,-4.6292,-4.7182,-4.7912,-4.8584,-4.9675,-5.0494,-5.1063,-5.1316,-5.1258,-5.0906,-5.0026,-4.9169,-4.8213,-4.6768,-4.63,-4.63,-4.63,-4.63,-4.63,-4.63,0.0,0.0,0.0,0.0,0.0,-4.63,0.0,-4.6124,-4.55,-4.5363,-4.509,-4.4211,-4.3548,-4.3118,-4.3121,-4.2919,-4.2458,-4.1582,-4.1458,-4.1903,-4.3112,-4.2955,-4.3208,-4.4426,0.0,0.0,0.0,-4.1465,-4.0822,-4.076,-4.0471,-4.0301,-4.0301,-4.0301,-4.0301,-4.0301,-4.03,-4.0307,-4.0323,-4.0433,-4.0539,-4.0619,-4.0752,-4.0808,-4.0809,-4.0804,-4.0792,-4.0803,-4.0863,-4.0896,-4.091,-4.1046,-4.1098,-4.1108,-4.1171,-4.1191,-4.1191,0.0,0.0,0.0,0.0,0.0,0.0,0.0,0.0,-4.6923,0.0,0.0,0.0,-4.8527,-4.8675,-4.8732,-4.876,-4.8292,-4.7999,-4.8002,-4.7508,-4.7015,-4.6625,-4.6572,-4.636,-4.5966,0.0,0.0,0.0,0.0,0.0,0.0,0.0,0.0,0.0,0.0,-4.5791,-4.5867,-4.5975,-4.6067,-4.627,-4.7523,-4.8359,-4.8935,-5.0165,-5.0965,-5.1394,-5.1394,-5.1394,-5.1277,-5.0397,-4.9304,-4.8076,-4.6729,-4.63,-4.63,-4.63,-4.6298,-4.6294,-4.6294,-4.6288,-4.626,-4.626,0.0,0.0,-4.626,-4.5996,-4.5611,0.0,-4.4715,-4.4192,-4.3313,-4.2747,-4.2279,-4.1927,-4.1857,-4.1689,-4.1168,-4.1093,-4.1592,-4.2939,-4.2685,-4.278,0.0,-4.2848,-4.2029,-4.1593,-4.0925,-4.0481,-4.0351,-4.0328,-4.0301,-4.0301,-4.0301,-4.0301,-4.0301,-4.03,-4.0308,-4.0307,-4.0411,-4.0519,-4.0595,-4.0707,-4.077,-4.0797,-4.0804,-4.0792,-4.0803,-4.0872,-4.0906,-4.091,-4.1059,-4.1093,-4.1105,-4.1131,-4.1152,-4.1152,0.0,0.0,0.0,0.0,0.0,0.0,0.0,0.0,-4.8227,0.0,-4.8538,-4.8725,-4.8856,-4.886,-4.8905,-4.8976,-4.8876,-4.8837,-4.882,-4.8676,-4.8239,-4.7455,-4.7274,-4.6823,-4.6035,-4.5868,0.0,0.0,0.0,0.0,0.0,0.0,0.0,0.0,0.0,0.0,-4.5793,-4.586,-4.5961,-4.6247,-4.8056,-4.8784,-4.8992,-5.0748,-5.1392,-5.1394,-5.1394,-5.1394,-5.1258,-5.028,-4.8894,-4.745,-4.6571,-4.6298,-4.6296,-4.6296,-4.6288,-4.6299,-4.6277,-4.624,-4.62,-4.6196,-4.6196,0.0,-4.6063,-4.5496,-4.4929,0.0,-4.4081,-4.3289,-4.241,-4.2254,-4.2002,-4.1223,-4.1108,-4.1093,-4.1104,-4.1092,-4.1425,-4.2293,-4.2316,-4.2295,-4.2387,-4.2186,-4.1718,-4.0856,-4.0662,-4.0492,-4.0316,-4.0291,-4.0291,-4.0291,-4.0272,-4.0272,-4.0291,-4.0291,-4.0281,-4.0298,-4.0362,-4.0474,-4.0588,-4.0668,-4.0739,-4.0797,-4.0804,-4.0792,-4.0803,-4.087,-4.0907,-4.0902,-4.1047,-4.1103,-4.1099,-4.1109,-4.1092,-4.1112,0.0,0.0,0.0,0.0,0.0,0.0,0.0,0.0,-4.8383,-4.9151,-4.9922,-5.0445,-5.0523,-5.0532,-5.057,-5.0694,-5.0017,-4.9609,-4.9668,-4.8951,-4.8425,-4.8199,-4.7458,-4.6966,-4.6793,-4.6097,0.0,0.0,0.0,0.0,0.0,0.0,0.0,0.0,0.0,0.0,-4.5739,-4.5859,-4.5949,-4.6173,-4.8,-4.8743,-4.8981,-5.0738,-5.1408,-5.1394,-5.1394,-5.1394,-5.116,-4.9579,-4.8363,-4.7379,-4.6561,-4.6255,-4.6217,-4.6217,-4.6225,-4.6209,-4.6157,-4.6126,-4.6119,-4.6119,-4.6115,0.0,-4.5223,-4.4958,-4.4462,0.0,-4.2691,-4.2326,-4.1496,-4.1342,-4.1291,-4.1133,-4.1097,-4.1101,-4.1093,-4.1104,-4.1424,-4.2304,-4.1785,0.0,-4.2325,-4.1648,-4.1062,-4.0824,-4.0582,-4.0397,-4.0297,-4.0244,-4.0215,-4.0215,-4.0166,-4.0166,-4.0215,-4.0215,-4.0253,-4.0301,-4.0363,-4.0447,-4.0512,-4.0636,-4.0739,-4.0797,-4.0804,-4.0792,-4.0803,-4.087,-4.0903,-4.0906,-4.1053,-4.1094,-4.1094,-4.1108,-4.1092,-4.1112,0.0,0.0,0.0,0.0,0.0,0.0,0.0,0.0,-4.9711,-5.0577,-5.1519,-5.2112,-5.2142,-5.2182,-5.2217,-5.2295,-5.1869,-5.1436,-5.1016,-5.056,-4.9888,-4.8991,-4.8503,-4.7844,-4.697,-4.6532,-4.6082,0.0,0.0,0.0,0.0,0.0,0.0,0.0,0.0,-4.5673,-4.5695,-4.5758,-4.5866,-4.6063,-4.747,-4.8353,-4.893,-5.0243,-5.1013,-5.1394,-5.1394,-5.1121,-5.0555,-4.9247,-4.8224,-4.7355,-4.6511,-4.6198,-4.6151,-4.6141,-4.6138,-4.6091,-4.6059,-4.6032,-4.5998,-4.6002,-4.5672,0.0,0.0,-4.4087,-4.3261,-4.2416,-4.1898,-4.1477,-4.1078,-4.1026,-4.1042,-4.1042,-4.1072,-4.0944,-4.0508,-4.0837,-4.1261,-4.1699,-4.1365,0.0,-4.1714,-4.1269,-4.0738,-4.0178,-3.9525,-3.9144,-3.9097,-3.9011,-3.8947,-3.8947,-3.889,-3.889,-3.8947,-3.8947,-3.8965,-3.9011,-3.9501,-3.9786,-3.9861,-4.0442,-4.0739,-4.0797,-4.0804,-4.0792,-4.0803,-4.0837,-4.0853,-4.0864,-4.1,-4.1072,-4.1058,-4.0612,-4.0463,-4.0446,-4.4453,0.0,0.0,0.0,0.0,0.0,0.0,0.0,0.0,-5.2038,-5.282,-5.3282,-5.3292,-5.3357,-5.3384,-5.3374,-5.3381,-5.308,-5.237,-5.2168,-5.1456,-5.0042,-4.967,-4.8815,-4.7409,-4.7066,-4.6567,0.0,0.0,0.0,0.0,0.0,0.0,0.0,-4.5594,-4.564,-4.5701,-4.5701,-4.5777,-4.5945,-4.678,-4.7677,-4.8635,-4.9686,-5.0521,-5.1156,-5.1156,-5.0588,-4.9725,-4.8847,-4.796,-4.7103,-4.641,-4.6125,-4.606,-4.6063,-4.6003,-4.5963,-4.5958,-4.5922,-4.588,-4.5854,-4.5228,-4.455,0.0,0.0,0.0,-4.1942,-4.1353,-4.0861,-4.087,0.0,0.0,0.0,0.0,0.0,0.0,-4.0268,0.0,-4.06,-4.0605,0.0,-4.0595,-4.0549,-4.0151,-3.9323,-3.8452,-3.7928,-3.7928,-3.7768,-3.7688,-3.7688,-3.7604,-3.7595,-3.767,-3.7679,-3.7696,-3.7729,-3.852,-3.8927,-3.9003,-3.9831,-4.0255,-4.0294,-4.0319,-4.0308,-4.0294,-4.0304,-4.0314,-4.0352,-4.0642,-4.0785,-4.0721,-3.9875,-3.9597,-3.9545,-4.5479,-4.5608,0.0,0.0,0.0,0.0,0.0,0.0,0.0,-5.2953,-5.3145,-5.3233,-5.3282,-5.3321,-5.3321,-5.332,-5.33,-5.3271,-5.3165,-5.2434,-5.1934,-5.1712,-5.024,-4.9327,-4.9115,-4.7663,-4.6846,-4.6759,0.0,0.0,0.0,0.0,0.0,0.0,-4.5594,-4.564,-4.5701,-4.5701,-4.5735,-4.5833,-4.6009,-4.6662,-4.7743,-4.9396,-5.011,-5.0247,-5.0247,-4.9686,-4.8802,-4.7947,-4.7037,-4.6231,-4.613,-4.6027,-4.5922,-4.5916,-4.5873,-4.5827,-4.5819,-4.5817,-4.5795,-4.5746,-4.5113,-4.431,-4.3547,0.0,-4.1809,-4.1028,0.0,-4.0748,-4.0798,0.0,0.0,0.0,0.0,0.0,-3.9811,-3.9215,-3.8807,-3.8806,-3.8806,0.0,0.0,-3.8739,-3.8628,-3.8447,-3.8215,-3.8045,-3.8,-3.7755,-3.7613,-3.7613,-3.749,-3.7479,-3.7614,-3.7613,-3.7677,-3.7791,-3.8017,-3.813,-3.8134,-3.8388,-3.8487,-3.8508,-3.8551,-3.8546,-3.8508,-3.8562,-3.8579,-3.8673,-3.9522,-3.9843,-3.9755,-3.8941,-3.8693,-3.8724,-4.5694,-4.6457,-4.7523,0.0,0.0,0.0,0.0,0.0,0.0,-5.3837,-5.4357,-5.4656,-5.4696,-5.4687,-5.4687,-5.4688,-5.4688,-5.4495,-5.4033,-5.3647,-5.3002,-5.1982,-5.125,-5.0394,-4.9413,-4.8702,-4.7875,-4.6904,-4.6528,0.0,0.0,0.0,0.0,0.0,-4.5594,-4.5622,-4.564,-4.564,-4.569,-4.575,-4.581,-4.6132,0.0,-4.7999,-4.8814,-4.9292,-4.9283,-4.8723,-4.7926,0.0,-4.6792,0.0,0.0,-4.5989,-4.5899,-4.5854,-4.58,-4.5734,-4.5739,-4.5735,-4.5615,-4.5078,-4.4318,-4.347,-4.2637,-4.1791,-4.1079,-4.0713,0.0,0.0,0.0,0.0,0.0,0.0,-4.0179,0.0,0.0,0.0,-3.7897,0.0,0.0,0.0,0.0,0.0,0.0,0.0,-3.7013,-3.6613,-3.6548,-3.637,-3.6258,-3.6207,-3.6119,-3.611,-3.6219,-3.6218,-3.6266,-3.6416,-3.7012,-3.7306,-3.7327,-3.7965,-3.8239,-3.8199,-3.826,-3.8255,-3.8193,-3.823,-3.8235,-3.8227,-3.8156,-3.8477,-3.8851,-3.8044,-3.7785,-3.7764,-4.6299,-4.7294,-4.8399,-4.9017,0.0,0.0,0.0,0.0,0.0,-5.4722,-5.5338,-5.5703,-5.5703,-5.5703,-5.5703,-5.5703,-5.5703,-5.5453,-5.4876,-5.4626,-5.3933,-5.2673,-5.2154,-5.1327,-5.0106,-4.9644,-4.8682,-4.7231,0.0,0.0,0.0,0.0,0.0,0.0,-4.5594,-4.5594,-4.5594,-4.5594,-4.564,-4.5709,-4.5746,-4.5803,-4.599,-4.6989,-4.7901,-4.8631,-4.8401,-4.7892,-4.7305,-4.7014,-4.6478,0.0,-4.5947,-4.5899,-4.5831,-4.5783,-4.5731,-4.5668,-4.5668,0.0,0.0,0.0,0.0,0.0,0.0,-4.1193,-4.0559,-4.0559,-4.0559,0.0,0.0,0.0,-4.063,-4.0435,0.0,-3.8898,0.0,-3.7225,0.0,0.0,0.0,0.0,0.0,0.0,0.0,-3.6779,-3.6085,-3.5637,-3.5565,-3.5404,-3.5315,-3.5258,-3.5174,-3.5157,-3.5226,-3.525,-3.5312,-3.5441,-3.6138,-3.6485,-3.6528,-3.7257,-3.7563,-3.7514,-3.7577,-3.7566,-3.7522,-3.7522,-3.7522,-3.7464,-3.6873,-3.708,-3.7626,-3.7044,-3.6895,-3.6844,-4.7725,-4.7969,-4.8572,-4.9762,0.0,0.0,0.0,0.0,-5.4741,-5.5549,-5.5684,-5.5703,-5.5703,-5.5703,-5.5703,-5.5703,-5.5703,-5.5684,-5.5665,-5.4934,-5.4472,-5.4414,-5.2799,-5.1865,-5.1827,-5.024,-4.8952,-4.8067,0.0,0.0,0.0,0.0,0.0,0.0,-4.5594,-4.5594,-4.5594,-4.5594,-4.564,-4.5701,-4.5701,-4.5738,-4.5914,0.0,-4.7835,-4.8497,-4.766,0.0,0.0,-4.6228,-4.5886,0.0,0.0,0.0,0.0,0.0,0.0,0.0,0.0,0.0,0.0,-4.4306,0.0,0.0,0.0,0.0,-4.0496,0.0,-4.0496,-4.0531,-4.058,-4.0588,-4.0347,-3.9567,-3.8717,0.0,0.0,-3.6239,-3.5781,-3.5875,0.0,0.0,0.0,0.0,-3.5947,-3.5947,-3.5861,-3.576,-3.5707,-3.5508,-3.539,-3.5379,-3.5266,-3.5226,-3.5304,-3.5361,-3.5422,-3.5509,-3.5581,-3.5676,-3.5741,-3.5771,-3.5791,-3.5785,-3.5785,-3.5769,-3.5781,-3.5781,-3.5781,-3.5787,-3.5755,-3.5795,-3.5885,-3.5927,-3.5981,-3.6044,-4.8656,-4.877,-4.9049,-4.9693,-4.9992,-5.0796,0.0,-5.3902,-5.478,-5.5588,-5.5703,-5.5703,-5.5703,-5.5703,-5.5703,-5.5703,-5.5703,-5.5703,-5.5703,-5.5453,-5.5049,-5.4511,-5.3376,-5.2481,-5.1904,-5.0818,-4.9548,-4.8105,-4.7836,0.0,0.0,0.0,0.0,0.0,0.0,-4.5594,-4.5594,-4.5594,-4.5603,0.0,0.0,-4.5714,-4.5785,0.0,-4.65,-4.6713,-4.6416,-4.6286,0.0,-4.5875,-4.5742,-4.5723,-4.5723,-4.573,-4.5701,-4.5701,-4.5648,0.0,0.0,0.0,-4.4162,-4.3643,0.0,0.0,0.0,0.0,0.0,0.0,0.0,0.0,-4.0531,-4.0111,-3.9651,-3.9383,-3.8157,-3.7141,0.0,-3.614,-3.5667,-3.5727,-3.5833,-3.591,0.0,0.0,0.0,-3.589,-3.5886,-3.5845,-3.5765,-3.5649,-3.5568,-3.5464,-3.5431,-3.5404,-3.5435,-3.5456,-3.5496,-3.5562,-3.5632,-3.5688,-3.5694,-3.5757,-3.5747,-3.5707,-3.5707,-3.5692,-3.5704,-3.5704,-3.5704,-3.5709,-3.5697,-3.5732,-3.5803,-3.5885,-3.5934,-3.6,-4.9015,-4.9116,-4.9262,-4.954,-5.0358,-5.1541,-5.323,-5.4301,-5.5085,-5.5626,-5.5703,-5.5703,-5.5703,-5.5703,-5.5703,-5.5703,-5.5703,-5.5703,-5.5703,-5.5703,-5.5472,-5.4953,-5.3818,-5.2953,-5.2365,-5.126,-4.9856,-4.8105,-4.8105,-4.724,0.0,0.0,0.0,0.0,0.0,-4.5594,-4.5594,-4.5594,-4.5594,0.0,0.0,-4.5654,0.0,0.0,-4.5742,-4.5764,0.0,-4.5758,-4.5762,-4.5711,-4.5676,-4.566,-4.566,-4.5662,-4.5657,-4.5657,-4.564,-4.5537,-4.5229,-4.4509,0.0,-4.2835,-4.1989,0.0,-4.0631,0.0,-4.0496,0.0,0.0,0.0,0.0,-3.9815,-3.9157,-3.8846,-3.7651,-3.6665,0.0,-3.5887,-3.5589,-3.566,-3.5788,-3.5872,-3.59,-3.5907,-3.5898,-3.5908,-3.59,-3.5875,0.0,0.0,-3.5689,-3.5566,-3.5574,-3.555,-3.554,-3.5552,-3.5593,-3.5639,-3.5674,-3.5713,-3.5737,-3.5757,-3.5737,-3.5707,-3.5697,-3.5701,-3.5704,-3.5704,-3.569,-3.5706,-3.5693,-3.5736,-3.5807,-3.5872,-3.5938,-3.6003,-4.8909,-4.9033,-4.9241,-4.9465,-5.1268,-5.3003,-5.4044,-5.4998,-5.5607,-5.5692,-5.5703,-5.5703,-5.5703,-5.5703,-5.5703,-5.5703,-5.5703,-5.5703,-5.5703,-5.5703,-5.5684,-5.5645,-5.4068,-5.3183,-5.3145,-5.1529,-4.9856,-4.8105,-4.8105,0.0,0.0,0.0,0.0,0.0,-4.5594,0.0,-4.5594,-4.5594,-4.5594,-4.5594,-4.5594,-4.5594,-4.5594,-4.5594,-4.5646,-4.57,-4.57,-4.5695,-4.5701,-4.5701,-4.5648,-4.5594,-4.5594,-4.5594,-4.5594,-4.5556,-4.5537,-4.5344,-4.447,-4.3643,-4.2835,-4.2,0.0,0.0,0.0,0.0,-4.0496,0.0,0.0,0.0,0.0,0.0,-3.8861,-3.8019,-3.7187,-3.6363,-3.5611,-3.5509,-3.5522,-3.5591,-3.5703,-3.5815,-3.5876,-3.5903,-3.5901,-3.5896,-3.5893,-3.5901,0.0,0.0,-3.5772,-3.5713,-3.5708,-3.5678,-3.5612,-3.5672,-3.5698,-3.5704,-3.5704,-3.5737,-3.5799,-3.5733,-3.5707,-3.5707,-3.5701,-3.5709,-3.5709,-3.5709,-3.5706,-3.5693,-3.5704,-3.5756,-3.5811,-3.5888,-3.5951,-3.5992,-4.8909,-4.9498,-5.0233,-5.1031,-5.2409,-5.359,-5.4046,-5.4891,-5.5492,-5.5607,-5.5618,-5.564,-5.5684,-5.5703,-5.5703,-5.5703,-5.5703,-5.5703,-5.5703,-5.5703,-5.5434,-5.4818,-5.378,-5.2895,-5.225,-5.1221,-4.9856,-4.8105,-4.8105,0.0,-4.5594,0.0,0.0,0.0,0.0,-4.5594,-4.5594,-4.5594,-4.5594,-4.5594,-4.5594,-4.5594,-4.5594,0.0,-4.5603,-4.5629,-4.5629,-4.562,-4.5631,-4.5631,-4.5603,-4.5594,-4.5594,-4.5594,-4.5479,-4.4816,-4.4624,-4.4451,-4.3624,-4.2777,-4.2085,-4.1865,-4.1143,-4.0496,0.0,0.0,0.0,0.0,0.0,0.0,0.0,0.0,0.0,-3.7942,-3.6688,-3.5676,-3.5514,-3.5501,-3.5515,-3.5515,-3.5606,-3.5679,-3.5732,-3.5846,-3.5908,-3.5901,-3.5957,0.0,0.0,0.0,0.0,-3.5772,-3.5763,-3.5742,-3.5678,-3.5683,-3.5693,-3.5698,-3.5698,-3.5713,-3.5732,-3.5703,-3.5707,-3.5707,-3.5701,-3.5701,-3.5697,-3.5697,-3.5723,-3.5766,-3.5775,-3.5853,-3.5945,-3.5963,-3.598,-3.5992,-4.8909,-4.9926,-5.1016,-5.1619,-5.2949,0.0,-5.4436,-5.4924,-5.532,-5.5456,-5.5492,-5.5527,-5.5562,-5.5618,-5.5671,-5.5671,-5.5673,-5.5703,-5.5703,-5.5376,-5.4972,-5.4511,-5.3299,-5.2404,-5.1904,-5.1106,-4.9856,-4.8105,-4.8105,0.0,-4.5594,0.0,0.0,0.0,0.0,-4.5594,-4.5594,-4.5594,-4.5594,-4.5594,-4.5594,-4.5594,0.0,-4.5594,-4.5594,-4.5594,-4.5594,-4.5594,-4.5594,-4.5594,-4.5594,-4.5594,-4.5594,-4.5344,-4.494,-4.4432,-4.4047,-4.3585,-4.2758,-4.2181,-4.1712,-4.1335,-4.0854,-4.0496,-4.0496,-4.05,-4.0503,0.0,0.0,0.0,0.0,0.0,0.0,-3.688,-3.5998,-3.542,-3.5493,-3.5501,-3.5495,-3.5502,-3.556,-3.5599,-3.565,-3.5784,-3.5864,-3.5908,-3.5925,0.0,0.0,0.0,0.0,-3.5853,-3.584,-3.5803,-3.5736,-3.5732,-3.5742,-3.5742,-3.5708,-3.5708,-3.5708,-3.5702,-3.5692,-3.5711,-3.5706,-3.5702,-3.5708,-3.5728,-3.5769,-3.5815,-3.5859,-3.5931,-3.6007,-3.6006,-3.5992,-3.5993,-4.8909,-5.0298,-5.1503,-5.1571,-5.304,0.0,0.0,-5.4981,0.0,-5.5255,0.0,-5.5371,-5.5395,-5.5516,-5.5546,-5.5442,-5.5498,-5.5491,-5.5376,-5.4722,-5.428,-5.4164,-5.2712,-5.1846,-5.175,-5.0952,-4.9721,-4.8105,-4.799,0.0,0.0,0.0,0.0,0.0,0.0,0.0,0.0,-4.5594,-4.5594,-4.5594,-4.5594,-4.5594,-4.5594,-4.5594,-4.5594,-4.5594,-4.5594,-4.5594,-4.5594,-4.5594,-4.5518,-4.5441,-4.5441,-4.4836,-4.4124,-4.4008,-4.3489,-4.2739,-4.1873,-4.1643,-4.145,-4.0689,-4.0496,-4.0496,-4.0508,-4.0487,-4.0474,-4.0485,-4.0328,-3.997,0.0,0.0,0.0,-3.555,-3.5364,-3.542,-3.5493,-3.5502,-3.5496,-3.5507,-3.5554,0.0,0.0,-3.5726,-3.5836,-3.5883,0.0,0.0,0.0,0.0,0.0,-3.5902,-3.5894,0.0,-3.5815,0.0,-3.5792,-3.5803,-3.5737,-3.5694,-3.5707,-3.5701,-3.569,-3.5695,-3.5707,-3.5713,-3.5727,-3.5786,-3.5815,-3.5846,-3.5947,-3.6009,-3.5999,-3.5992,-3.5995,-3.5995,-4.8909,-5.0264,-5.1434,-5.1503,-5.2953,-5.4216,-5.4474,-5.4616,-5.4799,-5.5094,-5.5149,-5.5216,-5.5383,-5.5468,-5.527,-5.4663,-5.4671,-5.4414,-5.3683,-5.351,-5.3106,-5.2385,-5.2058,-5.1587,-5.0914,-5.0067,-4.9125,-4.8105,-4.7451,-4.6586,0.0,0.0,0.0,0.0,0.0,0.0,-4.5594,-4.5594,0.0,-4.5594,-4.5594,-4.5594,-4.5594,-4.5594,-4.5594,-4.5594,-4.5594,-4.5594,-4.5594,-4.5594,-4.5133,-4.4528,-4.4528,-4.397,-4.3162,-4.245,-4.2143,-4.1835,-4.095,-4.0727,-4.0689,-4.0535,-4.0496,-4.0508,-4.0507,-4.0466,-4.0405,-4.0342,-3.9743,-3.9191,-3.9039,0.0,0.0,0.0,0.0,0.0,-3.5493,-3.5502,-3.5496,-3.5507,-3.5554,-3.5604,-3.559,0.0,0.0,0.0,0.0,0.0,0.0,0.0,0.0,0.0,-3.5901,0.0,0.0,0.0,-3.5795,-3.581,-3.5727,-3.5694,-3.5707,-3.5702,-3.5702,-3.5702,-3.5752,-3.5778,-3.578,-3.5802,-3.5878,-3.597,-3.5994,-3.6007,-3.5993,-3.5994,-3.5995,-3.5996,-4.8909,-4.9912,-5.0784,-5.0782,-5.1858,0.0,0.0,-5.3092,-5.3469,-5.4177,-5.4354,-5.4294,-5.3983,-5.4082,-5.4024,-5.3697,-5.3766,-5.3645,-5.3241,-5.2779,-5.2327,-5.1923,-5.151,-5.0875,-5.0029,-4.9606,-4.8779,-4.749,-4.7077,-4.6451,-4.5594,0.0,0.0,0.0,0.0,-4.5594,0.0,0.0,0.0,-4.5594,-4.5594,-4.5594,-4.5594,-4.5594,-4.5325,-4.494,-4.494,-4.4662,-4.4374,-4.4778,-4.4374,-4.3682,-4.3682,-4.3104,-4.2335,-4.1923,-4.1489,-4.1027,-4.0612,-4.0496,-4.0496,-4.0496,-4.0496,-4.05,-4.0491,-4.0413,-4.0219,-3.9734,-3.925,-3.866,-3.7856,-3.6674,0.0,0.0,0.0,0.0,0.0,-3.5501,-3.5508,-3.55,-3.5534,-3.556,-3.5596,-3.5694,0.0,0.0,0.0,0.0,0.0,0.0,0.0,0.0,0.0,0.0,0.0,0.0,0.0,-3.5791,-3.5772,-3.5743,-3.5747,-3.5747,-3.5756,-3.5754,-3.5783,-3.5822,-3.584,-3.5897,-3.5935,-3.6,-3.6009,-3.5993,-3.5995,-3.5995,-3.5996,-3.5996,-4.8909,-4.9596,-5.0153,-5.0116,-5.0893,-5.154,-5.1589,-5.1811,-5.2284,-5.3112,-5.3356,-5.3238,-5.2631,-5.2736,-5.2824,-5.2721,-5.2831,-5.2846,-5.2683,-5.1856,-5.1365,-5.1365,-5.0587,-4.9817,-4.9144,-4.8952,-4.8221,-4.6904,-4.6721,0.0,0.0,0.0,0.0,0.0,0.0,0.0,0.0,0.0,-4.5594,-4.5594,-4.5594,-4.5594,-4.5575,-4.5402,-4.4893,-4.4278,-4.4105,-4.3528,-4.2912,-4.3566,-4.3355,-4.2816,-4.2816,-4.2239,-4.1527,-4.1527,-4.1046,-4.0496,-4.0496,-4.0496,-4.0496,-4.0496,-4.0496,-4.05,-4.0482,-4.0245,-3.9821,-3.9107,-3.8594,-3.7861,-3.6483,-3.567,0.0,0.0,0.0,0.0,0.0,0.0,-3.55,-3.5486,-3.5493,-3.5521,-3.5583,0.0,0.0,0.0,0.0,0.0,0.0,0.0,0.0,0.0,0.0,-3.5973,-3.5916,0.0,-3.5888,0.0,-3.584,-3.5817,-3.5819,-3.5819,-3.5827,-3.5829,-3.5814,-3.5864,-3.5934,-3.5989,-3.6005,-3.5992,-3.5995,-3.5995,-3.5995,-3.5996,-3.5996,-3.5996,-4.8909,-4.9559,0.0,0.0,0.0,-5.1589,-5.1607,-5.1928,-5.2205,-5.2315,-5.2386,-5.2466,-5.2512,-5.264,-5.2443,-5.179,-5.1856,-5.1652,-5.0971,-5.0125,-4.9625,-4.9625,-4.8817,-4.8317,-4.8221,-4.7509,-4.7058,-4.6904,0.0,-4.5691,0.0,0.0,0.0,0.0,0.0,0.0,0.0,-4.5594,-4.5594,-4.5594,-4.5594,-4.5594,-4.5518,-4.472,-4.4374,-4.4201,-4.347,-4.2662,-4.1923,-4.2,-4.1981,-4.1923,-4.1923,-4.1316,-4.0631,-4.0631,-4.0554,-4.0496,-4.0496,-4.0496,-4.0496,-4.0496,-4.0496,-4.0473,-4.0413,-3.9742,-3.9069,-3.8852,-3.7651,-3.6363,-3.5479,-3.5304,-3.5308,0.0,0.0,0.0,0.0,0.0,-3.5486,-3.5412,-3.546,-3.5534,-3.5591,-3.5618,0.0,0.0,-3.5862,0.0,0.0,0.0,0.0,-3.5998,0.0,-3.5996,-3.5996,-3.5989,-3.5995,-3.5974,-3.5924,-3.5897,-3.5898,-3.5898,-3.5882,-3.5885,-3.5885,-3.5939,-3.5982,-3.5991,-3.5994,-3.5995,-3.5996,-3.5996,-3.5996,-3.5996,-3.5996,-3.5996,0.0,0.0,0.0,0.0,0.0,0.0,0.0,-5.03,-5.0476,-5.0522,-5.1171,-5.1504,-5.1089,-5.1148,-5.0916,-5.0216,-5.0244,-4.997,-4.9202,-4.8817,-4.8625,-4.8625,-4.8298,-4.7875,-4.7394,-4.7058,-4.6644,0.0,0.0,0.0,0.0,0.0,0.0,0.0,0.0,-4.5594,-4.5594,-4.5594,-4.5594,-4.5556,-4.5037,-4.4816,-4.472,-4.3893,-4.3258,-4.2758,-4.245,-4.1758,-4.1027,-4.1027,-4.1027,-4.1027,-4.1027,-4.0785,-4.0496,-4.0496,-4.0496,-4.0496,-4.0496,-4.0496,-4.0496,-4.0496,-4.015,-3.9762,-3.9698,-3.8944,-3.811,-3.754,-3.6528,-3.5654,-3.5362,-3.53,-3.5338,0.0,0.0,0.0,0.0,0.0,-3.5331,-3.5339,-3.5354,-3.5424,-3.554,-3.5571,0.0,0.0,0.0,0.0,0.0,0.0,0.0,-3.5938,0.0,-3.5936,-3.5948,-3.5975,-3.5994,-3.6001,-3.597,-3.5958,-3.5966,-3.5966,-3.5951,-3.5958,-3.5953,-3.5985,-3.5992,-3.5994,-3.5995,-3.5996,-3.5996,-3.5996,-3.5996,-3.5996,-3.5996,-3.5996,-4.8909,0.0,-4.8909,0.0,-4.9015,-4.9008,-4.8766,-4.884,-4.889,-4.8724,-4.9466,-4.9941,-4.9688,-4.9714,-4.9506,-4.8854,-4.8862,-4.8683,-4.8135,-4.7875,-4.7759,-4.7759,-4.7509,0.0,-4.6528,-4.6528,-4.622,-4.5594,-4.5594,0.0,0.0,0.0,0.0,0.0,-4.5594,-4.5594,-4.5575,-4.5325,-4.5229,-4.5152,-4.4297,-4.3951,-4.3855,-4.3028,-4.2335,-4.1769,-4.1508,-4.1027,-4.0496,-4.0496,-4.0496,-4.0496,-4.0496,-4.0496,-4.0496,-4.0496,-4.0496,-4.0496,-4.0496,-4.0496,-4.0439,-4.0208,-3.9727,-3.9212,-3.8888,-3.8115,-3.7204,-3.6334,-3.571,-3.5339,-3.5398,-3.5386,-3.5388,-3.5463,0.0,0.0,0.0,-3.5215,0.0,-3.5269,-3.5285,-3.5358,-3.5486,-3.5554,0.0,0.0,0.0,0.0,0.0,0.0,0.0,0.0,0.0,0.0,0.0,-3.5963,-3.5994,-3.5995,-3.5991,-3.6006,-3.6001,-3.6,-3.6003,-3.6009,-3.5991,-3.5994,-3.5995,-3.5995,-3.5996,-3.5996,-3.5996,-3.5996,-3.5996,-3.5996,-3.5996,-3.5996,-4.8909,-4.8909,-4.8909,-4.8909,-4.9015,-4.8822,-4.7949,-4.7981,-4.7856,-4.712,-4.717,-4.7602,-4.8507,-4.8693,-4.8465,-4.7872,-4.7945,-4.8039,-4.8096,-4.7355,-4.6904,0.0,0.0,-4.5633,-4.5614,-4.5614,-4.5614,-4.5594,0.0,0.0,-4.5594,0.0,-4.5594,-4.5594,-4.5594,-4.5594,-4.5537,-4.4682,-4.4316,-4.4239,-4.3431,-4.3104,-4.3028,-4.2162,-4.1808,-4.17,-4.0816,-4.0516,-4.0496,-4.0496,-4.0496,-4.0496,-4.0496,-4.0496,-4.0496,-4.0496,-4.0496,-4.0496,-4.0496,-4.0496,-4.0304,-3.9515,-3.9304,-3.9058,-3.8139,-3.7237,-3.6381,-3.5492,-3.5354,-3.5405,-3.5405,-3.5456,-3.5483,-3.54,0.0,0.0,0.0,-3.5149,0.0,-3.5182,-3.5261,-3.5358,-3.5486,-3.5554,0.0,0.0,0.0,0.0,0.0,0.0,0.0,-3.5795,-3.5869,0.0,-3.5909,-3.5971,-3.6007,-3.5991,-3.5996,-3.5995,-3.5995,-3.5992,-3.5992,-3.5995,-3.5995,-3.5995,-3.5996,-3.5996,-3.5996,-3.5996,-3.5996,-3.5996,-3.5996,-3.5996,-3.5996,-3.5996,-4.7256,-4.7306,-4.732,-4.732,-4.742,-4.7375,-4.7095,-4.7134,-4.7166,-4.703,-4.708,-4.7075,-4.6915,-4.753,-4.7712,0.0,-4.7086,-4.6906,0.0,-4.6163,-4.6009,-4.6009,-4.5748,-4.5594,-4.5594,-4.5594,-4.5594,-4.5594,0.0,0.0,0.0,-4.5676,-4.5673,-4.5648,-4.5062,-4.4784,-4.4726,-4.3855,-4.3481,-4.3415,-4.2555,-4.222,-4.2124,-4.1239,-4.0912,-4.0873,-4.0593,-4.0496,-4.0496,-4.0496,-4.0496,-4.04,-3.9842,-4.0054,-4.0496,-4.0496,-4.0112,-3.9688,-3.9688,-3.9246,-3.8719,-3.8469,-3.7969,-3.7469,-3.7207,-3.6516,-3.5829,-3.55,-3.5456,-3.5476,-3.5522,-3.5482,-3.5415,-3.5393,-3.527,0.0,-3.5063,0.0,-3.5001,-3.5065,-3.5168,-3.5266,-3.5357,-3.5509,0.0,0.0,0.0,0.0,0.0,0.0,0.0,0.0,-3.5807,0.0,-3.583,-3.5909,-3.5937,-3.5926,-3.5987,-3.5994,-3.5996,-3.5996,-3.5996,-3.5996,-3.5996,-3.5996,-3.5996,-3.5996,-3.5996,-3.5996,-3.5996,-3.5996,-3.5996,-3.5996,-3.5996,-3.5996,-4.6494,-4.6541,-4.6605,-4.6605,-4.6682,-4.6647,-4.633,-4.6334,-4.6329,-4.6149,-4.6195,-4.6123,-4.5803,-4.634,0.0,-4.6242,-4.6215,-4.6043,-4.5624,-4.5594,-4.5594,-4.5594,-4.5594,-4.5594,-4.5594,-4.5594,0.0,-4.564,-4.5637,-4.5662,-4.5687,-4.5351,-4.5213,-4.5179,-4.4322,-4.3956,-4.3898,-4.3027,-4.2653,-4.2568,-4.1698,-4.1347,-4.1301,-4.0743,-4.0523,-4.0496,-4.0496,-4.0496,-4.0458,-4.015,-4.0054,-3.99,-3.9068,-3.9165,-3.9569,-3.9554,-3.9207,-3.8815,-3.8815,-3.8411,-3.793,-3.7618,-3.7137,-3.6663,-3.6382,-3.5926,-3.5547,-3.5509,-3.5496,-3.5509,-3.5554,-3.5494,-3.5412,-3.5369,-3.5215,-3.5098,-3.5038,0.0,-3.4964,0.0,0.0,0.0,0.0,-3.5509,-3.5604,0.0,0.0,0.0,0.0,0.0,0.0,-3.5694,-3.5732,0.0,-3.5807,-3.584,-3.5875,-3.5907,-3.5965,-3.6002,-3.6009,-3.5992,-3.5993,-3.5993,-3.5993,-3.5993,-3.5994,-3.5994,-3.5995,-3.5996,-3.5996,-3.5996,-3.5996,-3.5996,-3.5996,-3.5996,-4.6343,-4.6406,-4.6435,0.0,-4.6557,0.0,-4.5667,-4.5594,-4.543,-4.4806,-4.4783,-4.4931,-4.5181,-4.5275,-4.5328,-4.5389,0.0,0.0,0.0,-4.5594,-4.5594,-4.5594,-4.5594,-4.5594,-4.5614,-4.5614,-4.5601,-4.5605,-4.5607,-4.5573,-4.5515,-4.4697,-4.4322,-4.4292,-4.3481,-4.3115,-4.3057,-4.2182,-4.1815,-4.1738,-4.0935,-4.0605,-4.0588,-4.0588,-4.0534,-4.0427,-4.0427,-4.0389,-4.0215,-3.9465,-3.9215,-3.9061,-3.8185,-3.793,-3.7942,-3.7983,-3.7957,-3.7918,-3.7918,-3.788,-3.7656,-3.6902,-3.6716,-3.6504,-3.5682,-3.5515,-3.5502,-3.552,-3.5502,-3.5496,-3.5494,-3.55,-3.5446,-3.5308,-3.5182,-3.5107,-3.5101,0.0,-3.5046,0.0,0.0,0.0,0.0,-3.5554,-3.559,0.0,0.0,0.0,0.0,0.0,-3.5701,-3.5702,-3.5689,-3.5732,-3.5794,-3.5807,-3.5827,-3.5885,-3.596,-3.5983,-3.5991,-3.5992,-3.5992,-3.5992,-3.5992,-3.5998,-3.6003,-3.6003,-3.6009,-3.5994,-3.5995,-3.5995,-3.5996,-3.5996,-3.5996,-3.5995,0.0,0.0,-4.4997,-4.4997,-4.5161,-4.5202,-4.5014,-4.5117,-4.5183,-4.5029,-4.5114,-4.5233,-4.5338,-4.5378,-4.5409,-4.5477,-4.5476,-4.5513,-4.5586,-4.5594,-4.5594,-4.5594,-4.5594,-4.5631,-4.5684,-4.5684,-4.5354,-4.4712,-4.4708,-4.4396,-4.3796,-4.3576,-4.3513,-4.3529,-4.2679,-4.2273,-4.2234,-4.135,-4.097,-4.095,-4.0698,-4.0607,-4.06,-4.06,-4.02,-3.9665,-3.9665,-3.9222,-3.8644,-3.8451,-3.8374,-3.822,-3.7359,-3.7077,-3.7205,-3.7873,-3.7603,-3.7083,-3.7083,-3.6646,-3.6113,-3.5926,-3.5887,-3.5822,-3.563,-3.5584,-3.5571,-3.5579,-3.5541,-3.5509,-3.5496,-3.5462,-3.5398,-3.5308,-3.5223,-3.5157,-3.5115,-3.5098,0.0,0.0,-3.5297,-3.5398,-3.5493,-3.5554,-3.5595,0.0,0.0,0.0,0.0,-3.5704,-3.5709,-3.5695,-3.5702,-3.5698,-3.5728,-3.576,-3.5819,-3.5811,-3.5899,-3.5923,-3.5933,-3.5986,-3.5992,-3.5992,-3.5992,-3.5994,-3.5995,-3.5995,-3.6001,-3.6008,-3.5991,-3.5994,-3.5995,-3.5995,-3.5995,-3.5994,-4.4444,-4.451,-4.4605,-4.4672,-4.4821,-4.4943,-4.4986,-4.5103,-4.5203,-4.5224,-4.5307,-4.5369,-4.5448,-4.5458,-4.5496,-4.5577,-4.555,-4.5522,-4.5605,-4.5631,-4.5648,-4.5648,-4.5646,-4.5662,-4.5687,-4.5321,-4.47,-4.3844,-4.3885,-4.3675,-4.3232,-4.2846,-4.2666,-4.2667,-4.1835,-4.1448,-4.1409,-4.0945,-4.0746,-4.0707,-4.0262,-4.0069,-4.0017,-3.9631,-3.9212,-3.8806,-3.8806,-3.8498,-3.8028,-3.7642,-3.7507,-3.736,-3.653,-3.6247,-3.6343,-3.6863,-3.6652,-3.6241,-3.6241,-3.5919,-3.5604,-3.5596,-3.562,-3.5631,-3.561,-3.559,-3.559,-3.5554,-3.5528,-3.5495,-3.5495,-3.5448,-3.5372,-3.5315,-3.5273,-3.5234,-3.5187,-3.5187,0.0,-3.5323,-3.5407,-3.5463,-3.5534,-3.5583,-3.561,-3.564,-3.5687,0.0,-3.5702,-3.5692,-3.5701,-3.5709,-3.5701,-3.5711,-3.5711,-3.5742,-3.5773,-3.5799,-3.584,-3.5843,-3.5852,-3.5886,-3.5914,-3.5914,-3.5914,-3.5902,-3.5914,-3.5938,-3.5976,-3.5996,-3.6005,-3.5991,-3.5993,-3.5994,-3.5992,-3.6006,-4.4685,-4.4732,-4.4802,-4.4931,-4.5072,-4.5173,-4.5246,-4.5309,-4.536,-4.5429,-4.5438,-4.5477,-4.5522,-4.5531,-4.5586,-4.5682,-4.5603,-4.5549,-4.5612,-4.5673,-4.5632,-4.5517,-4.5491,-4.5457,-4.533,-4.4608,-4.3832,-4.3018,-4.3072,-4.3034,-4.2918,-4.2164,-4.1816,-4.1796,-4.1106,-4.0797,-4.0797,-4.0661,-4.0603,-4.0526,-3.9655,-3.927,-3.9142,-3.8466,-3.808,-3.7913,-3.7913,-3.7836,-3.7623,-3.6871,-3.6639,-3.6511,-3.5832,-3.5612,-3.5637,-3.5679,-3.5651,-3.561,-3.561,-3.561,-3.5616,-3.5626,-3.5668,-3.5673,-3.5616,-3.5604,-3.5585,-3.5534,-3.552,-3.552,-3.552,-3.5467,-3.5393,-3.5345,-3.5327,-3.5331,-3.533,0.0,-3.5381,-3.5502,-3.5528,-3.5534,-3.5587,-3.5602,-3.5648,-3.5693,-3.5694,-3.5708,-3.5708,-3.5703,-3.5702,-3.5701,-3.569,-3.5704,-3.5704,-3.5698,-3.5732,-3.579,-3.5801,-3.5795,-3.5795,-3.5799,-3.5799,-3.5799,-3.5795,-3.5799,-3.5801,-3.5876,-3.5936,-3.5997,-3.5998,-3.6006,-3.5991,-3.5993,-3.6007,-3.5989,-4.5014,-4.5087,-4.5126,-4.5148,-4.5302,-4.5448,-4.5448,-4.5512,-4.5554,-4.5582,-4.5616,-4.566,-4.5676,-4.5676,-4.5684,-4.5692,-4.5684,-4.5676,-4.5684,-4.5692,-4.5364,-4.4623,-4.4612,-4.428,-4.3603,-4.3522,-4.3059,-4.2196,-4.2202,-4.1854,-4.1184,-4.1048,-4.099,-4.099,-4.0855,-4.0797,-4.0758,-4.0004,-3.9694,-3.9636,-3.876,-3.8406,-3.8361,-3.8245,-3.7742,-3.7098,-3.7098,-3.6654,-3.6054,-3.5925,-3.5867,-3.5847,-3.5718,-3.5679,-3.5679,-3.5704,-3.5679,-3.5673,-3.5673,-3.5673,-3.5673,-3.5679,-3.5684,-3.5679,-3.5626,-3.5595,-3.5608,-3.5585,-3.5579,-3.5579,-3.5579,-3.5534,-3.5489,-3.5463,-3.5468,-3.5474,-3.5476,0.0,-3.5502,-3.5585,-3.5575,-3.559,-3.5602,-3.5649,-3.5699,-3.5699,-3.5704,-3.5708,-3.5708,-3.5704,-3.5699,-3.5694,-3.5692,-3.5704,-3.5704,-3.5697,-3.5718,-3.5723,-3.5765,-3.5795,-3.5795,-3.5799,-3.5807,-3.5799,-3.5803,-3.5792,-3.5802,-3.5878,-3.5917,-3.5919,-3.5986,-3.6,-3.6005,-3.6006,-3.6001,-3.5989,-4.532,-4.5341,-4.5371,-4.5409,-4.5493,-4.5565,-4.559,-4.5632,-4.5657,-4.5657,-4.5673,-4.5708,-4.5708,-4.5708,-4.5542,-4.5094,-4.5055,-4.487,-4.4428,-4.4819,-4.4669,-4.3793,-4.3796,-4.3412,-4.2563,-4.2576,-4.2183,-4.1351,-4.1351,-4.1164,-4.0797,-4.0313,-4.01,-4.0081,-3.9611,-3.9398,-3.9379,-3.8972,-3.8798,-3.8721,-3.7851,-3.7497,-3.7444,-3.7019,-3.6593,-3.6245,-3.6245,-3.6013,-3.5704,-3.5704,-3.5704,-3.5704,-3.5704,-3.5704,-3.5704,-3.5704,-3.5704,-3.5704,-3.5704,-3.5704,-3.5704,-3.5704,-3.5704,-3.5679,-3.5612,-3.5606,-3.5595,-3.5604,-3.5598,-3.5598,-3.5598,-3.5554,-3.5509,-3.5509,-3.5489,0.0,0.0,-3.5553,-3.5577,-3.5643,-3.5648,-3.5649,-3.5649,-3.5704,-3.5747,-3.5747,-3.5756,-3.5745,-3.5745,-3.5751,-3.5747,-3.5747,-3.5713,-3.5693,-3.5693,-3.5703,-3.5708,-3.5708,-3.5722,-3.576,-3.576,-3.5754,-3.5758,-3.5754,-3.5778,-3.5791,-3.5815,-3.5868,-3.5905,-3.5902,-3.5931,-3.5963,-3.6007,-3.5991,-3.5985,-3.5931,-4.5549,-4.5558,-4.5593,-4.564,-4.5637,-4.5661,-4.5712,-4.5712,-4.5712,-4.5712,-4.5712,-4.5654,-4.5461,-4.5441,-4.5101,-4.43,-4.4223,-4.387,-4.3047,-4.3587,-4.3624,-4.2948,-4.2782,-4.2415,-4.1738,-4.1725,-4.1422,-4.0803,-4.0821,-4.0821,-4.0776,-3.9917,-3.953,-3.948,-3.8615,-3.8222,-3.8216,-3.8009,-3.7912,-3.7848,-3.6978,-3.6629,-3.6547,-3.5947,-3.569,-3.5704,-3.5704,-3.5704,-3.5704,-3.5704,-3.5704,-3.5704,-3.5704,-3.5704,-3.5704,-3.5704,-3.5704,-3.5704,-3.5704,-3.5704,-3.5704,-3.5704,-3.5704,-3.5679,-3.5637,-3.5612,-3.5626,-3.5622,-3.5622,-3.5622,-3.5622,-3.5572,-3.5515,-3.5515,0.0,0.0,0.0,-3.5601,-3.5615,-3.5693,-3.5718,-3.5713,-3.5713,-3.5775,-3.5808,-3.5808,-3.5806,-3.5795,-3.5795,-3.5797,-3.5808,-3.5808,-3.5722,-3.5708,-3.5708,-3.5708,-3.5708,-3.5713,-3.5722,-3.5712,-3.5721,-3.5721,-3.5721,-3.5721,-3.5773,-3.581,-3.5807,-3.5868,-3.5901,-3.5892,-3.5899,-3.5925,-3.5981,-3.5974,-3.5947,-3.5892,-4.5692,-4.5743,-4.5773,-4.5781,-4.5791,-4.5793,-4.5793,-4.58,-4.58,-4.58,-4.58,-4.5503,-4.4761,-4.4684,-4.4336,-4.3453,-4.3395,-4.3027,-4.2144,-4.2144,-4.2157,-4.208,-4.1371,-4.0951,-4.0893,-4.0899,-4.0852,-4.0794,-4.087,-4.0862,-4.0782,-3.9975,-3.9587,-3.9555,-3.867,-3.8282,-3.8243,-3.7429,-3.7095,-3.7011,-3.6144,-3.5786,-3.578,-3.5722,-3.5711,-3.5704,-3.5704,-3.5704,-3.5704,-3.5704,-3.5704,-3.5704,-3.5704,-3.5704,-3.5704,-3.5704,-3.5704,-3.5704,-3.5704,-3.5704,-3.5704,-3.5704,-3.5704,-3.5704,-3.5684,-3.5684,-3.5684,-3.5679,-3.5679,-3.5679,-3.5679,-3.5637,-3.5595,-3.5595,0.0,0.0,-3.5596,-3.5602,-3.5623,-3.5699,-3.5747,-3.5799,-3.5799,-3.5801,-3.5791,-3.5791,-3.5795,-3.5795,-3.5795,-3.5795,-3.5791,-3.5791,-3.5732,-3.5708,-3.5708,-3.5708,-3.5737,-3.5799,-3.5782,-3.5795,-3.5794,-3.5794,-3.5794,-3.5794,-3.5799,-3.5791,-3.5815,-3.5875,-3.5901,-3.5892,-3.5899,-3.5901,-3.5912,-3.5903,-3.5901,-3.5892,-4.5764,-4.5771,-4.5805,-4.5805,-4.5793,-4.5807,-4.5807,-4.5374,-4.5065,-4.5065,-4.4581,-4.4136,-4.3827,-4.3788,-4.344,-4.257,-4.2525,-4.2189,-4.1305,-4.1302,-4.1302,-4.1266,-4.0992,-4.0859,-4.0859,-4.0867,-4.0863,-4.0863,-4.0883,-4.0612,-4.0039,-3.9199,-3.8539,-3.8001,-3.7137,-3.6748,-3.672,-3.6399,-3.6259,-3.6235,-3.5905,-3.5765,-3.5756,-3.5761,-3.5766,-3.5757,-3.5702,-3.5692,-3.5711,-3.569,-3.5704,-3.5704,-3.5704,-3.5704,-3.5704,-3.5704,-3.5701,-3.5692,-3.5692,-3.5701,-3.5704,-3.5704,-3.5704,-3.5704,-3.5704,-3.5704,-3.5704,-3.5704,-3.5704,-3.569,-3.5711,-3.5651,-3.5615,-3.5657,0.0,-3.561,-3.5667,-3.5669,-3.5689,-3.5747,-3.5788,-3.5801,-3.5801,-3.581,-3.5795,-3.5795,-3.5795,-3.5795,-3.5795,-3.5807,-3.5795,-3.5795,-3.5827,-3.5799,-3.5752,-3.5799,-3.5838,-3.5864,-3.5853,-3.5855,-3.5867,-3.5867,-3.5861,-3.5852,-3.5866,-3.5859,-3.585,-3.5885,-3.59,-3.5892,-3.5902,-3.5902,-3.5899,-3.5892,-3.5899,-3.5906,-4.5007,-4.5007,-4.5007,-4.5007,-4.5007,-4.5007,-4.5007,-4.4543,-4.4188,-4.4188,-4.366,-4.3202,-4.295,-4.2912,-4.2576,-4.1724,-4.1695,-4.148,-4.0879,-4.0893,-4.0898,-4.0826,-4.0877,-4.0898,-4.0898,-4.0912,-4.093,-4.093,-4.096,-4.0517,-3.9606,-3.877,-3.7914,-3.7082,-3.6218,-3.5826,-3.5838,-3.5829,-3.5826,-3.5834,-3.5834,-3.583,-3.5795,-3.5803,-3.5806,-3.5788,-3.5757,-3.5723,-3.5723,-3.5723,-3.5732,-3.5727,-3.5727,-3.5722,-3.5692,-3.5692,-3.5707,-3.5698,-3.5698,-3.5707,-3.5692,-3.5692,-3.5692,-3.5692,-3.5692,-3.5692,-3.5692,-3.5692,-3.5692,-3.5697,-3.5698,-3.5664,-3.5658,-3.5698,-3.5664,-3.5644,-3.5728,-3.5728,-3.5747,-3.5788,-3.5806,-3.5795,-3.5795,-3.5795,-3.5795,-3.5795,-3.5795,-3.5799,-3.5803,-3.5811,-3.5829,-3.5836,-3.5872,-3.588,-3.582,-3.5875,-3.5906,-3.5894,-3.5892,-3.5906,-3.5931,-3.5927,-3.5938,-3.5926,-3.5924,-3.5911,-3.5894,-3.5906,-3.5908,-3.5908,-3.5894,-3.5897,-3.5897,-3.5914,-3.5929,-3.5946,-4.3305,-4.3305,-4.3305,-4.3305,-4.3305,-4.3305,-4.3305,-4.3305,-4.3285,-4.3285,-4.3299,-4.2988,-4.2188,-4.2092,-4.178,-4.096,-4.0893,-4.0907,-4.0907,-4.0952,-4.0975,-4.0893,-4.0907,-4.0907,-4.0907,-4.0975,-4.0996,-4.0996,-4.1067,-4.0613,-3.9669,-3.8861,-3.8022,-3.7158,-3.6287,-3.5895,-3.5892,-3.5897,-3.5895,-3.5889,-3.5889,-3.5852,-3.5804,-3.5804,-3.5799,-3.5795,-3.5795,-3.5795,-3.5795,-3.5795,-3.5801,-3.5803,-3.5803,-3.5747,-3.5708,-3.5708,-3.5708,-3.5708,-3.5708,-3.5708,-3.5708,-3.5708,-3.5708,-3.5708,-3.5708,-3.5708,-3.5708,-3.5708,-3.5708,-3.5708,-3.5708,-3.5708,-3.5708,-3.5708,-3.5708,-3.5718,-3.5799,-3.5803,-3.5808,-3.5791,-3.5795,-3.5795,-3.5795,-3.5795,-3.5795,-3.5795,-3.5795,-3.5803,-3.5807,-3.5866,-3.5894,-3.5908,-3.5895,-3.5892,-3.5901,-3.5901,-3.5901,-3.5901,-3.5901,-3.5932,-3.6004,-3.5996,-3.6007,-3.5999,-3.6009,-3.5953,-3.5908,-3.5908,-3.5908,-3.5892,-3.5904,-3.5909,-3.5912,-3.5974,-3.5992,-3.6006,-4.336,-4.3366,-4.3391,-4.3427,-4.3447,-4.3447,-4.3447,-4.2928,-4.2521,-4.2521,-4.2008,-4.1509,-4.1276,-4.1252,-4.1165,-4.0913,-4.0935,-4.098,-4.1033,-4.1064,-4.1056,-4.103,-4.1048,-4.1036,-4.1036,-4.1067,-4.1061,-4.1061,-4.0489,-3.973,-3.8848,-3.8034,-3.7193,-3.6348,-3.6081,-3.5963,-3.5978,-3.5963,-3.5963,-3.5978,-3.5978,-3.5955,-3.5947,-3.5892,-3.5866,-3.5863,-3.5879,-3.5869,-3.5856,-3.5813,-3.5799,-3.5795,-3.5799,-3.5792,-3.5768,-3.5768,-3.5776,-3.5768,-3.5768,-3.5772,-3.5767,-3.5718,-3.5708,-3.5708,-3.5708,-3.5708,-3.5708,-3.5708,-3.5708,-3.5713,-3.5766,-3.577,-3.5775,-3.5773,-3.5773,-3.5778,-3.5806,-3.5806,-3.5806,-3.5795,-3.5795,-3.5799,-3.5795,-3.5795,-3.5823,-3.5861,-3.5875,-3.5869,-3.5866,-3.5897,-3.5897,-3.5908,-3.5947,-3.5979,-3.5965,-3.5978,-3.5975,-3.5979,-3.5967,-3.5989,-3.6009,-3.6004,-3.5995,-3.5999,-3.6009,-3.5958,-3.5904,-3.5953,-3.596,-3.5968,-3.597,-3.5962,-3.5974,-3.5983,-3.5992,-3.5996,-4.2407,-4.2412,-4.2417,-4.2451,-4.2471,-4.2471,-4.2471,-4.2029,-4.168,-4.168,-4.1252,-4.0935,-4.0935,-4.0968,-4.0988,-4.0988,-4.1023,-4.1056,-4.1107,-4.1094,-4.1101,-4.1093,-4.1108,-4.1101,-4.1109,-4.1106,-4.1095,-4.1098,-4.0243,-3.9385,-3.8525,-3.7686,-3.6825,-3.6001,-3.6003,-3.6003,-3.6001,-3.6003,-3.6003,-3.6001,-3.6001,-3.6,-3.5996,-3.5952,-3.5931,-3.5931,-3.5933,-3.5949,-3.5931,-3.5899,-3.5868,-3.5836,-3.5836,-3.5846,-3.5846,-3.5846,-3.5836,-3.5841,-3.5836,-3.5843,-3.5824,-3.5784,-3.5763,-3.5736,-3.5736,-3.5736,-3.5736,-3.5736,-3.5736,-3.576,-3.5793,-3.5793,-3.5797,-3.5795,-3.5803,-3.5807,-3.5807,-3.5815,-3.5842,-3.5842,-3.5842,-3.583,-3.5849,-3.5833,-3.5859,-3.5892,-3.5894,-3.5908,-3.5897,-3.5925,-3.5944,-3.5936,-3.5986,-3.5992,-3.5994,-3.5993,-3.5992,-3.5992,-3.5995,-3.5995,-3.5993,-3.6009,-3.6001,-3.6004,-3.5999,-3.5972,-3.5945,-3.5978,-3.6007,-3.5992,-3.6,-3.5989,-3.5956,-3.5957,-3.5952,-3.5956,-4.0926,-4.0926,-4.093,-4.0915,-4.0915,-4.0915,-4.0915,-4.0915,-4.0915,-4.0915,-4.0968,-4.1011,-4.1011,-4.1067,-4.1098,-4.1098,-4.1099,-4.1091,-4.1093,-4.1098,-4.1101,-4.1102,-4.109,-4.1109,-4.1095,-4.11,-4.1065,-4.0992,-4.0175,-3.9336,-3.8456,-3.7598,-3.6757,-3.5993,-3.5995,-3.5995,-3.5993,-3.5995,-3.5995,-3.5992,-3.5914,-3.5874,-3.5871,-3.5874,-3.5873,-3.5891,-3.5972,-3.5992,-3.5992,-3.5992,-3.5967,-3.5914,-3.5919,-3.5914,-3.5914,-3.5914,-3.5914,-3.591,-3.5901,-3.5895,-3.589,-3.5897,-3.585,-3.5811,-3.5807,-3.5807,-3.5807,-3.5807,-3.5807,-3.5807,-3.5807,-3.5807,-3.5807,-3.5807,-3.5803,-3.5815,-3.5818,-3.5856,-3.5908,-3.5908,-3.5908,-3.5895,-3.5911,-3.5911,-3.5914,-3.5891,-3.5916,-3.5912,-3.5912,-3.5962,-3.6,-3.5991,-3.5994,-3.5995,-3.5996,-3.5996,-3.5996,-3.5996,-3.5996,-3.5996,-3.5995,-3.5993,-3.6006,-3.5995,-3.5995,-3.5992,-3.6006,-3.6002,-3.6007,-3.6009,-3.5996,-3.5955,-3.5908,-3.5895,-3.5884,-3.588,-4.1058,-4.1067,-4.1056,-4.1059,-4.1064,-4.1064,-4.1064,-4.1064,-4.1064,-4.1064,-4.1068,-4.107,-4.107,-4.1097,-4.1103,-4.1103,-4.1093,-4.1102,-4.1092,-4.1093,-4.1094,-4.1092,-4.1092,-4.1092,-4.1093,-4.1093,-4.0781,-4.0154,-3.9293,-3.8434,-3.7556,-3.6696,-3.6189,-3.5994,-3.5994,-3.5994,-3.5994,-3.5994,-3.5994,-3.5936,-3.5252,-3.4979,-3.4979,-3.498,-3.498,-3.5077,-3.5742,-3.5996,-3.5996,-3.5996,-3.5995,-3.5972,-3.5971,-3.5971,-3.5971,-3.5971,-3.5988,-3.5985,-3.5984,-3.5932,-3.5896,-3.5892,-3.5899,-3.5877,-3.5875,-3.5888,-3.5888,-3.5888,-3.5888,-3.5888,-3.5888,-3.5888,-3.5888,-3.5888,-3.5872,-3.5878,-3.5889,-3.5894,-3.5897,-3.5897,-3.5897,-3.5897,-3.5899,-3.5948,-3.5951,-3.5902,-3.5942,-3.5974,-3.5974,-3.5994,-3.6005,-3.5991,-3.5994,-3.5995,-3.5995,-3.5996,-3.5996,-3.5996,-3.5996,-3.5996,-3.5995,-3.5994,-3.5992,-3.6008,-3.5991,-3.5992,-3.5992,-3.5996,-3.5995,-3.5992,-3.5941,-3.5901,-3.5892,-3.5847,-3.5827,-3.5819,-4.1087,-4.1092,-4.1095,-4.1108,-4.1109,-4.1109,-4.1109,-4.1109,-4.1091,-4.1094,-4.1097,-4.11,-4.1102,-4.1108,-4.1091,-4.1092,-4.1092,-4.1094,-4.1092,-4.1092,-4.1091,-4.1103,-4.1103,-4.1099,-4.1109,-4.0684,-4.0299,-3.9894,-3.8605,-3.7746,-3.7277,-3.6418,-3.6009,-3.5991,-3.5991,-3.5991,-3.5972,-3.5562,-3.5385,-3.5307,-3.4429,-3.4077,-3.4136,-3.4546,-3.4701,-3.4817,-3.5697,-3.6009,-3.6008,-3.5992,-3.5994,-3.5995,-3.5996,-3.5996,-3.5996,-3.5996,-3.5996,-3.5996,-3.5996,-3.5974,-3.595,-3.5948,-3.5946,-3.5936,-3.5919,-3.5909,-3.5909,-3.5909,-3.5909,-3.5909,-3.5909,-3.5909,-3.5909,-3.5909,-3.5895,-3.5899,-3.5906,-3.5929,-3.5951,-3.5947,-3.5945,-3.5947,-3.5953,-3.5985,-3.5989,-3.5942,-3.5973,-3.5998,-3.5998,-3.6007,-3.5992,-3.5995,-3.5996,-3.5996,-3.5996,-3.5993,-3.5971,-3.5949,-3.5972,-3.5995,-3.5996,-3.5995,-3.5976,-3.5957,-3.5955,-3.5952,-3.5948,-3.5957,-3.5924,-3.5908,-3.5875,-3.582,-3.5802,-3.5732,-3.5674,-3.5643,-4.1098,-4.1099,-4.1099,-4.11,-4.11,-4.11,-4.11,-4.11,-4.1101,-4.1105,-4.1109,-4.1092,-4.1093,-4.1093,-4.1109,-4.1106,-4.1104,-4.1103,-4.1102,-4.1082,-4.1078,-4.109,-4.109,-4.1019,-4.0874,-4.0018,-3.9605,-3.9666,-3.8067,-3.7207,-3.7049,-3.6328,-3.5979,-3.5984,-3.5984,-3.5907,-3.5711,-3.4989,-3.4598,-3.4404,-3.3528,-3.3177,-3.3274,-3.4149,-3.4479,-3.4615,-3.5624,-3.5992,-3.5994,-3.6,-3.6002,-3.6003,-3.6007,-3.6009,-3.6009,-3.6009,-3.6009,-3.5991,-3.5993,-3.5994,-3.5995,-3.5996,-3.5996,-3.5996,-3.5936,-3.5924,-3.5923,-3.5923,-3.5923,-3.5923,-3.5924,-3.5923,-3.5923,-3.5924,-3.5929,-3.5913,-3.5914,-3.5958,-3.5999,-3.5992,-3.6009,-3.5991,-3.5998,-3.6007,-3.5991,-3.6006,-3.5991,-3.5992,-3.5992,-3.5995,-3.5996,-3.5996,-3.5995,-3.5972,-3.5987,-3.5982,-3.595,-3.5873,-3.5944,-3.5975,-3.5986,-3.5979,-3.5957,-3.5876,-3.5885,-3.5871,-3.587,-3.5864,-3.582,-3.5781,-3.5775,-3.5712,-3.5665,-3.5577,-3.5502,-3.5423,-4.1094,-4.1093,-4.1093,-4.1092,-4.1092,-4.1092,-4.1092,-4.1092,-4.1092,-4.1091,-4.1091,-4.109,-4.111,-4.1105,-4.11,-4.11,-4.1108,-4.1095,-4.1105,-4.1057,-4.1005,-4.1009,-4.1009,-4.0694,-3.9992,-3.9112,-3.8684,-3.8692,-3.7698,-3.684,-3.6099,-3.5963,-3.5904,-3.5907,-3.5907,-3.5498,-3.4779,-3.4651,-3.4207,-3.3507,-3.2625,-3.228,-3.2377,-3.324,-3.3573,-3.3788,-3.5426,-3.5992,-3.5992,-3.5994,-3.5994,-3.5994,-3.5995,-3.5995,-3.5995,-3.5995,-3.6,-3.6005,-3.6006,-3.6009,-3.5992,-3.5992,-3.5992,-3.5993,-3.5995,-3.5996,-3.5995,-3.5995,-3.5995,-3.5995,-3.5996,-3.5996,-3.5995,-3.5996,-3.5996,-3.5996,-3.5996,-3.5996,-3.5996,-3.5995,-3.5992,-3.6009,-3.5993,-3.5994,-3.5993,-3.5991,-3.5995,-3.5996,-3.5995,-3.5996,-3.5995,-3.5995,-3.5947,-3.5916,-3.5908,-3.5901,-3.5877,-3.58,-3.5817,-3.5859,-3.5901,-3.5909,-3.5877,-3.5805,-3.5817,-3.582,-3.581,-3.5749,-3.5715,-3.5708,-3.5648,-3.5593,-3.5513,-3.5397,-3.5266,-3.5155,-4.109,-4.1109,-4.1109,-4.1108,-4.1107,-4.1107,-4.1107,-4.1107,-4.1106,-4.1103,-4.1102,-4.11,-4.1093,-4.1099,-4.1109,-4.1109,-4.1074,-4.1039,-4.1031,-4.1025,-4.099,-4.1002,-4.0535,-4.0092,-3.9695,-3.835,-3.7637,-3.7616,-3.6849,-3.6279,-3.5908,-3.5908,-3.5908,-3.5889,-3.5382,-3.4954,-3.4547,-3.3597,-3.2998,-3.2608,-3.1726,-3.1673,-3.2202,-3.3075,-3.3704,-3.429,-3.5542,-3.5992,-3.5992,-3.5992,-3.5992,-3.5992,-3.5992,-3.5992,-3.5992,-3.5992,-3.5995,-3.5998,-3.5994,-3.5995,-3.5996,-3.5992,-3.5991,-3.5991,-3.5991,-3.5996,-3.6003,-3.5991,-3.5992,-3.5991,-3.6006,-3.6009,-3.5992,-3.5991,-3.5993,-3.5994,-3.5993,-3.5993,-3.5994,-3.5995,-3.5996,-3.5996,-3.5995,-3.5995,-3.5994,-3.5993,-3.5991,-3.5988,-3.5949,-3.5945,-3.5939,-3.5931,-3.5888,-3.5846,-3.5844,-3.5801,-3.5761,-3.5747,-3.5736,-3.5786,-3.5843,-3.5815,-3.5768,-3.5747,-3.575,-3.5698,-3.5635,-3.5609,-3.5579,-3.5527,-3.5463,-3.5362,-3.5258,-3.513,-3.5027,-3.4926]},{"header":{"parameterUnit":"m.s-1","parameterCategory":1,"la1":30.6,"la2":28.766,"lo1":-90.7593,"lo2":-88.6598,"dy":0.0162,"dx":0.0183,"nx":116,"ny":114,"refTime":"2023-07-30T12:00:00:Z","depth":0,"parameterNumber":3,"parameterNumberName":"V-component_of_WINDS"},"data":[0.0,0.0,0.0,0.0,0.0,0.0,0.0,0.0,0.0,0.0,0.0,0.0,0.0,0.0,0.0,0.0,0.0,0.0,0.0,0.0,0.0,0.0,0.0,0.0,0.0,0.0,0.0,0.0,0.0,0.0,0.0,0.0,0.0,0.0,0.0,0.0,0.0,0.0,0.0,0.0,0.0,0.0,0.0,0.0,0.0,0.0,0.0,0.0,0.0,0.0,0.0,0.0,0.0,0.0,0.0,0.0,0.0,0.0,0.0,0.0,0.0,0.0,0.0,0.0,0.0,0.0,0.0,0.0,0.0,0.0,0.0,0.0,0.0,0.0,0.0,0.0,0.0,0.0,0.0,0.0,0.0,0.0,0.0,0.0,0.0,0.0,0.0,0.0,0.0,0.0,0.0,0.0,0.0,0.0,0.0,0.0,0.0,0.0,0.0,0.0,0.0,0.0,0.0,0.0,0.0,0.0,0.0,0.0,0.0,0.0,0.0,0.0,0.0,0.0,0.0,0.0,0.0,0.0,0.0,0.0,0.0,0.0,0.0,0.0,0.0,0.0,0.0,0.0,0.0,0.0,0.0,0.0,0.0,0.0,0.0,0.0,0.0,0.0,0.0,0.0,0.0,0.0,0.0,0.0,0.0,0.0,0.0,0.0,0.0,0.0,0.0,0.0,0.0,0.0,0.0,0.0,0.0,0.0,0.0,0.0,0.0,0.0,0.0,0.0,0.0,0.0,0.0,0.0,0.0,0.0,0.0,0.0,0.0,0.0,0.0,0.0,0.0,0.0,0.0,0.0,0.0,0.0,0.0,0.0,0.0,0.0,0.0,0.0,0.0,0.0,0.0,0.0,0.0,0.0,0.0,0.0,0.0,0.0,0.0,0.0,0.0,0.0,0.0,0.0,0.0,0.0,0.0,0.0,0.0,0.0,0.0,0.0,0.0,0.0,0.0,0.0,0.0,0.0,0.0,0.0,0.0,0.0,0.0,0.0,0.0,0.0,0.0,0.0,0.0,0.0,0.0,0.0,0.0,0.0,0.0,0.0,0.0,0.0,0.0,0.0,0.0,0.0,0.0,0.0,0.0,0.0,0.0,0.0,0.0,0.0,0.0,0.0,0.0,0.0,0.0,0.0,0.0,0.0,0.0,0.0,0.0,0.0,0.0,0.0,0.0,0.0,0.0,0.0,0.0,0.0,0.0,0.0,0.0,0.0,0.0,0.0,0.0,0.0,0.0,0.0,0.0,0.0,0.0,0.0,0.0,0.0,0.0,0.0,0.0,0.0,0.0,0.0,0.0,0.0,0.0,0.0,0.0,0.0,0.0,0.0,0.0,0.0,0.0,0.0,0.0,0.0,0.0,0.0,0.0,0.0,0.0,0.0,0.0,0.0,0.0,0.0,0.0,0.0,0.0,0.0,0.0,0.0,0.0,0.0,0.0,0.0,0.0,0.0,0.0,0.0,0.0,0.0,0.0,0.0,0.0,0.0,0.0,0.0,0.0,0.0,0.0,0.0,0.0,0.0,0.0,0.0,0.0,0.0,0.0,0.0,0.0,0.0,0.0,0.0,0.0,0.0,0.0,0.0,0.0,0.0,0.0,0.0,0.0,0.0,0.0,0.0,0.0,0.0,0.0,0.0,0.0,0.0,0.0,0.0,0.0,0.0,0.0,0.0,0.0,0.0,0.0,0.0,0.0,0.0,0.0,0.0,0.0,0.0,0.0,0.0,0.0,0.0,0.0,0.0,0.0,0.0,0.0,0.0,0.0,0.0,0.0,0.0,0.0,0.0,0.0,0.0,0.0,0.0,0.0,0.0,0.0,0.0,0.0,0.0,0.0,0.0,0.0,0.0,0.0,0.0,0.0,0.0,0.0,0.0,0.0,0.0,0.0,0.0,0.0,0.0,0.0,0.0,0.0,0.0,0.0,0.0,0.0,0.0,0.0,0.0,0.0,0.0,0.0,0.0,0.0,0.0,0.0,0.0,0.0,0.0,0.0,0.0,0.0,0.0,0.0,0.0,0.0,0.0,0.0,0.0,0.0,0.0,0.0,0.0,0.0,0.0,0.0,0.0,0.0,0.0,0.0,0.0,0.0,0.0,0.0,0.0,0.0,0.0,0.0,0.0,0.0,0.0,0.0,0.0,0.0,0.0,0.0,0.0,0.0,0.0,0.0,0.0,0.0,0.0,0.0,0.0,0.0,0.0,0.0,0.0,0.0,0.0,0.0,0.0,0.0,0.0,0.0,0.0,0.0,0.0,0.0,0.0,0.0,0.0,0.0,0.0,0.0,0.0,0.0,0.0,0.0,0.0,0.0,0.0,0.0,0.0,0.0,0.0,0.0,0.0,0.0,0.0,0.0,0.0,0.0,0.0,0.0,0.0,0.0,0.0,0.0,0.0,0.0,0.0,0.0,0.0,0.0,0.0,0.0,0.0,0.0,0.0,0.0,0.0,0.0,0.0,0.0,0.0,0.0,0.0,0.0,0.0,0.0,0.0,0.0,0.0,0.0,0.0,0.0,0.0,0.0,0.0,0.0,0.0,0.0,0.0,0.0,0.0,0.0,0.0,0.0,0.0,0.0,0.0,0.0,0.0,0.0,0.0,0.0,0.0,0.0,0.0,0.0,0.0,0.0,0.0,0.0,0.0,0.0,0.0,0.0,0.0,0.0,0.0,0.0,0.0,0.0,0.0,0.0,0.0,0.0,0.0,0.0,0.0,0.0,0.0,0.0,0.0,0.0,0.0,0.0,0.0,0.0,0.0,0.0,0.0,0.0,0.0,0.0,0.0,0.0,0.0,0.0,0.0,0.0,0.0,0.0,0.0,0.0,0.0,0.0,0.0,0.0,0.0,0.0,0.0,0.0,0.0,0.0,0.0,0.0,0.0,0.0,0.0,0.0,0.0,0.0,0.0,0.0,0.0,0.0,0.0,0.0,0.0,0.0,0.0,0.0,0.0,0.0,0.0,0.0,0.0,0.0,0.0,0.0,0.0,0.0,0.0,0.0,0.0,0.0,0.0,0.0,0.0,0.0,0.0,0.0,0.0,0.0,0.0,0.0,0.0,0.0,0.0,0.0,0.0,0.0,0.0,0.0,0.0,0.0,0.0,0.0,0.0,0.0,0.0,0.0,0.0,0.0,0.0,0.0,0.0,0.0,0.0,0.0,0.0,0.0,0.0,0.0,0.0,0.0,0.0,0.0,0.0,0.0,0.0,0.0,0.0,0.0,0.0,0.0,0.0,0.0,0.0,0.0,0.0,0.0,0.0,0.0,0.0,0.0,0.0,0.0,0.0,0.0,0.0,0.0,0.0,0.0,0.0,0.0,0.0,0.0,0.0,0.0,0.0,0.0,0.0,0.0,0.0,0.0,0.0,0.0,0.0,0.0,0.0,0.0,0.0,0.0,0.0,0.0,0.0,0.0,0.0,0.0,0.0,0.0,0.0,0.0,0.0,0.0,0.0,0.0,0.0,0.0,0.0,0.0,0.0,0.0,0.0,0.0,0.0,0.0,0.0,0.0,0.0,0.0,0.0,0.0,0.0,0.0,0.0,0.0,0.0,0.0,0.0,0.0,0.0,0.0,0.0,0.0,0.0,0.0,0.0,0.0,0.0,0.0,0.0,0.0,0.0,0.0,0.0,0.0,0.0,0.0,0.0,0.0,0.0,0.0,0.0,0.0,0.0,0.0,0.0,0.0,0.0,0.0,0.0,0.0,0.0,0.0,0.0,0.0,0.0,0.0,0.0,0.0,0.0,0.0,0.0,0.0,0.0,0.0,0.0,0.0,0.0,0.0,0.0,0.0,0.0,0.0,0.0,0.0,0.0,0.0,0.0,0.0,0.0,0.0,0.0,0.0,0.0,0.0,0.0,0.0,0.0,0.0,0.0,0.0,0.0,0.0,0.0,0.0,0.0,0.0,0.0,0.0,0.0,0.0,0.0,0.0,0.0,0.0,0.0,0.0,0.0,0.0,0.0,0.0,0.0,0.0,0.0,0.0,0.0,0.0,0.0,0.0,0.0,0.0,0.0,0.0,0.0,0.0,0.0,0.0,0.0,0.0,0.0,0.0,0.0,0.0,0.0,0.0,0.0,0.0,0.0,0.0,0.0,0.0,0.0,0.0,0.0,0.0,0.0,0.0,0.0,0.0,0.0,0.0,0.0,0.0,0.0,0.0,0.0,0.0,0.0,0.0,0.0,0.0,0.0,0.0,0.0,0.0,0.0,0.0,0.0,0.0,0.0,0.0,0.0,0.0,0.0,0.0,0.0,0.0,0.0,0.0,0.0,0.0,0.0,0.0,0.0,0.0,0.0,0.0,0.0,0.0,0.0,0.0,0.0,0.0,0.0,0.0,0.0,0.0,0.0,0.0,0.0,0.0,0.0,0.0,0.0,0.0,0.0,0.0,0.0,0.0,0.0,0.0,0.0,0.0,0.0,0.0,0.0,0.0,0.0,0.0,0.0,0.0,0.0,0.0,0.0,0.0,0.0,0.0,0.0,0.0,0.0,0.0,0.0,0.0,0.0,0.0,0.0,0.0,0.0,0.0,0.0,0.0,0.0,0.0,0.0,0.0,0.0,0.0,0.0,0.0,0.0,0.0,0.0,0.0,0.0,0.0,0.0,0.0,0.0,0.0,0.0,0.0,0.0,0.0,0.0,0.0,0.0,0.0,0.0,0.0,0.0,0.0,0.0,0.0,0.0,0.0,0.0,0.0,0.0,0.0,0.0,0.0,0.0,0.0,0.0,0.0,0.0,0.0,0.0,0.0,0.0,0.0,0.0,0.0,0.0,0.0,0.0,0.0,0.0,0.0,0.0,0.0,0.0,0.0,0.0,0.0,0.0,0.0,0.0,0.0,0.0,0.0,0.0,0.0,0.0,0.0,0.0,0.0,0.0,0.0,0.0,0.0,0.0,0.0,0.0,0.0,0.0,0.0,0.0,0.0,0.0,0.0,0.0,0.0,0.0,0.0,0.0,0.0,0.0,0.0,0.0,0.0,0.0,0.0,0.0,0.0,0.0,0.0,0.0,0.0,0.0,0.0,0.0,0.0,0.0,0.0,0.0,0.0,0.0,0.0,0.0,0.0,0.0,0.0,0.0,0.0,0.0,0.0,0.0,0.0,0.0,0.0,0.0,0.0,0.0,0.0,0.0,0.0,0.0,0.0,0.0,0.0,0.0,0.0,0.0,0.0,0.0,0.0,0.0,0.0,0.0,0.0,0.0,0.0,0.0,0.0,0.0,0.0,0.0,0.0,0.0,0.0,0.0,0.0,0.0,0.0,0.0,0.0,0.0,0.0,0.0,0.0,0.0,0.0,0.0,0.0,0.0,0.0,0.0,0.0,0.0,0.0,0.0,0.0,0.0,0.0,0.0,0.0,0.0,0.0,0.0,0.0,0.0,0.0,0.0,0.0,0.0,0.0,0.0,0.0,0.0,0.0,0.0,0.0,0.0,0.0,0.0,0.0,0.0,0.0,0.0,0.0,0.0,0.0,0.0,0.0,0.0,0.0,0.0,0.0,0.0,0.0,0.0,0.0,0.0,0.0,0.0,0.0,0.0,0.0,0.0,0.0,0.0,0.0,0.0,0.0,0.0,0.0,0.0,0.0,0.0,0.0,0.0,0.0,0.0,0.0,0.0,0.0,0.0,0.0,0.0,0.0,0.0,0.0,0.0,0.0,0.0,0.0,0.0,0.0,0.0,0.0,0.0,0.0,0.0,0.0,0.0,0.0,0.0,0.0,0.0,0.0,0.0,0.0,0.0,0.0,0.0,0.0,0.0,0.0,0.0,0.0,0.0,0.0,0.0,0.0,0.0,0.0,0.0,0.0,0.0,0.0,0.0,0.0,0.0,0.0,0.0,0.0,0.0,0.0,0.0,0.0,0.0,0.0,0.0,0.0,0.0,0.0,0.0,0.0,0.0,0.0,0.0,0.0,0.0,0.0,0.0,0.0,0.0,0.0,0.0,0.0,0.0,0.0,0.0,0.0,0.0,0.0,0.0,0.0,0.0,0.0,0.0,0.0,0.0,0.0,0.0,0.0,0.0,0.0,0.0,0.0,0.0,0.0,0.0,0.0,0.0,0.0,0.0,0.0,0.0,0.0,0.0,-0.5382,0.0,0.0,0.0,0.0,0.0,0.0,0.0,0.0,0.0,0.0,0.0,0.0,0.0,0.0,0.0,0.0,0.0,0.0,0.0,0.0,0.0,0.0,0.0,0.0,0.0,0.0,0.0,0.0,0.0,0.0,0.0,0.0,0.0,0.0,0.0,0.0,0.0,0.0,0.0,0.0,0.0,0.0,0.0,0.0,0.0,0.0,0.0,0.0,0.0,0.0,0.0,0.0,0.0,0.0,0.0,0.0,0.0,0.0,0.0,0.0,0.0,0.0,0.0,0.0,0.0,0.0,0.0,0.0,0.0,0.0,0.0,0.0,0.0,0.0,0.0,0.0,0.0,0.0,0.0,0.0,0.0,0.0,0.0,0.0,0.0,0.0,0.0,0.0,0.0,0.0,0.0,0.0,0.0,0.0,0.0,0.0,0.0,0.0,0.0,0.0,0.0,0.0,0.0,0.0,0.0,0.0,0.0,0.0,0.0,0.0,0.0,0.0,0.0,0.0,0.0,0.0,-0.5382,0.0,0.0,0.0,0.0,0.0,0.0,0.0,0.0,0.0,0.0,0.0,0.0,0.0,0.0,0.0,0.0,0.0,0.0,0.0,0.0,0.0,0.0,0.0,0.0,0.0,0.0,0.0,0.0,0.0,0.0,0.0,0.0,0.0,0.0,0.0,0.0,0.0,0.0,0.0,0.0,0.0,0.0,0.0,0.0,0.0,0.0,0.0,0.0,0.0,0.0,0.0,0.0,0.0,0.0,0.0,0.0,0.0,0.0,0.0,0.0,0.0,0.0,0.0,0.0,0.0,0.0,0.0,0.0,0.0,0.0,0.0,0.0,0.0,0.0,0.0,0.0,0.0,0.0,0.0,0.0,0.0,0.0,0.0,0.0,0.0,0.0,0.0,0.0,0.0,0.0,0.0,0.0,0.0,0.0,0.0,0.0,0.0,0.0,0.0,0.0,0.0,0.0,0.0,0.0,0.0,0.0,0.0,0.0,-0.5412,-0.5872,-0.6329,-0.6043,-0.5929,-0.5816,-0.5579,-0.5452,-0.5382,-0.5382,0.0,0.0,0.0,0.0,0.0,0.0,0.0,0.0,0.0,0.0,0.0,0.0,0.0,0.0,0.0,0.0,0.0,0.0,0.0,0.0,0.0,0.0,0.0,0.0,0.0,0.0,0.0,0.0,0.0,0.0,0.0,0.0,0.0,0.0,0.0,0.0,0.0,0.0,1.4376,1.3216,1.2484,1.2096,1.0489,0.0,0.0,0.0,0.0,0.0,0.0,0.0,0.0,0.0,0.0,0.0,0.0,0.0,0.0,0.0,0.0,0.0,0.0,0.0,0.0,0.0,0.0,0.0,0.0,0.0,0.0,0.0,0.0,0.0,0.0,0.0,0.0,0.0,0.0,0.0,0.0,0.0,0.0,0.0,0.0,0.0,0.0,0.0,0.0841,0.0505,0.0,0.0,0.0,0.0,0.0,0.0,0.0,0.0,0.0,0.0,0.0,0.0,0.0,-0.2248,-0.3419,-0.415,-0.4864,-0.5492,-0.6149,-0.6483,-0.6541,-0.6541,-0.6308,-0.6076,-0.599,0.0,-0.5382,-0.5382,0.0,0.0,0.0,0.0,0.0,0.0,0.0,0.0,0.0,0.0,0.0,0.0,0.0,0.0,0.0,0.0,0.0,0.0,0.0,0.0,0.0,0.0,0.0,0.0,0.0,0.0,0.0,0.0,0.0,0.0,0.0,0.0,0.0,0.0,0.0,0.0,1.6897,1.6231,1.552,1.4943,1.4274,1.3565,1.2635,1.1219,0.946,0.8517,0.0,0.0,0.0,0.0,0.0,0.0,0.0,0.0,0.0,0.0,0.0,0.0,0.0,0.0,0.0,0.0,0.0,0.0,0.0,0.0,0.0,0.0,0.0,0.0,0.0,0.0,0.0,0.0,0.0,0.0,0.0,0.0,0.0,0.0,0.0,0.0,0.0,0.0,0.0,0.0673,0.0505,0.0224,0.0168,0.0112,0.0,0.0,0.0,0.0,0.0,0.0,0.0,0.0,0.0,-0.157,-0.2264,-0.3069,-0.392,-0.4791,-0.5586,-0.6165,-0.6674,-0.6988,-0.7107,-0.693,-0.6813,-0.6637,-0.6246,-0.5972,-0.5754,-0.5535,-0.5382,-0.5382,0.0,0.0,0.0,0.0,-0.5253,-0.5169,0.0,0.0,0.0,0.0,0.0,0.0,0.0,0.0,0.0,0.0,0.0,0.0,0.0,0.0,0.0,2.2132,0.0,0.0,0.0,0.0,0.0,0.0,0.0,0.0,0.0,0.0,0.0,0.0,1.8357,1.7746,1.6662,1.6567,1.5906,1.4867,1.4478,1.3022,1.0837,0.9903,0.8715,0.0,0.0,0.0,0.0,0.0,0.0,0.0,0.0,0.0,0.0,0.0,0.0,0.0,0.0,0.0,0.0,0.0,0.0,0.0,0.0,0.0,0.0,0.0,0.0,0.0,0.0,0.0,0.0,0.0,0.0,0.0,0.0,0.0,0.0,0.0,0.0,0.0,0.0,0.0336,0.0224,0.0,0.0,0.0,0.0,0.0,0.0,0.0,0.0,0.0,-0.0393,-0.0788,-0.1354,-0.2032,-0.3038,-0.3871,-0.4562,-0.5516,-0.6269,-0.6798,-0.7118,-0.7428,-0.7608,-0.7369,-0.7249,-0.713,-0.6634,-0.633,-0.6257,-0.5659,-0.5414,-0.5412,-0.539,-0.5382,-0.5373,-0.5304,-0.5211,-0.5224,0.0,0.0,0.0,0.0,0.0,0.0,0.0,0.0,0.0,0.0,0.0,0.0,0.0,0.0,2.3144,2.3373,2.3416,2.3416,0.0,0.0,0.0,0.0,0.0,0.0,0.0,0.0,0.0,1.9509,1.9026,1.8481,1.7994,1.7466,1.6951,1.644,1.5676,1.419,1.2224,1.0886,0.985,0.8916,0.0,0.0,0.0,0.0,0.0,0.0,0.0,0.0,0.0,0.0,0.0,0.0,0.0,0.0,0.0,0.0,0.0,0.0,0.0,0.0,0.0,0.0,0.0,0.0,0.0,0.0,0.0,0.0,0.0,0.0,0.0,0.0,0.0,0.0,0.0,0.0,0.0,0.0,0.0,0.0,0.0,0.0,0.0,0.0,0.0,0.0,0.0,-0.0112,-0.0393,-0.1025,-0.178,-0.2696,-0.3729,-0.4698,-0.5637,-0.6382,-0.6913,-0.7269,-0.7677,-0.7853,-0.7853,-0.7853,-0.7673,-0.7362,-0.7255,-0.703,-0.6717,-0.5867,-0.5502,-0.5492,-0.5412,-0.5382,-0.538,-0.5375,-0.5318,-0.5297,0.0,0.0,0.0,0.0,0.0,0.0,0.0,0.0,0.0,0.0,0.0,0.0,0.0,2.3874,2.4305,2.4391,2.4647,2.4733,2.4605,0.0,0.0,0.0,0.0,0.0,0.0,0.0,2.106,2.0772,2.0393,1.9994,1.9509,1.8996,1.8388,1.7738,1.6943,1.5859,1.4484,1.25,1.1033,0.985,0.8471,0.7531,0.0,0.0,0.0,0.0,0.0,0.0,0.0,0.0,0.0,0.0,0.0,0.0,0.0,0.0,0.0,0.0,0.0,0.0,0.0,0.0,0.0,0.0,0.0,0.0,0.0,0.0,0.0,0.0,0.0,0.0,0.0,0.0,0.0,0.0,0.0,0.0,0.0,0.0,0.0,0.0,0.0,0.0,0.0,0.0,0.0,-0.0285,-0.1026,-0.1448,-0.2335,-0.3733,-0.4559,-0.5431,-0.6387,-0.6909,-0.7327,-0.7688,-0.785,-0.7872,-0.7872,-0.7872,-0.7811,-0.7686,-0.7464,-0.7327,-0.7135,-0.6567,-0.6141,-0.5794,-0.5532,-0.5431,-0.5382,-0.5382,-0.5361,-0.538,0.0,0.0,0.0,0.0,0.0,0.0,0.0,0.0,0.0,0.0,0.0,2.3681,2.4219,2.4775,2.5158,2.5253,2.5464,2.5622,2.5527,0.0,0.0,0.0,0.0,0.0,0.0,2.2652,2.2255,2.1882,2.1624,2.1177,2.0645,2.0365,1.9766,1.8988,1.8342,1.7505,1.6473,1.4513,1.2732,1.1082,0.9854,0.8867,0.8024,0.0,0.0,0.0,0.0,0.0,0.0,0.0,0.0,0.0,0.0,0.0,0.0,0.0,0.0,0.0,0.0,0.0,0.0,0.0,0.0,0.0,0.0,0.0,0.0,0.0,0.0,0.0,0.0,0.0,0.0,0.0,0.0,0.0,0.0,0.0,0.0,0.0,0.0,0.0,0.0,0.0,0.0,0.0,0.0,-0.0347,-0.1227,-0.1721,-0.2639,-0.4156,-0.5013,-0.5914,-0.6898,-0.7242,-0.7626,-0.7993,-0.7952,-0.7872,-0.7872,-0.7872,-0.7872,-0.7872,-0.7689,-0.7569,-0.7559,-0.7085,-0.6695,-0.6302,-0.5866,-0.557,-0.5382,-0.5382,-0.5382,-0.5541,0.0,0.0,0.0,0.0,0.0,0.0,0.0,0.0,0.0,0.0,2.3777,2.4466,2.5158,2.5411,2.5664,2.5937,2.5979,2.6052,2.6238,2.6093,0.0,0.0,0.0,0.0,2.4541,2.409,2.3517,2.2887,2.2599,2.2122,2.149,2.1445,2.1042,2.0337,1.9766,1.9026,1.8048,1.6814,1.493,1.27,1.1126,0.9998,0.9213,0.0,0.0,0.0,0.0,0.0,0.0,0.0,0.0,0.0,0.0,0.0,0.0,0.0,0.0,0.0,0.0,0.0,0.0,0.0,0.0,0.0,0.0,0.0,0.0,0.0,0.0,0.0,0.0,0.0,0.0,0.0,0.0,0.0,0.0,0.0,0.0,0.0,0.0,0.0,0.0,0.0,0.0,0.0,0.0,-0.0292,-0.0964,-0.1715,-0.2735,-0.4098,-0.5053,-0.612,-0.7143,-0.7362,-0.7684,-0.8051,-0.7934,-0.7875,-0.7872,-0.7872,-0.7872,-0.7872,-0.7867,-0.7869,-0.7861,-0.7381,-0.7148,-0.7039,-0.6295,-0.5742,-0.5437,-0.5382,-0.5439,-0.5663,0.0,0.0,0.0,0.0,0.0,0.0,0.0,0.0,0.0,0.0,2.4166,2.502,2.5863,2.6528,2.7062,2.7255,2.7592,2.7736,2.7684,0.0,0.0,0.0,0.0,0.0,2.5516,2.5062,2.4637,2.4337,2.4069,2.3637,2.3125,2.2633,2.2148,2.157,2.0898,2.0167,1.9338,1.8257,1.7001,1.5555,1.3253,1.1901,1.1121,0.0,0.0,0.0,0.0,0.0,0.0,0.0,0.0,0.0,0.0,0.0,0.0,0.0,0.0,0.0,0.0,0.0,0.0,0.0,0.0,0.0,0.0,0.0,0.0,0.0,0.0,0.0,0.0,0.0,0.0,0.0,0.0576,0.0423,0.0055,0.0,0.0,0.0,0.0,0.0,0.0,0.0,0.0,0.0,0.0,-0.042,-0.1286,-0.1571,-0.2552,-0.4416,-0.4755,-0.5474,-0.6761,-0.6798,-0.7129,-0.7679,-0.7648,-0.7712,-0.7872,-0.7872,-0.7872,-0.7867,-0.7782,-0.7796,-0.7861,-0.7627,-0.7438,-0.7151,-0.6323,-0.5853,-0.5656,-0.5491,-0.5702,-0.6277,0.0,0.0,0.0,0.0,0.0,0.0,0.0,0.0,0.0,0.0,2.4284,2.5274,2.6373,2.7196,2.7736,2.7943,2.8287,2.851,2.8447,0.0,0.0,0.0,0.0,2.6712,2.6712,2.606,2.5653,2.5443,2.5094,2.4722,2.4391,2.3983,2.3541,2.3062,2.2438,2.173,2.0872,1.9914,1.891,1.7809,1.5961,1.416,1.2538,1.157,1.0542,0.9361,0.8219,0.7024,0.5877,0.4929,0.0,0.0,0.0,0.0,0.0,0.0,0.0,0.0,0.0,0.0,0.0,0.0,0.0,0.0,0.0,0.0,0.0,0.0,0.0,0.0,0.0,0.0,0.0,0.0,0.0975,0.078,0.027,0.0163,0.0109,0.0,0.0,0.0,0.0,0.0,0.0,0.0,0.0,-0.0304,-0.1058,-0.1266,-0.205,-0.3736,-0.3928,-0.4637,-0.5989,-0.6018,-0.6334,-0.7048,-0.7128,-0.7291,-0.754,-0.7663,-0.7722,-0.772,-0.7655,-0.7663,-0.7714,-0.7595,-0.7461,0.0,0.0,0.0,0.0,0.0,-0.5923,-0.6556,0.0,0.0,0.0,0.0,0.0,0.0,0.0,0.0,0.0,0.0,0.0,2.5306,2.6715,2.7464,2.799,2.8259,2.8459,2.8697,0.0,0.0,0.0,2.859,2.8155,2.7931,2.7931,2.7133,2.661,2.6393,2.5977,2.5611,2.5369,2.5316,2.5062,2.4584,2.4145,2.3444,2.2526,2.165,2.0664,1.9666,1.8696,1.6532,1.3752,1.299,1.1722,1.0293,0.9706,0.8616,0.7372,0.6528,0.0,0.0,0.0,0.0,0.0,0.0,0.0,0.0,0.0,0.0,0.0,0.0,0.0,0.0,0.0,0.0,0.0,0.0,0.0,0.0,0.0,0.0,0.0,0.0,0.1465,0.1228,0.069,0.0587,0.0432,0.0056,0.0,0.0,0.0,0.0,0.0,0.0,0.0,-0.0123,-0.0505,0.0,0.0,0.0,0.0,-0.3672,-0.496,-0.4959,-0.5386,-0.6217,-0.6498,-0.6753,-0.7044,-0.7341,-0.746,-0.7516,-0.7505,-0.7505,-0.7508,-0.7328,-0.7407,-0.7471,-0.7336,-0.6783,-0.6059,-0.5773,-0.607,-0.6718,0.0,0.0,0.0,0.0,0.0,0.0,0.0,0.0,0.0,2.2394,2.3757,2.5084,2.6445,2.7336,2.8063,2.8633,2.904,2.9223,0.0,0.0,2.9013,2.8986,2.8764,2.8593,2.8593,2.8287,2.7914,2.7476,2.7406,2.6999,2.6238,2.606,2.5779,2.5316,2.5062,2.4541,2.38,2.3008,2.2129,2.115,2.0022,1.8126,1.5886,1.4895,1.3794,1.2684,1.156,1.0386,0.9255,0.8021,0.7077,0.6279,0.5484,0.0,0.0,0.0,0.0,0.0,0.0,0.0,0.0,0.0,0.0,0.0,0.0,0.0,0.0,0.0,0.0,0.0,0.0,0.0,0.0,0.3176,0.2973,0.2553,0.1856,0.1598,0.1079,0.0112,0.0,0.0,0.0,0.0,0.0,0.0,0.0,-0.0124,-0.0505,-0.0575,-0.0965,-0.1741,-0.187,-0.2449,-0.3607,-0.3854,-0.4431,-0.5295,0.0,0.0,-0.6698,-0.7046,-0.7282,-0.7513,-0.7415,-0.7426,-0.7508,-0.7328,-0.7407,-0.7463,-0.7248,-0.6715,-0.6127,-0.6142,-0.641,-0.6841,0.0,0.0,0.0,0.0,0.0,0.0,0.0,0.0,0.0,0.0,2.2989,2.451,2.6008,2.6958,2.7822,2.8578,2.9106,0.0,0.0,2.9443,2.9456,2.9456,2.9236,2.9106,2.9106,2.8803,2.8526,2.8303,2.8195,2.7914,2.7522,2.7389,2.7092,2.6629,2.6351,2.581,2.5137,2.4317,2.3444,2.2526,2.1543,2.0141,1.8403,1.6774,1.5453,1.4316,1.3301,1.2334,1.1312,0.9891,0.8859,0.7968,0.6778,0.5932,0.5281,0.0,0.0,0.0,0.0,0.0,0.0,0.0,0.0,0.0,0.0,0.0,0.0,0.0,0.0,0.4383,0.4383,0.0,0.4282,0.388,0.3679,0.3329,0.2468,0.2089,0.1457,0.0335,0.0224,0.0168,0.0,0.0,0.0,0.0,0.0,-0.0062,-0.025,-0.0252,-0.0505,-0.101,-0.1073,-0.1451,-0.2332,-0.2711,-0.3291,-0.4095,-0.4757,-0.5389,-0.6022,-0.6477,-0.6821,-0.7106,-0.7215,-0.7279,-0.7336,-0.7336,-0.7315,-0.7374,-0.7317,-0.7026,-0.6615,-0.6415,-0.6696,-0.719,0.0,0.0,0.0,0.0,0.0,0.0,0.0,0.0,0.0,0.0,2.2101,2.3684,2.5274,2.6299,2.7255,0.0,0.0,0.0,0.0,2.9573,2.9753,2.9792,2.9599,2.947,2.947,2.9157,2.8961,2.891,2.8736,2.8618,2.8538,2.8538,2.8267,2.7749,2.74,2.6873,2.6176,2.5292,2.4448,2.3714,2.2931,2.1961,2.0754,1.8856,1.7228,1.5826,1.5026,1.422,1.3264,1.1853,1.0828,0.9846,0.8361,0.7471,0.683,0.5977,0.5677,0.0,0.0,0.0,0.0,0.0,0.0,0.0,0.0,0.5135,0.5186,0.5135,0.5135,0.5135,0.5135,0.5135,0.4935,0.4485,0.4334,0.4008,0.3148,0.2693,0.2107,0.101,0.0674,0.0393,0.0112,0.0058,0.0059,0.0,0.0,0.0,0.0,0.0,-0.0123,-0.037,-0.0432,-0.0679,-0.1295,-0.166,-0.218,-0.2944,-0.3636,-0.438,-0.5148,-0.5817,-0.632,-0.6657,-0.7043,-0.721,-0.7218,-0.726,-0.7301,-0.7312,-0.7434,-0.7365,-0.7164,-0.6675,-0.6848,-0.7408,0.0,0.0,0.0,0.0,0.0,0.0,0.0,0.0,0.0,0.0,0.0,0.0,0.0,0.0,0.0,0.0,0.0,0.0,2.9131,2.9314,2.956,2.9792,2.9792,2.9753,2.9753,2.9702,2.9573,2.9341,2.9302,2.9106,2.8764,2.8764,2.8403,2.7684,2.7489,2.6995,2.6308,2.5625,2.5097,2.4647,2.3744,2.2906,2.2129,2.1454,1.977,1.7669,1.6687,1.565,1.4657,1.3848,1.2877,1.1804,1.0725,0.9846,0.9061,0.7971,0.7372,0.6924,0.6628,0.6381,0.6184,0.6184,0.6337,0.6489,0.0,0.6389,0.6492,0.6287,0.6237,0.6237,0.6237,0.6237,0.6137,0.5839,0.5586,0.5184,0.4554,0.4198,0.3635,0.2621,0.1527,0.0729,0.0393,0.0342,0.0232,0.0,0.0,0.0,0.0,0.0,0.0,-0.0062,-0.0062,-0.0247,-0.0617,-0.0974,-0.1379,-0.1944,-0.2901,-0.3593,-0.4198,-0.5091,-0.5817,-0.6376,-0.6932,-0.721,-0.7213,-0.7226,-0.7232,-0.7243,-0.7309,-0.7306,-0.7276,-0.7049,-0.7035,-0.7264,0.0,0.0,0.0,0.0,0.0,0.0,0.0,0.0,0.0,0.0,0.0,0.0,0.0,0.0,0.0,0.0,0.0,0.0,2.8578,2.8882,2.9118,2.9209,2.9443,2.956,2.956,2.9702,2.9753,2.965,2.9274,2.9035,2.8831,2.856,2.8187,2.7764,2.7563,2.7172,2.6662,2.5963,2.5356,2.4738,2.3981,2.3343,2.2744,2.2149,2.1307,2.0232,1.8818,1.7669,0.0,0.0,1.4555,1.3494,1.2474,1.1604,1.0877,1.0284,0.9694,0.9148,0.8563,0.8368,0.8173,0.7683,0.7637,0.7637,0.7388,0.7285,0.7235,0.7132,0.6839,0.6639,0.6639,0.6487,0.6287,0.6042,0.5889,0.5718,0.5383,0.4982,0.4521,0.3992,0.3187,0.2241,0.1065,0.0797,0.0577,0.0232,0.0238,0.0182,0.0,0.0,0.0,0.0,0.0,-0.0061,-0.0183,-0.0545,-0.0894,-0.1278,-0.2019,-0.2791,-0.3529,-0.4254,-0.5202,-0.6318,-0.671,-0.7046,-0.721,-0.721,-0.721,-0.7215,-0.7211,-0.723,-0.7199,-0.7046,-0.71,-0.7296,0.0,0.0,0.0,0.0,0.0,0.0,0.0,0.0,0.0,0.0,0.0,0.0,0.0,0.0,0.0,0.0,0.0,0.0,0.0,2.8315,2.8593,2.8803,2.9145,2.9341,2.9419,2.965,2.9716,2.9553,2.9101,2.8813,2.865,2.8298,2.7961,2.7641,2.7446,2.7152,2.6707,2.6056,2.539,2.4736,2.4057,2.3533,2.3027,2.2451,2.2169,2.1926,2.0451,1.9338,0.0,0.0,1.6391,1.5406,1.4292,1.3482,1.2818,1.229,1.1707,1.1072,1.0485,1.0194,0.9908,0.932,0.9027,0.8779,0.8482,0.8226,0.7978,0.7829,0.7537,0.7191,0.7042,0.6789,0.6537,0.6242,0.6142,0.6085,0.6005,0.5692,0.5341,0.5107,0.4672,0.3807,0.2353,0.1644,0.1087,0.069,0.047,0.0298,0.012,0.0061,0.0,0.0,0.0,0.0,0.0,-0.0239,-0.0471,-0.0748,-0.1317,-0.1986,-0.2745,-0.3639,-0.4756,-0.6096,-0.6432,-0.6768,-0.7046,-0.7154,-0.721,-0.7207,-0.7177,-0.7163,-0.7124,-0.6989,-0.7061,-0.723,0.0,0.0,0.0,0.0,0.0,0.0,0.0,0.0,0.0,0.0,0.0,0.0,0.0,0.0,0.0,0.0,0.0,0.0,0.0,2.7742,2.8131,2.8752,2.9013,2.9197,2.9419,2.965,2.9515,2.8913,2.89,2.8612,2.8134,2.8109,2.7821,2.7306,2.7115,2.6781,2.6396,2.5775,2.5298,2.4932,2.4126,2.3507,2.3062,2.2625,2.2338,2.1992,2.1253,0.0,0.0,1.9293,1.8588,1.7708,1.6485,1.5731,1.5073,1.3794,1.2877,1.2242,1.2242,1.1717,1.1145,1.1096,1.0507,0.9867,0.9612,0.9361,0.9019,0.8482,0.8382,0.8184,0.768,0.7335,0.7089,0.6842,0.6539,0.6412,0.6444,0.6401,0.6241,0.5998,0.56,0.5093,0.4479,0.3029,0.1921,0.1321,0.0748,0.0406,0.0412,0.0118,0.0,0.0,0.0,0.0,0.0,0.0,-0.0173,-0.0402,-0.0735,-0.1234,-0.1907,-0.336,-0.4533,-0.5483,-0.604,-0.6487,-0.6712,-0.7046,-0.721,-0.7199,-0.7032,-0.6991,-0.6978,-0.6866,-0.6896,-0.7015,0.0,0.0,0.0,0.0,0.0,0.0,0.0,0.0,0.0,0.0,0.0,0.0,0.0,0.0,0.0,0.0,0.0,0.0,0.0,2.6517,2.6969,2.7534,2.8179,2.8618,2.8816,2.8929,2.8912,2.8687,2.8111,2.7745,2.7557,2.718,2.6952,2.6776,2.6567,2.6239,2.5838,2.5362,2.4804,2.4198,2.3531,2.3178,2.3024,2.2469,2.2372,2.2512,0.0,0.0,0.0,1.9892,1.9219,1.8531,1.8064,1.7483,1.6687,1.5609,1.4854,1.4226,1.3752,1.3323,1.284,1.2349,1.1873,1.1487,1.1042,1.0453,0.9965,0.9768,0.932,0.8821,0.8474,0.8035,0.7637,0.7385,0.6939,0.6771,0.7034,0.6824,0.6668,0.6618,0.6388,0.6042,0.5431,0.4033,0.281,0.1979,0.1543,0.1037,0.0406,0.0293,0.0177,0.0,0.0,0.0,0.0,0.0,-0.0057,-0.0113,-0.0675,-0.1234,-0.1851,-0.2913,-0.3807,-0.4533,-0.5371,-0.5984,-0.6432,-0.6768,-0.7056,-0.7308,-0.7268,-0.7152,-0.7006,-0.696,-0.6815,-0.6622,0.0,0.0,0.0,0.0,0.0,0.0,0.0,0.0,0.0,0.0,0.0,0.0,0.0,0.0,0.0,0.0,0.0,0.0,0.0,0.0,2.6071,2.6633,2.7227,2.7695,2.7985,2.8027,2.7926,2.7717,2.7138,2.6777,2.6579,2.622,2.606,2.6072,2.5945,2.5641,2.5241,2.4791,2.419,2.3519,2.2852,2.2583,2.259,2.2087,2.2104,0.0,0.0,0.0,0.0,2.0629,2.0253,1.9832,1.9355,1.8692,1.7917,1.6983,1.6379,1.5812,1.5296,1.4717,1.419,1.3698,1.3227,1.2802,1.236,1.1819,1.1282,1.1047,1.0551,1.0006,0.9468,0.9023,0.8574,0.8127,0.7633,0.7414,0.7618,0.7328,0.7082,0.7129,0.6982,0.6657,0.6156,0.515,0.4088,0.2914,0.2265,0.1653,0.0912,0.0576,0.0347,0.0174,0.0058,0.0,0.0,0.0,0.0,0.0,-0.0505,-0.1009,-0.1514,-0.2298,-0.3025,-0.3751,-0.4533,-0.5314,-0.604,-0.649,-0.6924,-0.7246,-0.7418,-0.7326,-0.7135,-0.7085,-0.6861,-0.655,0.0,0.0,0.0,0.0,0.0,0.0,0.0,0.0,0.0,0.0,0.0,0.0,0.0,0.0,0.0,0.0,0.0,0.0,0.0,0.0,0.0,2.606,2.6249,2.6507,2.7031,2.6924,2.6622,2.6057,2.6033,2.5757,2.5276,2.5276,2.5264,2.5229,2.5241,2.5004,2.46,2.4059,2.3497,2.2889,2.2101,2.1769,2.1769,2.154,0.0,0.0,0.0,0.0,2.1219,2.144,2.1583,2.1506,2.0421,1.951,1.8742,1.8056,1.7404,1.6936,1.6723,1.5913,1.5146,1.5146,1.4573,1.3902,1.3655,1.336,1.2931,1.2219,1.2073,1.1731,1.0659,1.0252,0.9805,0.8973,0.863,0.8341,0.8128,0.7855,0.7642,0.7631,0.7379,0.7099,0.6771,0.6487,0.5704,0.4252,0.0,0.2131,0.1851,0.0953,0.0449,0.0393,0.0168,0.0,0.0,0.0,0.0,0.0,-0.028,-0.0561,-0.0897,-0.1458,-0.2243,-0.3081,-0.3695,-0.4477,-0.5427,-0.6316,-0.6751,-0.6964,-0.7425,-0.7501,-0.7415,-0.7284,-0.7042,-0.6792,0.0,0.0,0.0,0.0,0.0,0.0,0.0,0.0,0.0,0.0,0.0,0.0,0.0,0.0,0.0,0.0,0.0,0.0,0.0,0.0,0.0,0.0,0.0,0.0,0.0,0.0,0.0,0.0,0.0,2.4992,2.4862,2.4862,2.4779,2.46,2.4301,2.3975,2.3621,2.3021,2.251,2.2069,0.0,2.1339,2.132,0.0,0.0,0.0,0.0,0.0,2.1218,2.1251,2.1355,2.1386,2.0944,2.0501,2.0085,1.9729,1.8765,1.7746,1.7505,1.681,1.615,1.5954,1.548,1.4956,1.4765,1.419,1.3613,1.3178,1.2851,1.2322,1.1438,1.09,1.0404,0.9768,0.932,0.9037,0.9265,0.8636,0.8222,0.8287,0.7826,0.7382,0.7099,0.6768,0.6376,0.5759,0.4365,0.3137,0.2131,0.1683,0.1121,0.0449,0.0336,0.0224,0.0,0.0,0.0,0.0,-0.0056,-0.0224,-0.0561,-0.0953,-0.1514,-0.2187,-0.2969,-0.3976,-0.5091,-0.5854,-0.6686,-0.7419,-0.7651,-0.7667,-0.7544,-0.7506,-0.7341,-0.7089,0.0,0.0,0.0,0.0,0.0,0.0,0.0,0.0,0.0,0.0,0.0,0.0,0.0,0.0,0.0,0.0,0.0,0.0,0.0,0.0,0.0,0.0,0.0,0.0,0.0,0.0,0.0,0.0,0.0,0.0,0.0,2.3427,2.339,2.3231,2.301,2.2713,2.2312,2.1783,0.0,0.0,0.0,0.0,0.0,0.0,0.0,0.0,0.0,0.0,2.1233,2.1448,2.163,2.1725,2.1677,2.1397,2.1006,2.0555,1.9637,1.8627,1.8164,1.7512,1.6864,1.6629,1.6251,1.5866,1.5622,1.5242,1.4758,1.428,1.3908,1.334,1.2316,1.178,1.1243,1.0462,1.0109,0.9938,1.0099,0.9526,0.9122,0.9058,0.8432,0.7878,0.7598,0.7157,0.6824,0.6487,0.5204,0.3976,0.3026,0.2355,0.1683,0.1009,0.0617,0.028,0.0,0.0,0.0,0.0,0.0,-0.0056,-0.0224,-0.0561,-0.0953,-0.1458,0.0,-0.3307,-0.4421,-0.5549,-0.6478,-0.7264,-0.7808,-0.7921,-0.7793,-0.7793,-0.7593,-0.7391,0.0,0.0,0.0,0.0,0.0,0.0,0.0,0.0,0.0,0.0,0.0,0.0,0.0,0.0,0.0,0.0,0.0,0.0,0.0,0.0,0.0,0.0,0.0,0.0,0.0,0.0,0.0,0.0,0.0,0.0,0.0,0.0,0.0,0.0,0.0,0.0,0.0,0.0,0.0,0.0,0.0,0.0,0.0,0.0,0.0,0.0,0.0,2.0679,2.1304,2.1795,2.2091,2.2246,2.2374,2.2129,2.1642,2.0952,2.0184,1.9455,1.8727,1.7978,1.7286,1.7113,1.6831,1.6581,1.6292,1.6244,1.6008,1.5248,1.4873,1.4256,1.3055,1.2565,1.2029,1.1002,1.0855,1.0843,1.0781,1.0421,1.0132,0.9995,0.9206,0.854,0.8156,0.7598,0.7154,0.6826,0.5766,0.4815,0.4142,0.3026,0.2243,0.1795,0.0897,0.028,0.0056,0.0,0.0,0.0,0.0,0.0,0.0,-0.0224,-0.0505,-0.0897,-0.1739,0.0,-0.3692,-0.5257,-0.6243,-0.684,-0.784,-0.8106,-0.7988,-0.7988,-0.7842,-0.7646,0.0,0.0,0.0,0.0,0.0,0.0,0.0,0.0,0.0,0.0,0.969,0.0,0.0,0.0,0.0,0.0,0.0,0.0,0.0,0.0,0.0,0.0,0.0,0.0,0.0,0.0,0.0,0.0,0.0,0.0,0.0,0.0,0.0,0.0,0.0,0.0,0.0,0.0,0.0,0.0,0.0,0.0,0.0,0.0,0.0,0.0,0.0,2.0945,2.1556,0.0,2.2409,2.2444,2.2469,2.2254,2.1963,2.1597,2.06,1.9463,1.8912,1.8179,1.7581,1.7286,1.7113,1.6878,1.6581,1.6353,1.5981,1.5267,1.4688,1.4058,1.3007,1.2419,1.1878,1.1243,1.1145,1.1241,1.155,1.1092,1.0813,1.0866,1.0088,0.9372,0.8813,0.8208,0.7771,0.7438,0.6771,0.5933,0.4815,0.4088,0.3081,0.1851,0.0897,0.0393,0.0336,0.0112,0.0,0.0,0.0,0.0,0.0,-0.0056,-0.0224,-0.0505,-0.1177,0.0,-0.3685,-0.4757,-0.596,-0.7144,-0.7579,-0.7816,-0.7988,-0.7988,-0.7992,-0.7942,0.0,0.0,0.0,0.0,0.0,0.0,0.0,0.0,0.0,0.5924,0.7763,0.9596,0.0,0.0,0.0,0.0,0.0,0.0,0.0,0.0,0.0,0.0,0.0,0.0,0.0,0.0,1.929,1.9096,0.0,1.8549,1.8286,1.8008,1.7745,1.7535,0.0,0.0,0.0,0.0,0.0,0.0,0.0,0.0,0.0,0.0,0.0,0.0,0.0,2.0782,2.162,2.2375,2.2712,2.2789,2.2789,2.264,2.2362,2.1874,2.1051,2.0093,1.9096,1.8458,1.7986,1.7426,1.7153,1.6979,1.6831,1.6494,1.6015,1.5404,1.4879,1.416,1.3001,1.2467,1.198,1.1292,1.1194,1.134,1.1756,1.1559,1.1444,1.1574,1.0907,1.0249,0.9644,0.8761,0.8156,0.7826,0.7268,0.6543,0.5652,0.4589,0.3415,0.2076,0.1458,0.0897,0.0393,0.028,0.0112,0.0,0.0,0.0,0.0,0.0,-0.0056,-0.0224,-0.0953,0.0,-0.2958,-0.426,-0.547,-0.6563,-0.7143,-0.7543,-0.7793,-0.7939,-0.7988,-0.7988,0.0,0.0,0.0,0.0,0.0,0.0,0.0,0.1259,0.297,0.4726,0.6176,0.7819,0.9908,1.1042,1.1927,0.0,0.0,0.0,0.0,0.0,0.0,0.0,0.0,0.0,0.0,0.0,0.0,1.7249,1.6771,0.0,0.0,0.0,0.0,0.0,1.5211,1.5094,1.4893,0.0,0.0,0.0,0.0,1.5115,0.0,0.0,0.0,0.0,0.0,2.0533,2.1606,2.2381,2.2794,2.2969,2.2969,2.2882,2.2671,2.1909,2.1365,2.0682,1.9188,1.8635,1.8303,1.7512,1.7153,1.6979,1.6831,1.6393,1.5859,1.5194,1.4682,1.4016,1.2856,1.2419,1.198,1.1292,1.1194,1.134,1.1756,1.1817,1.1868,1.2064,1.1618,1.1072,1.0468,0.9423,0.8595,0.8156,0.7543,0.6932,0.6318,0.4979,0.3696,0.2635,0.2131,0.1514,0.0729,0.0505,0.028,0.0112,0.0,0.0,0.0,0.0,0.0,-0.0056,-0.0785,0.0,0.0,-0.3669,-0.4837,-0.5776,-0.6633,-0.7191,-0.7543,-0.7793,-0.7939,-0.7988,0.0,0.0,0.0,0.0,0.0,0.0,0.0,0.1008,0.2519,0.3924,0.5479,0.6833,0.7779,0.9468,1.0757,0.0,0.0,0.0,0.0,0.0,0.0,0.0,0.0,0.0,0.0,0.0,0.0,1.5199,1.4891,0.0,0.0,0.0,0.0,0.0,0.0,1.2535,1.2322,1.2157,0.0,0.0,0.0,0.0,0.0,0.0,0.0,0.0,0.0,2.0384,2.1472,2.1998,2.2309,2.2476,2.2476,2.2618,2.2671,2.1909,2.1365,2.0682,1.9188,1.8635,1.8303,1.7512,1.7153,1.6878,1.6386,1.5859,1.5194,1.4238,1.3624,1.3001,1.2224,1.1834,1.159,1.1243,1.1194,1.134,1.1756,1.1817,1.1916,1.2335,1.211,1.1673,1.1076,1.0198,0.9316,0.854,0.7654,0.6932,0.6318,0.5373,0.4536,0.3863,0.2746,0.202,0.1683,0.0841,0.0393,0.0336,0.0112,0.0,0.0,0.0,0.0,0.0,-0.0336,0.0,0.0,-0.2699,-0.3883,-0.5142,-0.5824,-0.6589,-0.7288,-0.7543,-0.7793,-0.7988,0.0,0.0,0.0,0.0,0.0,0.0,0.0,-0.005,0.131,0.2818,0.4275,0.5582,0.6531,0.773,0.897,0.0,0.0,0.0,0.0,0.0,0.0,0.0,0.0,0.0,0.0,0.0,1.3873,1.3577,1.3191,0.0,0.0,0.0,0.0,0.0,0.0,1.0697,1.074,1.0524,0.0,0.0,0.0,0.0,0.0,0.0,0.0,0.0,0.0,0.0,2.0798,2.1275,2.1687,2.1998,2.1998,2.2043,2.2052,2.1651,2.115,2.0447,1.9142,1.8635,1.8265,1.734,1.6925,1.6588,1.5866,1.5201,1.4484,1.3624,1.2996,1.2467,1.1878,1.1683,1.1487,1.1243,1.1194,1.134,1.1756,1.1817,1.1973,1.2335,1.2327,1.2001,1.1459,1.041,0.9199,0.782,0.7376,0.7099,0.6877,0.6154,0.5373,0.4592,0.3696,0.2858,0.2076,0.1514,0.1065,0.0673,0.0393,0.0224,0.0224,0.0056,0.0,0.0,-0.028,0.0,0.0,-0.2107,-0.314,-0.4295,-0.5158,-0.6034,-0.6789,-0.7394,-0.7646,-0.7793,0.0,0.0,0.0,0.0,0.0,-0.3275,-0.2017,-0.0857,0.0453,0.1964,0.3323,0.4529,0.5532,0.6384,0.7335,0.8566,0.0,0.0,0.0,0.0,0.0,0.0,0.0,0.0,0.0,0.0,1.2204,1.2004,1.1462,1.112,0.0,0.0,0.9757,0.965,0.0,0.0,0.0,0.0,0.0,0.0,0.0,0.0,0.0,0.0,0.0,0.0,0.0,0.0,0.0,0.0,0.0,2.1284,2.1284,2.1195,0.0,2.1159,2.0916,2.032,1.905,1.8542,1.8172,1.7207,1.669,1.6157,1.5486,1.4669,1.3859,1.3044,1.2516,1.2024,1.159,1.1487,1.1443,1.1243,1.1194,1.134,1.1756,1.1817,1.1973,1.2335,1.2332,1.2055,1.1514,1.0135,0.8699,0.7321,0.7046,0.699,0.7043,0.6654,0.6098,0.532,0.4646,0.3808,0.2915,0.2354,0.1794,0.129,0.0841,0.0561,0.0393,0.0224,0.0056,0.0,-0.0224,0.0,0.0,-0.1513,-0.2449,-0.3448,-0.4444,-0.5384,-0.6237,-0.6989,-0.7394,-0.7646,0.0,0.0,0.0,0.0,0.0,0.0,0.0,-0.126,0.0101,0.1412,0.2772,0.3929,0.4734,0.5539,0.6139,0.6387,0.0,0.0,0.0,0.0,0.0,0.0,0.0,0.0,0.0,0.0,1.0413,1.0408,0.9612,0.9033,0.8638,0.8101,0.7729,0.7493,0.0,0.0,0.0,0.0,0.0,0.0,0.0,0.0,0.0,0.0,0.0,0.0,0.0,0.0,0.0,0.0,0.0,0.0,0.0,2.0011,0.0,0.0,2.0591,2.0266,1.8904,1.8311,1.7947,1.7167,1.6407,1.5683,1.5201,1.4286,1.3323,1.2559,1.1975,1.1541,1.1243,1.1194,1.1194,1.1194,1.1194,1.134,1.1756,1.1817,1.1973,1.2335,1.2169,1.1782,1.1181,0.9254,0.7765,0.7265,0.6659,0.0,0.6715,0.6715,0.6546,0.6318,0.5373,0.4761,0.4479,0.3304,0.2521,0.2188,0.157,0.0953,0.0393,0.0393,0.0224,0.0,0.0,0.0,0.0,-0.0972,-0.1704,-0.2601,-0.3633,-0.4684,-0.5684,-0.6234,-0.6942,-0.7596,0.0,0.0,0.0,0.0,0.0,0.0,0.0,-0.1815,-0.0605,0.0403,0.2017,0.3277,0.393,0.4887,0.5539,0.5834,0.0,0.0,0.0,0.0,0.0,0.0,0.0,0.0,0.0,0.0,0.9221,0.9027,0.8425,0.8054,0.7911,0.7073,0.6671,0.6579,0.5742,0.5647,0.0,0.0,0.0,0.0,0.0,0.0,0.0,0.0,0.0,0.0,0.0,0.0,0.0,0.0,0.0,0.0,0.0,0.0,0.0,0.0,1.9042,1.8988,1.8156,1.7746,1.7333,1.64,1.5872,1.5248,1.4232,1.3468,1.2748,1.2024,1.159,1.1292,1.1198,1.1194,1.1194,1.1194,1.1173,1.1208,1.147,1.1317,1.1229,1.1483,1.0911,1.008,0.9082,0.8202,0.7432,0.6659,0.6386,0.6439,0.6715,0.6715,0.6657,0.6601,0.6098,0.5596,0.5093,0.4311,0.3698,0.3139,0.2299,0.1627,0.1009,0.0561,0.028,0.0,0.0,0.0,0.0,-0.07,-0.1323,-0.1982,-0.3052,-0.3981,-0.4887,-0.5789,-0.6542,-0.7095,0.0,0.0,0.0,0.0,0.0,0.0,0.0,-0.237,-0.1159,-0.0151,0.1361,0.2672,0.3528,0.4384,0.5039,0.5436,0.0,0.0,0.0,0.0,0.0,0.0,0.0,0.0,0.0,0.8329,0.8131,0.7935,0.7182,0.683,0.683,0.5812,0.5436,0.548,0.4657,0.4618,0.0,0.0,0.0,0.0,0.0,0.0,0.9724,0.0,0.0,0.0,0.0,0.0,0.0,0.0,0.0,0.0,0.0,0.0,0.0,0.0,1.766,1.7606,1.7466,1.7185,1.6669,1.5872,1.5248,1.4573,1.3565,1.2894,1.2268,1.1731,1.1389,1.1145,1.1047,1.1047,1.1002,1.09,1.0829,1.0828,1.1066,1.0733,1.0435,1.0445,0.9754,0.8848,0.7743,0.7191,0.6628,0.5939,0.577,0.5877,0.6257,0.6369,0.6478,0.6585,0.6501,0.6265,0.5875,0.5318,0.4704,0.4091,0.3139,0.2355,0.1627,0.0897,0.0447,0.0,0.0,0.0,0.0,-0.0479,-0.0944,-0.1553,-0.2386,-0.3325,-0.4236,-0.5188,-0.5942,-0.6592,0.0,0.0,0.0,0.0,0.0,0.0,0.0,0.0,0.0,0.0,0.0857,0.2067,0.3376,0.4033,0.4587,0.0,0.0,0.0,0.0,0.0,0.0,0.0,0.0,0.0,0.0,0.7235,0.7086,0.7036,0.5984,0.5434,0.5384,0.4383,0.4031,0.4225,0.3665,0.3733,0.0,0.0,0.0,0.0,0.0,0.0,0.0,0.0,0.0,0.0,0.0,0.0,0.0,0.0,0.0,0.0,0.0,0.0,0.0,0.0,0.0,0.0,0.0,1.644,1.6001,1.5432,1.4573,1.3667,1.3141,1.2467,0.0,1.159,1.1292,1.1047,1.0801,1.0708,1.0663,1.0381,1.0246,1.0233,1.0464,1.0114,0.9684,0.9288,0.8748,0.8032,0.704,0.6155,0.5519,0.5169,0.4894,0.4945,0.558,0.5847,0.6112,0.6373,0.658,0.6692,0.6692,0.6135,0.5524,0.4912,0.4077,0.3129,0.218,0.1341,0.0776,0.0,0.0,0.0,0.0,-0.0314,-0.0726,-0.1242,-0.1778,-0.2622,-0.3629,-0.4433,-0.5288,-0.6092,0.0,0.0,0.0,0.0,0.0,0.0,0.0,0.0,0.0,0.0,0.0353,0.1663,0.2572,0.353,0.4334,0.0,0.0,0.0,0.0,0.0,0.0,0.0,0.0,0.0,0.0,0.6337,0.5884,0.5679,0.458,0.3977,0.3726,0.3075,0.2723,0.2571,0.2409,0.2833,0.0,0.0,0.0,0.0,0.0,0.0,0.0,0.0,0.0,0.0,1.1848,1.262,0.0,0.0,0.0,0.0,0.0,0.0,0.0,0.0,1.5486,1.5242,1.4765,0.0,1.5146,1.4184,1.3619,1.3044,0.0,1.1683,1.1243,1.0806,1.0462,1.0265,1.0216,1.0019,0.9917,0.9949,0.9875,0.9795,0.9751,0.9211,0.8553,0.7814,0.7509,0.695,0.5843,0.5502,0.5184,0.4841,0.4733,0.4945,0.558,0.5847,0.6112,0.6373,0.6642,0.6778,0.6778,0.6406,0.5976,0.5328,0.4471,0.3505,0.2428,0.1779,0.1131,0.0,0.0,0.0,0.0,-0.0312,-0.0618,-0.0965,-0.1467,-0.2221,-0.3077,-0.3882,-0.4834,-0.5787,0.0,0.0,0.0,0.0,0.0,0.0,0.0,0.0,0.0,0.0,0.0,0.0,0.0,0.0,0.0,0.0,0.0,0.0,0.0,0.0,0.0,0.0,0.0,0.0,0.5889,0.5085,0.4529,0.4277,0.3324,0.2772,0.2621,0.2118,0.1767,0.1615,0.1767,0.2257,0.0,0.0,0.0,0.0,0.5768,0.0,0.0,0.0,0.0,0.0,1.0688,1.1411,0.0,1.2651,1.3082,1.3414,0.0,0.0,0.0,0.0,1.428,1.404,1.3377,1.3709,1.3992,1.3184,1.2506,1.1878,1.1194,1.065,1.0203,0.9912,0.9715,0.962,0.9472,0.949,0.9527,0.9466,0.9328,0.9119,0.8679,0.8329,0.7799,0.7023,0.6743,0.6177,0.5073,0.4812,0.4613,0.421,0.4309,0.4568,0.5033,0.5397,0.5759,0.6012,0.6274,0.6534,0.6801,0.6645,0.6381,0.5902,0.5055,0.4153,0.3249,0.229,0.1538,0.0,0.0,0.0,0.0154,-0.0103,-0.0357,-0.0657,-0.1061,-0.1667,-0.2372,-0.3277,-0.418,-0.4985,0.0,0.0,0.0,0.0,0.0,0.0,0.0,0.0,0.0,0.0,0.0,0.0,0.0,0.0,0.0,0.0,0.0,0.0,0.0,0.0,0.0,0.0,0.0,0.5236,0.4684,0.383,0.3275,0.3022,0.2218,0.1816,0.1765,0.1313,0.1061,0.1111,0.1314,0.1717,0.0,0.0,0.3646,0.4275,0.5069,0.0,0.0,0.0,0.0,0.0,0.0,0.0,0.0,1.1189,1.1722,1.2296,1.2441,0.0,0.0,0.0,0.0,0.0,1.2219,1.2306,1.2441,1.2116,1.1336,1.0502,1.0113,0.9513,0.9019,0.892,0.8867,0.8772,0.8577,0.8858,0.9031,0.8852,0.86,0.8189,0.7645,0.7423,0.715,0.6611,0.6192,0.5567,0.4621,0.4291,0.3951,0.3639,0.3835,0.4135,0.4388,0.4891,0.5288,0.5536,0.5842,0.6235,0.6692,0.6694,0.6592,0.6333,0.554,0.4857,0.4172,0.2905,0.2095,0.1704,0.0,0.0,0.0404,0.0152,-0.0101,-0.0404,-0.0657,-0.1111,-0.1717,-0.2671,-0.3426,-0.4131,0.0,0.0,0.0,0.0,0.0,0.0,0.0,0.0,0.0,0.0,0.0,0.0,0.0,0.0,0.0,0.0,0.0,0.0,0.0,0.0,0.0,0.0,0.4836,0.4684,0.4133,0.3126,0.2471,0.2168,0.1363,0.0858,0.0656,0.0556,0.0505,0.0505,0.0556,0.101,0.1768,0.2063,0.2812,0.3762,0.4353,0.0,0.0,0.0,0.0,0.0,0.0,0.0,0.0,0.9805,1.0154,1.0507,1.1243,0.0,0.0,0.0,0.0,0.0,1.085,1.0252,0.9899,1.0293,1.0051,0.9558,0.857,0.8269,0.8074,0.7584,0.7332,0.7229,0.7434,0.7396,0.7419,0.7485,0.7243,0.7083,0.721,0.6741,0.6295,0.6169,0.5585,0.495,0.4304,0.3939,0.3647,0.3586,0.3835,0.4135,0.4388,0.4891,0.524,0.524,0.5741,0.6057,0.6143,0.6343,0.6343,0.6045,0.5686,0.513,0.4324,0.3661,0.2843,0.1925,0.0,0.1013,0.0404,0.0354,0.0051,-0.0404,-0.0455,-0.0909,-0.1667,-0.2017,-0.2822,-0.3872,0.0,0.0,0.0,0.0,0.0,0.0,0.0,0.0,0.0,0.0,0.0,0.0,0.0,0.0,0.0,0.0,0.0,0.0,0.0,0.0,0.0,0.0,0.3476,0.3175,0.2924,0.217,0.1564,0.111,0.0606,0.0303,0.0202,0.0202,0.0202,0.0202,0.0354,0.0606,0.101,0.1565,0.217,0.2822,0.0,0.0,0.0,0.0,0.0,0.0,0.0,0.0,0.0,0.0,0.8924,0.9175,0.9567,0.0,0.0,0.0,0.0,0.0,0.9266,0.8722,0.8273,0.7918,0.7968,0.7922,0.7279,0.6783,0.6434,0.6189,0.6037,0.6037,0.6284,0.6535,0.6666,0.6688,0.6586,0.6412,0.6184,0.5864,0.558,0.5318,0.4968,0.4541,0.3939,0.3704,0.3534,0.3383,0.3633,0.3885,0.4185,0.4537,0.4891,0.519,0.5441,0.5691,0.5992,0.6139,0.6189,0.6189,0.5939,0.5539,0.5037,0.4334,0.363,0.2822,0.0,0.1515,0.101,0.0556,0.0253,0.0,-0.0303,-0.0606,-0.1061,-0.1765,-0.2654,-0.3668,0.0,0.0,0.0,0.0,0.0,0.0,0.0,0.0,0.0,0.0,0.0,0.0,0.0,0.0,0.0,0.0,0.0,0.0,0.0,0.0,0.2825,0.2821,0.2169,0.1866,0.1917,0.1313,0.0808,0.0404,0.0152,0.0,0.0,0.0,0.0,0.0,0.0202,0.0354,0.0455,0.1061,0.1565,0.1968,0.0,0.0,0.0,0.0,0.0,0.0,0.0,0.0,0.0,0.0,0.0,0.0,0.0,0.0,0.0,0.8478,0.8524,0.852,0.7872,0.7478,0.6983,0.6032,0.6182,0.6431,0.6037,0.5438,0.4989,0.4939,0.4939,0.4989,0.5288,0.5686,0.5974,0.5941,0.5859,0.5669,0.5214,0.508,0.491,0.4621,0.4437,0.4148,0.3639,0.3534,0.3433,0.323,0.3433,0.3685,0.3883,0.4237,0.4589,0.4991,0.5118,0.5406,0.5854,0.5926,0.6085,0.6387,0.6189,0.5939,0.5687,0.4989,0.4334,0.3729,0.2772,0.2118,0.1616,0.0909,0.0505,0.0354,-0.0101,-0.0353,-0.0502,-0.1554,-0.2425,-0.3259,0.0,0.0,0.0,0.0,0.0,0.0,0.0,0.0,0.0,0.0,0.0,0.0,0.0,0.0,0.0,0.0,0.0,0.0,0.0,0.0,0.1714,0.1714,0.1414,0.1364,0.1617,0.0859,0.0455,0.0404,0.0152,0.0,0.0,0.0,0.0,0.0,0.0,0.0152,0.0404,0.0455,0.0909,0.1667,0.1968,0.0,0.0,0.0,0.0,0.0,0.0,0.0,0.0,0.0,0.0,0.0,0.0,0.0,0.7335,0.7338,0.7132,0.6977,0.6877,0.6487,0.5992,0.5391,0.5489,0.5486,0.4738,0.4489,0.4386,0.4133,0.4083,0.4183,0.4438,0.4608,0.475,0.4788,0.4594,0.4539,0.4689,0.4467,0.4364,0.4556,0.4034,0.3641,0.3586,0.3383,0.323,0.318,0.3433,0.3586,0.3635,0.4137,0.4438,0.4438,0.4856,0.5252,0.555,0.5636,0.5927,0.6387,0.6387,0.6239,0.5942,0.5636,0.5087,0.4288,0.3731,0.2924,0.1917,0.1363,0.0859,0.0354,0.0101,-0.02,-0.0492,-0.1329,-0.1847,-0.224,0.0,0.0,0.0,0.0,0.0,0.0,0.0,0.0,0.0,0.0,0.0,0.0,0.0,0.0,0.0,0.0,0.0,0.0,0.0,0.0,0.0908,0.111,0.0858,0.0758,0.0859,0.0556,0.0303,0.0152,0.0051,0.0,0.0,0.0,0.0,0.0,0.0,0.0051,0.0152,0.0354,0.0556,0.0909,0.1515,0.2119,0.0,0.0,0.0,0.0,0.0,0.0,0.0,0.0,0.6489,0.6686,0.6489,0.6589,0.6637,0.6287,0.6134,0.5982,0.5634,0.5286,0.4889,0.4338,0.4288,0.4286,0.3987,0.3784,0.3633,0.3531,0.3481,0.3595,0.3942,0.4229,0.4327,0.4245,0.4098,0.3979,0.383,0.3698,0.3666,0.3726,0.3497,0.3332,0.3332,0.3281,0.318,0.318,0.3281,0.3433,0.3586,0.3744,0.4016,0.431,0.4473,0.4762,0.5195,0.5346,0.5603,0.5973,0.612,0.6171,0.6074,0.5787,0.54,0.4913,0.4233,0.3406,0.2581,0.1853,0.1219,0.0585,0.0146,-0.0146,-0.0434,-0.0916,-0.1333,-0.1823,0.0,0.0,0.0,0.0,0.0,0.0,0.0,0.0,0.0,0.0,0.0,0.0,0.0,0.0,0.0,0.0,0.0,0.0,0.0,0.0,0.0253,0.0556,0.0354,0.0253,0.0253,0.0253,0.0202,0.0,0.0,0.0,0.0,0.0,0.0,0.0,0.0,0.0,0.0,0.0202,0.0303,0.0455,0.101,0.1414,0.0,0.0,0.0,0.0,0.0,0.0,0.0,0.0,0.5989,0.6137,0.0,0.0,0.5939,0.5386,0.5236,0.5135,0.4684,0.4437,0.4137,0.3584,0.3484,0.3433,0.3281,0.323,0.318,0.318,0.318,0.3293,0.3538,0.3752,0.3821,0.371,0.3665,0.3598,0.3298,0.3293,0.3227,0.3185,0.318,0.318,0.318,0.318,0.318,0.318,0.318,0.3272,0.3454,0.346,0.3718,0.4132,0.4243,0.4526,0.504,0.5151,0.5366,0.5691,0.5833,0.5966,0.6086,0.59,0.5663,0.5377,0.4662,0.395,0.319,0.2287,0.143,0.062,0.0191,-0.0095,-0.0283,-0.0567,-0.0933,-0.1328,0.0,0.0,0.0,0.0,0.0,0.0,0.0,0.0,0.0,0.0,0.0,0.0,0.0,0.0,0.0,0.0,0.0,0.0,0.0,-0.0404,-0.0303,0.0,0.0,0.0,0.0,0.0,0.0,0.0,0.0,0.0,0.0,0.0,0.0,0.0,0.0,0.0,0.0,0.0,0.0152,0.0404,0.0404,0.0707,0.1263,0.0,0.0,0.0,0.0,0.0,0.0,0.0,0.5584,0.5584,0.5584,0.0,0.0,0.4539,0.4388,0.4338,0.4083,0.3982,0.3833,0.3331,0.318,0.3029,0.2522,0.2826,0.318,0.318,0.318,0.318,0.318,0.318,0.318,0.318,0.318,0.318,0.318,0.318,0.318,0.318,0.318,0.318,0.318,0.318,0.318,0.318,0.318,0.3153,0.3094,0.3335,0.3599,0.3815,0.4204,0.4618,0.5076,0.5018,0.5235,0.5688,0.5508,0.5625,0.6083,0.6083,0.5942,0.5663,0.5135,0.4466,0.3708,0.2664,0.1476,0.0381,0.0095,0.0,-0.0046,-0.0324,-0.0548,-0.0762,0.0,0.0,0.0,0.0,0.0,0.0,0.0,0.0,0.0,0.0,0.0,0.0,0.0,0.0,0.0,0.0,0.0,0.0,0.0,-0.0808,-0.0556,-0.0303,-0.0101,0.0,0.0,0.0,0.0,0.0,0.0,0.0,0.0,0.0,0.0,0.0,0.0,0.0,0.0,0.0,0.0051,0.0152,0.0303,0.0505,0.0657,0.0,0.0,0.0,0.0,0.0,0.0,0.0,0.0,0.0,0.5085,0.0,0.0,0.3982,0.358,0.3279,0.3177,0.2875,0.2572,0.2422,0.2219,0.2017,0.1865,0.2422,0.2977,0.318,0.318,0.318,0.318,0.318,0.318,0.318,0.318,0.318,0.318,0.318,0.318,0.318,0.318,0.318,0.318,0.318,0.318,0.318,0.3141,0.3209,0.3387,0.3346,0.3615,0.4198,0.4296,0.4563,0.5013,0.5206,0.5371,0.5508,0.5552,0.5679,0.5839,0.5839,0.5793,0.5703,0.538,0.4833,0.4014,0.2556,0.1416,0.0594,0.0365,0.0182,-0.0045,-0.0317,-0.0451,-0.0583,0.0,0.0,0.0,0.0,0.0,0.0,0.0,0.0,0.0,0.0,0.0,0.0,0.0,0.0,0.0,0.0,0.0,0.0,0.0,0.0,-0.0808,-0.0404,-0.0253,0.0,0.0,0.0,0.0,0.0,0.0,0.0,0.0,0.0,0.0,0.0,0.0,0.0,0.0,-0.0101,-0.0152,-0.0152,0.0,0.0101,0.0101,0.0,0.0,0.0,0.0,0.0,0.0,0.0,0.0,0.0,0.4332,0.0,0.3682,0.3126,0.2723,0.2422,0.2219,0.1916,0.1613,0.1412,0.1261,0.111,0.111,0.1816,0.2573,0.2826,0.2977,0.3079,0.318,0.318,0.318,0.318,0.318,0.318,0.318,0.318,0.318,0.318,0.318,0.318,0.318,0.318,0.3171,0.3146,0.321,0.3363,0.3551,0.3702,0.4005,0.4608,0.4775,0.5055,0.5411,0.5591,0.5683,0.5683,0.5683,0.5686,0.5688,0.5688,0.5688,0.5688,0.5285,0.4703,0.3898,0.2511,0.1525,0.0807,0.0538,0.0224,0.0,-0.018,-0.0314,-0.0448,0.0,0.0,0.0,0.0,0.0,0.0,0.0,0.0,0.0,0.0,0.0,0.0,0.0,0.0,0.0,0.0,0.0,0.0,0.0,0.0,0.0,0.0,0.0,0.0,0.0,0.0,0.0,0.0,0.0,0.0,0.0,0.0,0.0,0.0,-0.0051,-0.0051,-0.0051,-0.0303,-0.0455,-0.0455,-0.0455,-0.0455,-0.0404,0.0101,0.0,0.0,0.0,0.0,0.0,0.0,0.0,0.0,0.3377,0.3075,0.2573,0.2017,0.1866,0.1715,0.121,0.1059,0.0958,0.0454,0.0303,0.0303,0.0303,0.106,0.1866,0.2269,0.2573,0.2826,0.313,0.318,0.318,0.318,0.318,0.318,0.318,0.318,0.318,0.318,0.318,0.318,0.318,0.3176,0.3199,0.3144,0.3375,0.3606,0.38,0.4198,0.4656,0.5102,0.5542,0.5899,0.6171,0.6171,0.6171,0.6171,0.5855,0.5725,0.5733,0.5688,0.5688,0.5644,0.5018,0.4346,0.3542,0.2647,0.1839,0.1076,0.0583,0.0269,0.0,0.0,-0.0135,-0.0359,0.0,0.0,0.0,0.0,0.0,0.0,0.0,0.0,0.0,0.0,0.0,0.0,0.0,0.0,0.0,0.0,0.0,0.0,0.0,0.0,0.0,0.0,0.0,0.0,0.0,0.0,0.0,0.0,0.0,0.0,0.0,0.0,0.0,0.0,-0.0202,-0.0303,-0.0354,-0.0606,-0.0707,-0.0707,-0.0707,-0.0707,-0.0707,-0.0606,-0.0404,0.0,0.0,0.0,0.0,0.0,0.0,0.0,0.2319,0.1966,0.1462,0.1161,0.0757,0.0404,0.0303,0.0101,-0.0101,-0.0202,-0.0404,-0.0556,-0.0556,-0.0202,0.0454,0.1563,0.2169,0.2573,0.2826,0.3079,0.318,0.318,0.318,0.318,0.318,0.318,0.318,0.318,0.318,0.318,0.318,0.3137,0.3203,0.3387,0.3577,0.0,0.4432,0.4727,0.5255,0.6074,0.6207,0.6476,0.6874,0.6748,0.6659,0.0,0.6216,0.5994,0.5994,0.5777,0.5688,0.5688,0.5374,0.4701,0.3807,0.3226,0.2241,0.1076,0.0762,0.0359,0.0,0.0,-0.0045,-0.0135,0.0,0.0,0.0,0.0,0.0,0.0,0.0,0.0,0.0,0.0,0.0,0.0,0.0,0.0,0.0,0.0,0.0,0.0,0.0,0.0,0.0,0.0,0.0,0.0,0.0,0.0,-0.0051,-0.0202,-0.0202,-0.0202,-0.0202,-0.0202,-0.0253,-0.0404,-0.0505,-0.0606,-0.0606,-0.0859,-0.101,-0.101,-0.101,-0.101,-0.096,-0.0859,-0.0707,-0.0606,-0.0606,0.0,0.0,0.0,0.0,0.0,0.0,0.0,0.0404,0.0101,-0.0152,-0.0404,-0.0556,-0.0657,-0.0808,-0.096,-0.1061,-0.1162,-0.1162,-0.096,-0.0555,0.0303,0.106,0.1766,0.217,0.2573,0.2876,0.2977,0.313,0.318,0.318,0.318,0.318,0.318,0.318,0.3169,0.314,0.3109,0.3164,0.3393,0.3695,0.4139,0.4822,0.5352,0.5985,0.6697,0.6962,0.7231,0.7496,0.7367,0.719,0.6922,0.6615,0.6263,0.5908,0.5777,0.5688,0.5688,0.5508,0.4968,0.421,0.3494,0.2599,0.157,0.0942,0.0493,0.018,0.0045,0.0,0.0,0.0,0.0,0.0,0.0,0.0,0.0,0.0,0.0,0.0,0.0,0.0,0.0,0.0,0.0,0.0,0.0,0.0,0.0,0.0,0.0,0.0,0.0,0.0,0.0,0.0,0.0,-0.0253,-0.0455,-0.0505,-0.0556,-0.0606,-0.0505,-0.0606,-0.0808,-0.0859,-0.0859,-0.0909,-0.1162,-0.1263,-0.1263,-0.1263,-0.1263,-0.1263,-0.101,-0.096,-0.096,-0.096,-0.0758,-0.0505,-0.0303,0.0,0.0,0.0,0.0,-0.0606,-0.0808,-0.0909,-0.101,-0.1212,-0.1263,-0.1314,-0.1566,-0.1617,-0.1617,-0.1617,-0.1415,-0.1212,-0.096,-0.0101,0.0808,0.1362,0.1917,0.2371,0.2674,0.2977,0.313,0.318,0.318,0.318,0.318,0.3171,0.3149,0.311,0.3136,0.3232,0.3465,0.0,0.4491,0.5176,0.6044,0.6741,0.7228,0.772,0.7984,0.8032,0.7984,0.772,0.7228,0.6877,0.6393,0.5777,0.5733,0.5688,0.5688,0.5508,0.5151,0.4614,0.3719,0.2869,0.2109,0.1166,0.0628,0.0359,0.009,0.0,0.0,0.0,0.0,0.0,0.0,0.0,0.0,0.0,0.0,0.0,0.0,0.0,0.0,0.0,0.0,0.0,0.0,0.0,0.0,0.0,0.0,0.0,0.0,-0.1111,0.0,0.0,0.0,-0.0707,-0.0758,-0.096,-0.1212,-0.1415,-0.096,-0.0758,-0.0808,-0.1061,-0.1162,-0.1162,-0.1415,-0.1566,-0.1566,-0.1566,-0.1566,-0.1566,-0.1516,-0.1516,-0.1516,-0.1516,-0.1314,-0.1111,-0.1061,-0.0909,0.0,0.0,0.0,-0.1111,-0.1111,-0.1314,-0.1516,-0.1516,-0.1566,-0.1566,-0.1566,-0.1617,-0.1617,-0.1617,-0.1566,-0.1516,-0.1516,-0.0657,0.0253,0.0808,0.1362,0.1865,0.2371,0.2674,0.2927,0.318,0.318,0.318,0.318,0.3134,0.312,0.3164,0.3368,0.3654,0.4132,0.4661,0.53,0.6068,0.6678,0.7231,0.7764,0.8025,0.8292,0.852,0.8292,0.8028,0.7764,0.6874,0.6302,0.6041,0.5819,0.5688,0.5688,0.5688,0.5287,0.4661,0.4074,0.3181,0.2109,0.1345,0.0762,0.0359,0.009,0.0,0.0,0.0,0.0,0.0,0.0,0.0,0.0,0.0,0.0,0.0,0.0,0.0,0.0,0.0,0.0,0.0,-0.1617,0.0,0.0,0.0,0.0,0.0,-0.1415,-0.1263,-0.1162,-0.101,0.0,-0.1111,-0.1263,-0.1666,-0.2019,-0.2271,-0.217,-0.1919,-0.1465,-0.1617,-0.1566,-0.1415,-0.1566,-0.1617,-0.1617,-0.1617,-0.1617,-0.1617,-0.1617,-0.1617,-0.1617,-0.1617,-0.1516,-0.1415,-0.1415,-0.1364,-0.1263,-0.1263,0.0,0.0,0.0,-0.1516,-0.1617,-0.1617,-0.1617,-0.1617,-0.1617,-0.1617,-0.1617,-0.1617,-0.1617,-0.1617,-0.1617,-0.1212,-0.0758,-0.0202,0.0454,0.111,0.1615,0.222,0.2674,0.2927,0.313,0.3168,0.3134,0.3136,0.3174,0.3132,0.3354,0.3726,0.0,0.4886,0.556,0.6282,0.7031,0.7588,0.7904,0.8252,0.8476,0.8612,0.8476,0.816,0.7669,0.6697,0.6169,0.6083,0.5686,0.5597,0.5688,0.5688,0.5466,0.5015,0.4251,0.3449,0.2645,0.1524,0.0897,0.0538,0.0135,0.0,0.0,0.0,0.0,0.0,0.0,0.0,0.0,0.0,0.0,0.0,0.0,0.0,0.0,0.0,0.0,0.0,0.0,-0.1617,0.0,0.0,0.0,0.0,-0.1617,-0.1415,-0.1314,-0.1415,0.0,-0.1667,-0.2019,-0.2522,-0.2925,-0.3228,-0.3481,-0.3229,-0.2474,-0.2223,-0.197,-0.1718,-0.1617,-0.1617,-0.1617,-0.1617,-0.1617,-0.1618,-0.1626,-0.1628,-0.1629,-0.1637,-0.1635,-0.1628,-0.1628,-0.1623,-0.1617,-0.1617,-0.1617,0.0,0.0,0.0,-0.1617,-0.1617,-0.1617,-0.1617,-0.1617,-0.1617,-0.1617,-0.1617,-0.1617,-0.1617,-0.1617,-0.1617,-0.1465,-0.1061,-0.0404,0.0303,0.0909,0.1665,0.2316,0.2607,0.2956,0.3136,0.3124,0.3157,0.3155,0.3127,0.3453,0.3908,0.0,0.5263,0.6001,0.6562,0.7395,0.7886,0.7988,0.8388,0.8612,0.8612,0.852,0.816,0.7489,0.6656,0.6171,0.5991,0.5594,0.5463,0.5644,0.5688,0.5597,0.5327,0.4387,0.3673,0.3048,0.1704,0.0987,0.0628,0.018,0.0,0.0,0.0,0.0,0.0,0.0,0.0,0.0,0.0,0.0,0.0,0.0,0.0,0.0,-0.2826,-0.207,-0.1617,-0.1617,-0.1617,-0.1617,-0.1617,-0.1617,0.0,-0.1617,-0.1566,0.0,-0.1971,-0.2221,-0.2572,-0.3123,-0.3629,-0.4031,-0.4329,-0.4582,-0.4435,-0.3831,-0.2825,-0.2221,-0.1971,-0.1718,-0.1617,-0.1617,-0.1617,-0.1617,-0.162,-0.1649,-0.1712,-0.1715,-0.169,-0.1682,-0.1712,-0.1712,-0.1641,-0.1617,-0.1617,-0.1617,-0.1617,0.0,0.0,0.0,-0.1617,-0.1617,-0.1617,-0.1617,-0.1617,-0.1617,-0.1617,-0.1617,-0.1617,-0.1617,-0.1617,-0.1566,-0.1566,-0.1111,-0.0455,0.0303,0.111,0.1803,0.2264,0.28,0.3121,0.3109,0.3105,0.3126,0.3081,0.3823,0.4493,0.0,0.6066,0.6885,0.7399,0.7896,0.8164,0.8201,0.8472,0.8612,0.8612,0.8336,0.7977,0.7489,0.701,0.639,0.5719,0.5502,0.5416,0.5416,0.5599,0.5597,0.5327,0.4612,0.3851,0.3093,0.1838,0.1121,0.0628,0.018,0.0,0.0,0.0,0.0,0.0,0.0,0.0,0.0,0.0,0.0,0.0,0.0,0.0,0.0,0.0,-0.2222,-0.1768,-0.1617,-0.1617,-0.1617,-0.1617,-0.1617,0.0,-0.1617,-0.1768,-0.197,-0.2271,-0.2874,-0.3327,-0.3729,-0.4582,-0.5083,-0.5183,-0.5438,-0.5388,-0.4985,-0.3729,-0.2823,-0.2221,-0.197,-0.1768,-0.1617,-0.1617,-0.1628,-0.1647,-0.171,-0.1726,-0.169,-0.1701,-0.1697,-0.1686,-0.172,-0.1707,-0.1643,-0.1623,-0.1617,-0.1617,-0.1617,-0.1617,-0.1617,-0.1617,-0.1617,-0.1617,-0.1617,-0.1617,-0.1617,-0.1617,-0.1617,-0.1617,-0.1617,-0.1617,-0.1617,-0.1617,-0.1313,-0.0906,-0.0447,0.0446,0.1281,0.1787,0.2407,0.2928,0.3099,0.3083,0.3116,0.3089,0.3824,0.452,0.0,0.0,0.6945,0.7362,0.7981,0.8273,0.8204,0.8472,0.8612,0.8612,0.8208,0.794,0.776,0.6792,0.6302,0.6118,0.5455,0.5327,0.5597,0.5552,0.5552,0.551,0.4656,0.3983,0.3314,0.1928,0.1121,0.0628,0.018,0.0,0.0,0.0,0.0,0.0,0.0,0.0,0.0,0.0,0.0,0.0,-0.6392,0.0,0.0,0.0,0.0,-0.197,-0.1617,-0.1617,-0.1617,-0.1617,-0.1667,-0.1718,-0.1718,-0.2071,-0.2424,-0.2773,-0.3478,0.0,0.0,0.0,0.0,-0.6134,-0.6339,-0.6187,-0.5834,-0.4832,-0.3828,-0.2773,-0.2322,-0.197,-0.1719,-0.1679,-0.1644,-0.1717,-0.1736,-0.1757,-0.172,-0.1731,-0.1728,-0.1715,-0.1686,-0.1722,-0.1709,-0.1626,-0.1617,-0.1617,-0.1617,-0.1617,-0.1617,-0.1617,-0.1617,-0.1617,-0.1617,-0.1617,-0.1617,-0.1617,-0.1617,-0.1617,-0.1617,-0.1617,-0.1613,-0.1604,-0.1451,-0.1246,-0.0984,-0.0098,0.0724,0.1231,0.2029,0.2642,0.2879,0.3026,0.3109,0.3109,0.3907,0.0,0.0,0.0,0.0,0.7559,0.8136,0.8414,0.834,0.852,0.8612,0.8612,0.83,0.8032,0.776,0.6966,0.6432,0.6163,0.5455,0.5327,0.5597,0.5371,0.5416,0.5644,0.4701,0.4028,0.3444,0.1972,0.1121,0.0628,0.018,0.0,0.0,0.0,0.0,0.0,0.0,0.0,0.0,0.0,0.0,0.0,-0.6898,0.0,0.0,0.0,0.0,0.0,-0.167,-0.1619,-0.1618,-0.1618,-0.187,-0.2022,-0.2021,0.0,0.0,0.0,0.0,0.0,0.0,0.0,0.0,0.0,0.0,-0.6936,-0.6437,-0.6139,-0.5135,-0.3629,-0.2773,-0.2271,-0.1974,-0.1805,-0.1714,-0.1722,-0.1781,-0.1805,-0.1809,-0.1785,-0.1776,-0.1801,-0.1716,-0.1686,-0.171,-0.1626,-0.1617,-0.1617,-0.1617,-0.1617,-0.1617,0.0,0.0,0.0,-0.1617,-0.1617,-0.1617,-0.1617,0.0,-0.1616,-0.1615,-0.1615,-0.1607,-0.1576,-0.1618,-0.1519,-0.1274,-0.0531,0.0142,0.0602,0.1525,0.2267,0.2548,0.2873,0.3095,0.3098,0.4066,0.0,0.0,0.6516,0.7545,0.8053,0.8395,0.8612,0.8612,0.8612,0.8612,0.8612,0.8612,0.8248,0.7533,0.7489,0.6871,0.5719,0.5502,0.5416,0.5371,0.5099,0.528,0.5644,0.4701,0.4028,0.3444,0.1972,0.1121,0.0628,0.018,0.0,0.0,0.0,0.0,0.0,0.0,0.0,0.0,0.0,0.0,-0.7425,0.0,0.0,0.0,-0.4605,-0.3516,-0.2626,-0.2101,-0.2179,-0.2163,-0.1956,-0.2339,-0.2675,-0.2874,-0.3379,-0.3932,0.0,0.0,0.0,0.0,0.0,0.0,0.0,0.0,0.0,-0.7244,-0.6589,-0.5939,-0.5236,-0.388,-0.2875,-0.2274,-0.206,-0.1882,-0.1697,-0.1789,-0.1818,-0.1783,-0.1792,-0.179,-0.1778,-0.1802,-0.1717,-0.1684,-0.1633,-0.1617,-0.1617,-0.1617,-0.1617,-0.1617,-0.1617,0.0,0.0,0.0,0.0,0.0,-0.1617,0.0,-0.1611,-0.1589,-0.1584,-0.1575,-0.1544,-0.1521,-0.1506,-0.1412,-0.0937,-0.0463,-0.0136,0.0769,0.1601,0.2118,0.2486,0.2832,0.3058,0.0,0.0,0.0,0.6382,0.7382,0.7923,0.8372,0.8612,0.8612,0.8612,0.8612,0.8612,0.8428,0.8201,0.8021,0.7448,0.6966,0.6479,0.5727,0.5463,0.5599,0.5191,0.528,0.5644,0.4701,0.4028,0.3444,0.1972,0.1121,0.0628,0.018,0.0,0.0,0.0,0.0,0.0,0.0,0.0,0.0,0.0,0.0,-0.7747,0.0,0.0,0.0,-0.5047,-0.4098,-0.3354,-0.2929,-0.2901,-0.2883,-0.2831,-0.3218,-0.3545,-0.3772,-0.4382,-0.4924,-0.5288,0.0,0.0,0.0,0.0,0.0,0.0,0.0,0.0,0.0,0.0,-0.6639,-0.6089,-0.5035,-0.3879,-0.2678,-0.2283,-0.1953,-0.1709,-0.1752,-0.178,-0.1795,-0.1795,-0.1795,-0.1791,-0.1815,-0.1776,-0.1679,-0.1632,-0.1617,-0.1617,-0.1617,-0.1667,-0.1768,-0.1768,-0.192,-0.2121,-0.2121,0.0,0.0,-0.2121,-0.1908,-0.1742,0.0,-0.1659,-0.1543,-0.1513,-0.1493,-0.1476,-0.1464,-0.1233,-0.091,-0.0584,0.0134,0.0908,0.1593,0.205,0.2476,0.0,0.3702,0.4464,0.5015,0.6162,0.7183,0.7981,0.8388,0.8612,0.8612,0.8612,0.8612,0.8612,0.8428,0.8292,0.8201,0.7672,0.719,0.6748,0.5902,0.5594,0.5688,0.5191,0.528,0.5644,0.4792,0.4119,0.3444,0.2107,0.13,0.0807,0.0359,0.018,0.0135,0.0,0.0,0.0,0.0,0.0,0.0,0.0,0.0,-0.8124,0.0,-0.7417,-0.6523,-0.5459,-0.4866,-0.4386,-0.4016,-0.3793,-0.379,-0.4003,-0.4312,-0.4592,-0.4778,-0.5543,-0.6009,-0.6163,-0.6651,0.0,0.0,0.0,0.0,0.0,0.0,0.0,0.0,0.0,0.0,-0.6487,-0.6139,-0.4983,-0.3335,-0.2571,-0.2077,-0.1764,-0.1828,-0.1851,-0.1795,-0.1795,-0.1795,-0.179,-0.1811,-0.1761,-0.1709,-0.1677,-0.1667,-0.1718,-0.1718,-0.192,-0.2123,-0.2172,-0.2524,-0.2876,-0.2927,-0.2927,0.0,-0.2868,-0.2534,-0.2158,0.0,-0.1876,-0.1654,-0.162,-0.1614,-0.1559,-0.1485,-0.1436,-0.13,-0.0852,-0.0359,0.0226,0.0969,0.1524,0.2032,0.25,0.3413,0.4247,0.4926,0.5941,0.7003,0.8157,0.8472,0.8656,0.8656,0.8652,0.8652,0.8656,0.8656,0.8516,0.8245,0.8028,0.7547,0.6792,0.6033,0.568,0.5688,0.5191,0.528,0.5644,0.4973,0.43,0.3534,0.2331,0.157,0.1076,0.0583,0.0403,0.0359,0.0,0.0,0.0,0.0,0.0,0.0,0.0,0.0,-0.8368,-0.828,-0.7795,-0.7202,-0.6483,-0.6093,-0.5594,-0.477,-0.4871,-0.4831,-0.4619,-0.5307,-0.5785,-0.6025,-0.6564,-0.6967,-0.7202,-0.7353,0.0,0.0,0.0,0.0,0.0,0.0,0.0,0.0,0.0,0.0,-0.6989,-0.6292,-0.5438,-0.4446,-0.3725,-0.2875,-0.2032,-0.2104,-0.1964,-0.1795,-0.1795,-0.1795,-0.1787,-0.1731,-0.1847,-0.2017,-0.1931,-0.2222,-0.2574,-0.2574,-0.2777,-0.3029,-0.3228,-0.3377,-0.3478,-0.3731,-0.3781,0.0,-0.341,-0.3292,-0.3109,0.0,-0.2658,-0.2542,-0.2356,-0.2302,-0.2164,-0.1796,-0.1705,-0.1615,-0.13,-0.0852,-0.0362,0.0231,0.1003,0.0,0.2218,0.3278,0.4135,0.4696,0.6337,0.7533,0.8153,0.86,0.8823,0.8823,0.9043,0.9043,0.8823,0.8823,0.874,0.852,0.812,0.7588,0.7007,0.6118,0.568,0.5688,0.5191,0.528,0.5644,0.4973,0.4344,0.3714,0.2556,0.1794,0.1256,0.0628,0.0403,0.0359,0.0,0.0,0.0,0.0,0.0,0.0,0.0,0.0,-0.871,-0.8748,-0.8448,-0.8079,-0.7618,-0.7334,-0.6933,-0.6479,-0.6426,-0.6429,-0.632,-0.6656,-0.6956,-0.7158,-0.7519,-0.7685,-0.7702,-0.7839,-0.7918,0.0,0.0,0.0,0.0,0.0,0.0,0.0,0.0,-0.7643,-0.7391,-0.6992,-0.6242,-0.5299,-0.4205,-0.3169,-0.2297,-0.2249,-0.206,-0.1795,-0.1795,-0.1785,-0.1765,-0.172,-0.1895,-0.2119,-0.2183,-0.2573,-0.3025,-0.3176,-0.3479,-0.383,-0.3979,-0.428,-0.4632,-0.4784,-0.475,0.0,0.0,-0.41,-0.369,-0.3478,-0.3343,-0.3219,-0.3053,-0.2959,-0.2735,-0.242,-0.2242,-0.2056,-0.1769,-0.1337,-0.081,-0.0227,0.0451,0.0,0.1912,0.2841,0.3833,0.4844,0.6393,0.7432,0.7777,0.8292,0.859,0.859,0.8844,0.8844,0.859,0.859,0.8505,0.8292,0.7947,0.7509,0.6984,0.6089,0.568,0.5688,0.5191,0.528,0.5644,0.524,0.479,0.434,0.3047,0.2242,0.1703,0.1019,0.0662,0.0485,-1.3591,0.0,0.0,0.0,0.0,0.0,0.0,0.0,0.0,-0.9234,-0.9076,-0.8916,-0.8619,-0.8332,-0.8157,-0.8096,-0.7918,-0.7815,-0.7944,-0.7971,-0.7977,-0.8038,-0.8256,-0.8278,-0.804,-0.8193,-0.8211,0.0,0.0,0.0,0.0,0.0,0.0,0.0,-0.7988,-0.7842,-0.7596,-0.7596,-0.6995,-0.5947,-0.4659,-0.3595,-0.2709,-0.2441,-0.2151,-0.1898,-0.1898,-0.1932,-0.2008,-0.1973,-0.2146,-0.2469,-0.2635,-0.3124,-0.3726,-0.3929,-0.4379,-0.478,-0.483,-0.5334,-0.5837,-0.5884,-0.5854,-0.5766,0.0,0.0,0.0,-0.4362,-0.4164,-0.3979,-0.389,0.0,0.0,0.0,0.0,0.0,0.0,-0.189,0.0,-0.0664,-0.0044,0.0,0.1551,0.248,0.3601,0.4915,0.6176,0.703,0.7244,0.7942,0.8312,0.8312,0.8595,0.8636,0.8394,0.8353,0.8185,0.7934,0.7575,0.7215,0.679,0.5953,0.5613,0.5618,0.5129,0.5217,0.5618,0.5396,0.5173,0.4865,0.36,0.2763,0.2223,0.148,0.0994,0.0647,-1.3364,-1.3132,0.0,0.0,0.0,0.0,0.0,0.0,0.0,-0.9337,-0.9371,-0.9207,-0.8916,-0.8803,-0.8684,-0.8445,-0.8442,-0.8378,-0.8421,-0.8539,-0.8574,-0.8596,-0.8633,-0.8642,-0.8605,-0.8404,-0.8313,-0.8245,0.0,0.0,0.0,0.0,0.0,0.0,-0.7988,-0.7842,-0.7596,-0.7596,-0.7141,-0.6339,-0.5904,-0.4853,-0.3496,-0.3075,-0.2571,-0.2139,-0.2139,-0.2441,-0.2878,-0.2775,-0.3238,-0.3791,-0.3833,-0.4533,-0.5334,-0.5384,-0.5734,-0.6237,-0.6439,-0.6592,-0.6742,-0.6939,-0.6944,-0.677,-0.646,0.0,-0.5922,-0.5584,0.0,-0.5319,-0.4919,0.0,0.0,0.0,0.0,0.0,-0.2697,-0.2527,-0.2161,-0.1313,-0.0466,0.0,0.0,0.2624,0.3932,0.4678,0.5669,0.6367,0.6743,0.781,0.8382,0.8382,0.8914,0.9041,0.8641,0.8468,0.818,0.7732,0.7089,0.668,0.6424,0.5566,0.5281,0.5412,0.4947,0.4989,0.5412,0.5162,0.5036,0.492,0.4023,0.3311,0.2649,0.1828,0.1182,0.0676,-1.3535,-1.3431,-1.2956,0.0,0.0,0.0,0.0,0.0,0.0,-0.9493,-0.9585,-0.9576,-0.946,-0.9397,-0.9397,-0.9274,-0.9274,-0.9242,-0.9163,-0.9218,-0.9167,-0.8991,-0.8979,-0.8886,-0.8713,-0.8587,-0.8442,-0.8323,-0.8204,0.0,0.0,0.0,0.0,0.0,-0.7988,-0.7942,-0.7842,-0.7842,-0.7543,-0.7042,-0.6642,-0.5869,0.0,-0.3988,-0.3306,-0.2853,-0.3014,-0.3194,-0.3404,0.0,-0.3888,0.0,0.0,-0.5087,-0.5839,-0.6037,-0.6437,-0.6886,-0.6989,-0.7141,-0.7276,-0.7291,-0.7218,-0.708,-0.6848,-0.6572,-0.6323,-0.613,0.0,0.0,0.0,0.0,0.0,0.0,-0.4312,0.0,0.0,0.0,-0.2899,0.0,0.0,0.0,0.0,0.0,0.0,0.0,0.4955,0.5676,0.6198,0.707,0.7624,0.7861,0.8256,0.8295,0.7988,0.7905,0.7585,0.7037,0.661,0.6285,0.6037,0.5209,0.5077,0.5368,0.491,0.4951,0.541,0.5288,0.5246,0.516,0.4643,0.3874,0.2972,0.216,0.1443,0.0824,-1.41,-1.3841,-1.3309,-1.1768,0.0,0.0,0.0,0.0,0.0,-0.9649,-0.9758,-0.9822,-0.9822,-0.9822,-0.9822,-0.9822,-0.9822,-0.9778,-0.9676,-0.9632,-0.951,-0.9347,-0.9255,-0.9108,-0.8835,-0.8754,-0.8584,-0.8381,0.0,0.0,0.0,0.0,0.0,0.0,-0.7988,-0.7988,-0.7988,-0.7988,-0.7842,-0.7547,-0.7194,-0.6692,-0.6055,-0.4732,-0.398,-0.3667,-0.3862,-0.4085,-0.4295,-0.4475,-0.4731,0.0,-0.5286,-0.5839,-0.6492,-0.6689,-0.7039,-0.7437,-0.7437,0.0,0.0,0.0,0.0,0.0,0.0,-0.6847,-0.6605,-0.6605,-0.6605,0.0,0.0,0.0,-0.5891,-0.5593,0.0,-0.469,0.0,-0.42,0.0,0.0,0.0,0.0,0.0,0.0,0.0,0.3379,0.4191,0.4929,0.5553,0.6282,0.6865,0.7253,0.7557,0.7633,0.7407,0.7292,0.6984,0.6409,0.6047,0.5738,0.5459,0.4905,0.482,0.5189,0.4864,0.4946,0.5273,0.5273,0.5273,0.5265,0.4977,0.4266,0.3333,0.2509,0.1692,0.0925,-1.5105,-1.438,-1.3413,-1.2177,0.0,0.0,0.0,0.0,-0.9652,-0.9795,-0.9819,-0.9822,-0.9822,-0.9822,-0.9822,-0.9822,-0.9822,-0.9819,-0.9815,-0.9686,-0.9605,-0.9595,-0.931,-0.9204,-0.9197,-0.8859,-0.8632,-0.8476,0.0,0.0,0.0,0.0,0.0,0.0,-0.7988,-0.7988,-0.7988,-0.7988,-0.7842,-0.7596,-0.7596,-0.7244,-0.6606,0.0,-0.4501,-0.4563,-0.4484,0.0,0.0,-0.5574,-0.6092,0.0,0.0,0.0,0.0,0.0,0.0,0.0,0.0,0.0,0.0,-0.7762,0.0,0.0,0.0,0.0,-0.7095,0.0,-0.7095,-0.701,-0.6836,-0.6792,-0.6571,-0.6002,-0.5743,0.0,0.0,-0.4851,-0.4275,-0.3178,0.0,0.0,0.0,0.0,0.1884,0.2514,0.3335,0.4114,0.4701,0.5664,0.636,0.6637,0.7215,0.7407,0.7223,0.6834,0.6405,0.5902,0.5318,0.4935,0.4745,0.4511,0.4513,0.4711,0.4711,0.4828,0.5029,0.5029,0.5029,0.499,0.4787,0.4316,0.3692,0.3025,0.1964,0.0865,-1.54,-1.4969,-1.4239,-1.3083,-1.206,-1.1087,0.0,-0.9686,-0.9659,-0.9802,-0.9822,-0.9822,-0.9822,-0.9822,-0.9822,-0.9822,-0.9822,-0.9822,-0.9822,-0.9778,-0.9707,-0.9612,-0.9412,-0.9313,-0.921,-0.896,-0.8737,-0.8482,-0.8435,0.0,0.0,0.0,0.0,0.0,0.0,-0.7988,-0.7988,-0.7988,-0.7939,0.0,0.0,-0.7394,-0.6945,0.0,-0.5761,-0.5787,-0.5956,-0.6196,0.0,-0.66,-0.6836,-0.7089,-0.7089,-0.7294,-0.7596,-0.7596,-0.7793,0.0,0.0,0.0,-0.7787,-0.7695,0.0,0.0,0.0,0.0,0.0,0.0,0.0,0.0,-0.701,-0.6802,-0.6591,-0.6414,-0.6043,-0.5716,0.0,-0.528,-0.4854,-0.4229,-0.2741,-0.1411,0.0,0.0,0.0,0.1842,0.2549,0.3294,0.4075,0.4693,0.5276,0.5935,0.6128,0.6282,0.6328,0.6212,0.586,0.5315,0.4968,0.4698,0.4501,0.4311,0.4389,0.4701,0.4701,0.4818,0.5018,0.5018,0.5018,0.4979,0.4779,0.4348,0.3724,0.3061,0.2119,0.1061,-1.569,-1.5369,-1.4826,-1.3797,-1.2614,-1.1426,-1.0407,-1.0003,-0.9837,-0.9808,-0.9822,-0.9822,-0.9822,-0.9822,-0.9822,-0.9822,-0.9822,-0.9822,-0.9822,-0.9822,-0.9781,-0.969,-0.949,-0.9337,-0.9292,-0.9039,-0.8791,-0.8482,-0.8482,-0.833,0.0,0.0,0.0,0.0,0.0,-0.7988,-0.7988,-0.7988,-0.7988,0.0,0.0,-0.764,0.0,0.0,-0.6836,-0.6686,0.0,-0.6992,-0.7095,-0.7291,-0.7388,-0.7487,-0.7487,-0.759,-0.7743,-0.7743,-0.7842,-0.7978,-0.7924,-0.7848,0.0,-0.7553,-0.7404,0.0,-0.7119,0.0,-0.7095,0.0,0.0,0.0,0.0,-0.7021,-0.6816,-0.6893,-0.647,-0.6094,0.0,-0.5644,-0.5398,-0.5051,-0.3682,-0.2469,-0.1646,-0.0901,-0.0078,0.0862,0.1646,0.243,0.0,0.0,0.4382,0.5157,0.5237,0.5392,0.5589,0.5512,0.524,0.4771,0.4657,0.4504,0.4309,0.4311,0.4467,0.4701,0.4779,0.4898,0.5018,0.5018,0.4976,0.4859,0.4659,0.4151,0.3487,0.2981,0.2041,0.0943,-1.5891,-1.5696,-1.5231,-1.4418,-1.308,-1.1872,-1.1118,-1.0628,-1.0243,-0.9883,-0.9822,-0.9822,-0.9822,-0.9822,-0.9822,-0.9822,-0.9822,-0.9822,-0.9822,-0.9822,-0.9819,-0.9812,-0.9534,-0.9378,-0.9371,-0.9086,-0.8791,-0.8482,-0.8482,0.0,0.0,0.0,0.0,0.0,-0.7988,0.0,-0.7988,-0.7988,-0.7988,-0.7988,-0.7988,-0.7988,-0.7988,-0.7988,-0.769,-0.7238,-0.7238,-0.7391,-0.7596,-0.7596,-0.7793,-0.7988,-0.7988,-0.7988,-0.7988,-0.7982,-0.7978,-0.7944,-0.7841,-0.7695,-0.7553,-0.7453,0.0,0.0,0.0,0.0,-0.7095,0.0,0.0,0.0,0.0,0.0,-0.7246,-0.739,-0.706,-0.6576,-0.5999,-0.5902,-0.5825,-0.5637,-0.4582,-0.3606,-0.2942,-0.196,-0.1097,-0.0392,0.0627,0.1607,0.0,0.0,0.3641,0.4345,0.4543,0.4776,0.4965,0.4815,0.4621,0.4423,0.4423,0.4309,0.4118,0.4506,0.4701,0.4701,0.4898,0.4979,0.4979,0.4979,0.4859,0.4659,0.4423,0.3798,0.3015,0.2785,0.1805,0.055,-1.5891,-1.5845,-1.5658,-1.5116,-1.3737,-1.2372,-1.1488,-1.1168,-1.0849,-1.0243,-1.0183,-1.0061,-0.9819,-0.9822,-0.9822,-0.9822,-0.9822,-0.9822,-0.9822,-0.9822,-0.9774,-0.9666,-0.9483,-0.9327,-0.9272,-0.9032,-0.8791,-0.8482,-0.8482,0.0,-0.7988,0.0,0.0,0.0,0.0,-0.7988,-0.7988,-0.7988,-0.7988,-0.7988,-0.7988,-0.7988,-0.7988,0.0,-0.7939,-0.7789,-0.7789,-0.7839,-0.7892,-0.7892,-0.7939,-0.7988,-0.7988,-0.7988,-0.7968,-0.7902,-0.7868,-0.7838,-0.7692,-0.7543,-0.7421,-0.7429,-0.7255,-0.7095,0.0,0.0,0.0,0.0,0.0,0.0,0.0,0.0,0.0,-0.7375,-0.6965,-0.6532,-0.6222,-0.618,-0.6103,-0.5864,-0.5282,-0.4618,-0.3834,-0.2821,-0.1882,-0.1097,-0.0039,0.0,0.0,0.0,0.0,0.3641,0.3917,0.427,0.4776,0.4737,0.4659,0.4621,0.4621,0.4504,0.4348,0.4582,0.4701,0.4701,0.4898,0.4898,0.4779,0.4779,0.4584,0.4233,0.38,0.2979,0.1923,0.1531,0.106,0.055,-1.5891,-1.5982,-1.5902,-1.5536,-1.4808,0.0,-1.2442,-1.2051,-1.1696,-1.1031,-1.0849,-1.0668,-1.0486,-1.0183,-1.0004,-1.0004,-0.9879,-0.9822,-0.9822,-0.9764,-0.9693,-0.9612,-0.9398,-0.9299,-0.921,-0.9011,-0.8791,-0.8482,-0.8482,0.0,-0.7988,0.0,0.0,0.0,0.0,-0.7988,-0.7988,-0.7988,-0.7988,-0.7988,-0.7988,-0.7988,0.0,-0.7988,-0.7988,-0.7988,-0.7988,-0.7988,-0.7988,-0.7988,-0.7988,-0.7988,-0.7988,-0.7944,-0.7874,-0.7834,-0.7767,-0.7685,-0.7539,-0.7438,-0.7402,-0.7288,-0.7204,-0.7095,-0.7095,-0.7187,-0.7279,0.0,0.0,0.0,0.0,0.0,0.0,-0.721,-0.6834,-0.6525,-0.6338,-0.618,-0.6099,-0.606,-0.5712,-0.5201,-0.4535,-0.3524,-0.2586,-0.1882,-0.0941,0.0,0.0,0.0,0.0,0.2979,0.3136,0.3526,0.4151,0.419,0.427,0.4428,0.4543,0.4543,0.4543,0.474,0.4818,0.482,0.4859,0.474,0.4543,0.4387,0.4036,0.3606,0.2901,0.2158,0.1415,0.0825,0.055,0.0432,-1.5891,-1.6101,-1.6177,-1.5828,-1.5963,0.0,0.0,-1.32,0.0,-1.1997,0.0,-1.1454,-1.1333,-1.0728,-1.0358,-1.0276,-0.9973,-0.9785,-0.9764,-0.9649,-0.9571,-0.9551,-0.9354,-0.92,-0.9183,-0.8984,-0.8767,-0.8482,-0.8462,0.0,0.0,0.0,0.0,0.0,0.0,0.0,0.0,-0.7988,-0.7988,-0.7988,-0.7988,-0.7988,-0.7988,-0.7988,-0.7988,-0.7988,-0.7988,-0.7988,-0.7988,-0.7988,-0.7975,-0.7961,-0.7961,-0.7906,-0.778,-0.776,-0.7668,-0.7536,-0.7383,-0.7343,-0.7309,-0.7129,-0.7095,-0.7095,-0.7143,-0.7367,-0.7547,-0.7595,-0.7793,-0.7996,0.0,0.0,0.0,-0.6991,-0.6714,-0.6525,-0.6338,-0.606,-0.598,-0.6261,-0.587,0.0,0.0,-0.407,-0.3175,-0.2588,0.0,0.0,0.0,0.0,0.0,0.2314,0.2431,0.0,0.3409,0.0,0.3643,0.4079,0.4309,0.4501,0.4701,0.4898,0.4976,0.4937,0.4701,0.4504,0.4229,0.388,0.3409,0.2821,0.1884,0.1375,0.11,0.051,0.0275,0.0236,-1.5891,-1.6271,-1.6526,-1.6177,-1.6316,-1.6124,-1.5299,-1.4634,-1.3854,-1.2719,-1.2479,-1.2178,-1.1394,-1.097,-1.0556,-1.0193,-0.9825,-0.9595,-0.9466,-0.9435,-0.9364,-0.9296,-0.9238,-0.9096,-0.8977,-0.8828,-0.8662,-0.8482,-0.8367,-0.8214,0.0,0.0,0.0,0.0,0.0,0.0,-0.7988,-0.7988,0.0,-0.7988,-0.7988,-0.7988,-0.7988,-0.7988,-0.7988,-0.7988,-0.7988,-0.7988,-0.7988,-0.7988,-0.7907,-0.7851,-0.7851,-0.7753,-0.7611,-0.7485,-0.7431,-0.7377,-0.7221,-0.7136,-0.7129,-0.7102,-0.7095,-0.7143,-0.737,-0.7591,-0.7808,-0.8025,-0.8131,-0.8196,-0.8254,0.0,0.0,0.0,0.0,0.0,-0.6338,-0.606,-0.598,-0.6261,-0.587,-0.5559,-0.5518,0.0,0.0,0.0,0.0,0.0,0.0,0.0,0.0,0.0,0.1999,0.0,0.0,0.0,0.3407,0.3843,0.4229,0.4501,0.4701,0.474,0.474,0.474,0.435,0.3958,0.3563,0.3329,0.2666,0.1806,0.1257,0.0786,0.0471,0.0353,0.0196,0.0039,-1.5891,-1.6217,-1.644,-1.6255,-1.6351,0.0,0.0,-1.5161,-1.4389,-1.3445,-1.3049,-1.2535,-1.1783,-1.1126,-1.0624,-1.0255,-0.9783,-0.9459,-0.9388,-0.9306,-0.9286,-0.9214,-0.9083,-0.8971,-0.8821,-0.8747,-0.8601,-0.8374,-0.8354,-0.8191,-0.7988,0.0,0.0,0.0,0.0,-0.7988,0.0,0.0,0.0,-0.7988,-0.7988,-0.7988,-0.7988,-0.7988,-0.7941,-0.7874,-0.7874,-0.7875,-0.7824,-0.7896,-0.7824,-0.7702,-0.7702,-0.76,-0.7465,-0.7439,-0.7316,-0.7234,-0.7115,-0.7095,-0.7095,-0.7095,-0.7095,-0.7187,-0.7459,-0.7764,-0.8046,-0.8174,-0.8388,-0.8438,-0.809,-0.7921,0.0,0.0,0.0,0.0,0.0,-0.618,-0.6141,-0.63,-0.6106,-0.5831,-0.5479,-0.4501,0.0,0.0,0.0,0.0,0.0,0.0,0.0,0.0,0.0,0.0,0.0,0.0,0.0,0.3446,0.3641,0.3915,0.4231,0.4231,0.4153,0.3995,0.3722,0.3331,0.2899,0.2392,0.1726,0.1061,0.0707,0.0471,0.0275,0.0196,0.0079,0.0,-1.5891,-1.6115,-1.6296,-1.6284,-1.623,-1.6127,-1.5834,-1.5163,-1.45,-1.3983,-1.3427,-1.2843,-1.2272,-1.145,-1.0747,-1.0367,-0.9792,-0.9378,-0.9289,-0.9144,-0.9115,-0.9115,-0.892,-0.8784,-0.8665,-0.8632,-0.8503,-0.8323,-0.8238,0.0,0.0,0.0,0.0,0.0,0.0,0.0,0.0,0.0,-0.7988,-0.7988,-0.7988,-0.7988,-0.7985,-0.7955,-0.7916,-0.7807,-0.7777,-0.7675,-0.7567,-0.7682,-0.7645,-0.755,-0.755,-0.7448,-0.7322,-0.7322,-0.7238,-0.7095,-0.7095,-0.7095,-0.7095,-0.7095,-0.7095,-0.7187,-0.7503,-0.7914,-0.8237,-0.8312,-0.8556,-0.8524,-0.788,-0.7663,0.0,0.0,0.0,0.0,0.0,0.0,-0.63,-0.6377,-0.6338,-0.6064,-0.5437,0.0,0.0,0.0,0.0,0.0,0.0,0.0,0.0,0.0,0.0,0.051,0.1254,0.0,0.1881,0.0,0.2899,0.3173,0.3567,0.3567,0.3489,0.3253,0.2976,0.2586,0.2119,0.1375,0.0864,0.051,0.0314,0.0236,0.0236,0.0039,0.0,0.0,-1.5891,-1.6103,0.0,0.0,0.0,-1.5834,-1.5778,-1.4829,-1.4049,-1.4018,-1.367,-1.3203,-1.2607,-1.1972,-1.1327,-1.0537,-0.9904,-0.9398,-0.8988,-0.8838,-0.875,-0.875,-0.8608,-0.852,-0.8503,-0.8377,-0.835,-0.8323,0.0,-0.8005,0.0,0.0,0.0,0.0,0.0,0.0,0.0,-0.7988,-0.7988,-0.7988,-0.7988,-0.7988,-0.7975,-0.7885,-0.7824,-0.7794,-0.7665,-0.7522,-0.7439,-0.7453,-0.745,-0.7439,-0.7439,-0.7285,-0.7119,-0.7119,-0.7105,-0.7095,-0.7095,-0.7095,-0.7095,-0.7095,-0.7095,-0.7228,-0.7764,-0.804,-0.8304,-0.8747,-0.8476,-0.8062,-0.7622,-0.7223,-0.6903,0.0,0.0,0.0,0.0,0.0,-0.6377,-0.6563,-0.6412,-0.6106,-0.5637,-0.5204,0.0,0.0,-0.3098,0.0,0.0,0.0,0.0,-0.1139,0.0,-0.0118,0.0157,0.0707,0.1218,0.1728,0.2276,0.2668,0.2904,0.2904,0.2863,0.2824,0.2273,0.1648,0.1021,0.0589,0.0353,0.0314,0.0118,0.0039,0.0039,0.0,0.0,0.0,0.0,0.0,0.0,0.0,0.0,0.0,0.0,-1.49,-1.4295,-1.413,-1.3532,-1.2782,-1.2089,-1.1574,-1.0997,-1.0046,-0.9596,-0.9149,-0.8676,-0.8608,-0.8574,-0.8574,-0.8516,-0.8442,-0.8357,-0.835,-0.8225,0.0,0.0,0.0,0.0,0.0,0.0,0.0,0.0,-0.7988,-0.7988,-0.7988,-0.7988,-0.7982,-0.7891,-0.7902,-0.7885,-0.774,-0.7628,-0.7539,-0.7485,-0.7363,-0.7234,-0.7234,-0.7234,-0.7234,-0.7234,-0.7146,-0.7095,-0.7095,-0.7095,-0.7095,-0.7095,-0.7095,-0.7095,-0.7095,-0.7034,-0.7101,-0.7447,-0.7746,-0.7927,-0.7979,-0.7764,-0.7457,-0.7034,-0.6942,-0.6749,0.0,0.0,0.0,0.0,0.0,-0.6988,-0.6949,-0.6872,-0.6606,-0.6067,-0.5515,0.0,0.0,0.0,0.0,0.0,0.0,0.0,-0.2041,0.0,-0.1216,-0.0784,-0.0275,0.0353,0.1021,0.1374,0.1649,0.1885,0.1885,0.1805,0.1649,0.1295,0.0903,0.051,0.0353,0.0236,0.0118,0.0039,0.0,0.0,0.0,0.0,0.0,-1.5891,0.0,-1.5891,0.0,-1.569,-1.5452,-1.5376,-1.4874,-1.4366,-1.4029,-1.3254,-1.251,-1.1986,-1.1535,-1.0862,-0.9884,-0.9442,-0.9023,-0.8542,-0.8442,-0.8421,-0.8421,-0.8377,0.0,-0.8204,-0.8204,-0.815,-0.7988,-0.7988,0.0,0.0,0.0,0.0,0.0,-0.7988,-0.7988,-0.7985,-0.7941,-0.7924,-0.7911,-0.7811,-0.775,-0.7733,-0.7587,-0.7465,-0.7412,-0.7319,-0.7234,-0.7095,-0.7095,-0.7095,-0.7095,-0.7095,-0.7095,-0.7095,-0.7095,-0.7095,-0.7095,-0.7095,-0.7095,-0.7085,-0.7045,-0.696,-0.6958,-0.7208,-0.7409,-0.7485,-0.7351,-0.7184,-0.6949,-0.6641,-0.6598,-0.6479,-0.6173,0.0,0.0,0.0,-0.7365,0.0,-0.7296,-0.7219,-0.6953,-0.6377,-0.575,0.0,0.0,0.0,0.0,0.0,0.0,0.0,0.0,0.0,0.0,0.0,-0.0981,-0.0393,0.0236,0.0589,0.0825,0.1021,0.1061,0.0943,0.0707,0.0589,0.0393,0.0196,0.0196,0.0118,0.0,0.0,0.0,0.0,0.0,0.0,0.0,-1.5891,-1.5891,-1.5891,-1.5891,-1.569,-1.5394,-1.5176,-1.4612,-1.4005,-1.3456,-1.2915,-1.2588,-1.2601,-1.2028,-1.1301,-1.0285,-0.9646,-0.9066,-0.8535,-0.835,-0.8323,0.0,0.0,-0.7995,-0.7992,-0.7992,-0.7992,-0.7988,0.0,0.0,-0.7988,0.0,-0.7988,-0.7988,-0.7988,-0.7988,-0.7978,-0.7879,-0.7814,-0.7801,-0.7658,-0.76,-0.7587,-0.7434,-0.7419,-0.7353,-0.7197,-0.7098,-0.7095,-0.7095,-0.7095,-0.7095,-0.7095,-0.7095,-0.7095,-0.7095,-0.7095,-0.7095,-0.7095,-0.7095,-0.7061,-0.6923,-0.6886,-0.6931,-0.7069,-0.7112,-0.7113,-0.7181,-0.6872,-0.6602,-0.6602,-0.6212,-0.6057,-0.6521,0.0,0.0,0.0,-0.7672,0.0,-0.7518,-0.7334,-0.6953,-0.6377,-0.587,0.0,0.0,0.0,0.0,0.0,0.0,0.0,-0.3407,-0.302,0.0,-0.2196,-0.1335,-0.0786,-0.0589,0.0039,0.0314,0.0314,0.051,0.051,0.0314,0.0314,0.0196,0.0,0.0,0.0,0.0,0.0,0.0,0.0,0.0,0.0,0.0,-1.5354,-1.52,-1.509,-1.509,-1.4838,-1.4654,-1.4567,-1.4242,-1.3859,-1.3486,-1.3167,-1.2669,-1.1969,-1.1521,-1.0741,0.0,-0.9259,-0.8852,0.0,-0.814,-0.8113,-0.8113,-0.8015,-0.7988,-0.7988,-0.7988,-0.7988,-0.7988,0.0,0.0,0.0,-0.7746,-0.7643,-0.7434,-0.7389,-0.7394,-0.7384,-0.7388,-0.7374,-0.7411,-0.7456,-0.7444,-0.7428,-0.7272,-0.7214,-0.7207,-0.7112,-0.7095,-0.7095,-0.7095,-0.7095,-0.7078,-0.698,-0.7018,-0.7095,-0.7095,-0.7028,-0.6953,-0.6953,-0.6876,-0.6827,-0.6783,-0.6695,-0.6607,-0.6519,-0.6275,-0.6116,-0.63,-0.6212,-0.6096,-0.5944,-0.6177,-0.6444,-0.656,-0.7096,0.0,-0.8055,0.0,-0.8322,-0.8136,-0.7676,-0.7215,-0.6753,-0.6022,0.0,0.0,0.0,0.0,0.0,0.0,0.0,0.0,-0.3684,0.0,-0.3017,-0.2196,-0.1687,-0.149,-0.0825,-0.0393,-0.0118,0.0118,0.0157,0.0079,0.0079,0.0079,0.0,0.0,0.0,0.0,0.0,0.0,0.0,0.0,0.0,0.0,-1.5107,-1.4898,-1.4695,-1.4695,-1.4384,-1.4095,-1.3999,-1.378,-1.3449,-1.3015,-1.2703,-1.2143,-1.1102,-1.0698,0.0,-0.9198,-0.9036,-0.8689,-0.8045,-0.7988,-0.7988,-0.7988,-0.7988,-0.7988,-0.7988,-0.7988,0.0,-0.7842,-0.7739,-0.759,-0.7441,-0.7437,-0.7313,-0.7156,-0.707,-0.7011,-0.7002,-0.7007,-0.6994,-0.7028,-0.7025,-0.7105,-0.7143,-0.7047,-0.7054,-0.7095,-0.7095,-0.7095,-0.7088,-0.7034,-0.7018,-0.6991,-0.6757,-0.6774,-0.6844,-0.693,-0.6869,-0.6844,-0.6844,-0.6773,-0.6688,-0.6548,-0.6465,-0.6341,-0.6129,-0.5891,-0.5789,-0.6022,-0.598,-0.5902,-0.587,-0.6219,-0.6563,-0.6795,-0.7365,-0.7902,-0.825,0.0,-0.8475,0.0,0.0,0.0,0.0,-0.6022,-0.5559,0.0,0.0,0.0,0.0,0.0,0.0,-0.4501,-0.419,0.0,-0.3684,-0.2899,-0.243,-0.2235,-0.1492,-0.0982,-0.0668,-0.055,-0.0471,-0.0471,-0.0471,-0.0432,-0.0353,-0.0353,-0.0236,-0.0118,-0.0118,-0.0079,0.0,0.0,-0.0039,-0.0157,-1.5002,-1.4743,-1.4585,0.0,-1.4123,0.0,-1.3419,-1.3181,-1.2759,-1.2006,-1.1634,-1.1047,-1.0068,-0.9727,-0.948,-0.9183,0.0,0.0,0.0,-0.7988,-0.7988,-0.7988,-0.7988,-0.7988,-0.7992,-0.7992,-0.7836,-0.758,-0.7325,-0.7167,-0.7158,-0.7079,-0.707,-0.7015,-0.6887,-0.6829,-0.682,-0.6728,-0.667,-0.6657,-0.6483,-0.6567,-0.6792,-0.6792,-0.6874,-0.7037,-0.7037,-0.7031,-0.7001,-0.687,-0.6826,-0.68,-0.6476,-0.6347,-0.6392,-0.6612,-0.665,-0.6643,-0.6643,-0.6637,-0.6555,-0.6217,-0.6144,-0.6109,-0.5931,-0.5864,-0.5941,-0.6183,-0.606,-0.598,-0.6219,-0.63,-0.649,-0.7103,-0.7518,-0.7863,-0.8063,0.0,-0.8131,0.0,0.0,0.0,0.0,-0.587,-0.5518,0.0,0.0,0.0,0.0,0.0,-0.4898,-0.474,-0.454,-0.4348,-0.4157,-0.3487,-0.3056,-0.2824,-0.2003,-0.1532,-0.1335,-0.1296,-0.1296,-0.1296,-0.1296,-0.1139,-0.0943,-0.0943,-0.0707,-0.0353,-0.0314,-0.0196,-0.0039,-0.0039,-0.0157,-0.0314,0.0,0.0,-1.3275,-1.3275,-1.2631,-1.2112,-1.2061,-1.1511,-1.1004,-1.0811,-1.0364,-0.9924,-0.943,-0.9335,-0.9084,-0.8634,-0.8531,-0.8333,-0.8038,-0.7988,-0.7988,-0.7988,-0.7988,-0.7892,-0.7696,-0.7696,-0.7539,-0.7232,-0.7131,-0.6982,-0.6643,-0.6658,-0.6552,-0.6311,-0.6188,-0.6129,-0.6124,-0.6226,-0.626,-0.6257,-0.6355,-0.6432,-0.6476,-0.6476,-0.6502,-0.6504,-0.6504,-0.6432,-0.6337,-0.6305,-0.6293,-0.6267,-0.6084,-0.5997,-0.6059,-0.621,-0.6166,-0.6081,-0.6081,-0.5968,-0.5841,-0.5771,-0.5644,-0.5554,-0.5643,-0.5556,-0.5515,-0.5715,-0.5828,-0.5902,-0.598,-0.6293,-0.6641,-0.6903,-0.7326,-0.7633,-0.7825,-0.7902,0.0,0.0,-0.7061,-0.6641,-0.6338,-0.575,-0.5359,0.0,0.0,0.0,0.0,-0.5018,-0.4979,-0.4937,-0.474,-0.4621,-0.4545,-0.4114,-0.3567,-0.3015,-0.2353,-0.1961,-0.1765,-0.1453,-0.1296,-0.1296,-0.1296,-0.1257,-0.1218,-0.1218,-0.1021,-0.0746,-0.0589,-0.0393,-0.0236,-0.0236,-0.0275,-0.0393,-1.3007,-1.271,-1.237,-1.2127,-1.1487,-1.0998,-1.0904,-1.0413,-0.9969,-0.9871,-0.9579,-0.9282,-0.8886,-0.8836,-0.8638,-0.8088,-0.8237,-0.8283,-0.8041,-0.7892,-0.7793,-0.7793,-0.769,-0.759,-0.7441,-0.7381,-0.718,-0.6846,-0.6706,-0.6527,-0.6317,-0.626,-0.6139,-0.5996,-0.588,-0.5825,-0.582,-0.5891,-0.5908,-0.5902,-0.5972,-0.6078,-0.6159,-0.61,-0.6123,-0.619,-0.619,-0.614,-0.6108,-0.6046,-0.6025,-0.5959,-0.5704,-0.5619,-0.5634,-0.5592,-0.5682,-0.5781,-0.5781,-0.5689,-0.5559,-0.5479,-0.5323,-0.5246,-0.5521,-0.5518,-0.5518,-0.587,-0.6025,-0.6099,-0.6099,-0.637,-0.6676,-0.6865,-0.7176,-0.7369,-0.7399,-0.7399,0.0,-0.6826,-0.6483,-0.6173,-0.5867,-0.5437,-0.5124,-0.5049,-0.4857,0.0,-0.474,-0.4818,-0.4898,-0.4979,-0.4898,-0.482,-0.482,-0.4428,-0.3997,-0.3565,-0.3136,-0.286,-0.2743,-0.2549,-0.2433,-0.2433,-0.2433,-0.2314,-0.2118,-0.2041,-0.1689,-0.1178,-0.0864,-0.0628,-0.0432,-0.0353,-0.051,-0.0825,-1.2078,-1.1829,-1.1482,-1.1047,-1.0458,-1.0015,-0.9772,-0.9476,-0.9229,-0.8985,-0.8935,-0.8737,-0.8283,-0.8233,-0.8038,-0.7593,-0.7939,-0.8134,-0.7889,-0.7643,-0.7534,-0.7515,-0.7307,-0.7149,-0.7078,-0.7015,-0.6795,-0.6429,-0.6197,-0.6048,-0.6032,-0.5926,-0.5877,-0.5874,-0.5731,-0.5688,-0.5688,-0.5669,-0.5661,-0.565,-0.5529,-0.5606,-0.5806,-0.5706,-0.5776,-0.5962,-0.5962,-0.595,-0.5917,-0.5799,-0.5762,-0.5701,-0.5355,-0.5243,-0.5207,-0.5054,-0.5249,-0.5521,-0.5521,-0.5521,-0.5482,-0.5285,-0.5132,-0.5093,-0.5482,-0.5559,-0.5676,-0.6106,-0.6183,-0.6183,-0.6183,-0.6374,-0.656,-0.671,-0.6907,-0.6988,-0.6788,0.0,-0.6518,-0.5941,-0.5786,-0.5628,-0.5279,-0.5043,-0.4851,-0.4659,-0.4501,-0.4384,-0.4384,-0.4582,-0.474,-0.4898,-0.4976,-0.5018,-0.5018,-0.4621,-0.4348,-0.4196,-0.3921,-0.3802,-0.3802,-0.3763,-0.3763,-0.3763,-0.3802,-0.3565,-0.3132,-0.2942,-0.2395,-0.165,-0.1139,-0.0825,-0.0628,-0.0471,-0.0786,-0.1375,-1.0703,-1.0306,-0.9953,-0.9854,-0.9217,-0.868,-0.868,-0.823,-0.7879,-0.7832,-0.7633,-0.7487,-0.7388,-0.7388,-0.7338,-0.7288,-0.7338,-0.7388,-0.7338,-0.7288,-0.7236,-0.7167,-0.7116,-0.6964,-0.6614,-0.6359,-0.6147,-0.5977,-0.5931,-0.5882,-0.5742,-0.5723,-0.5715,-0.5715,-0.5696,-0.5688,-0.5683,-0.5578,-0.5534,-0.5526,-0.5447,-0.544,-0.5477,-0.546,-0.5388,-0.5338,-0.5338,-0.5274,-0.5187,-0.5129,-0.5121,-0.5118,-0.506,-0.5054,-0.5054,-0.5018,-0.5054,-0.5093,-0.5093,-0.5093,-0.5093,-0.5054,-0.5015,-0.5054,-0.5285,-0.5359,-0.5401,-0.5676,-0.5715,-0.5715,-0.5715,-0.5867,-0.6018,-0.6054,-0.6254,-0.6335,-0.6096,0.0,-0.5941,-0.5676,-0.5356,-0.5121,-0.5043,-0.4693,-0.4462,-0.4462,-0.4423,-0.4384,-0.4384,-0.4423,-0.4462,-0.4501,-0.4818,-0.5018,-0.5018,-0.4779,-0.4623,-0.4584,-0.4075,-0.3802,-0.3802,-0.3565,-0.3487,-0.3565,-0.3724,-0.3643,-0.3329,-0.3139,-0.2669,-0.204,-0.1453,-0.1061,-0.0864,-0.0825,-0.1021,-0.1375,-0.9324,-0.9122,-0.8871,-0.857,-0.8226,-0.7932,-0.7783,-0.7534,-0.7385,-0.7385,-0.7285,-0.7188,-0.7188,-0.7188,-0.7111,-0.6941,-0.6935,-0.6856,-0.664,-0.6798,-0.6875,-0.6789,-0.6643,-0.644,-0.6171,-0.6078,-0.5928,-0.5812,-0.5812,-0.5739,-0.5688,-0.5621,-0.5591,-0.5588,-0.5567,-0.5537,-0.5534,-0.5477,-0.5453,-0.5442,-0.532,-0.5312,-0.5262,-0.5203,-0.5143,-0.5094,-0.5094,-0.5061,-0.5018,-0.5018,-0.5018,-0.5018,-0.5018,-0.5018,-0.5018,-0.5018,-0.5018,-0.5018,-0.5018,-0.5018,-0.5018,-0.5018,-0.5018,-0.5054,-0.5243,-0.5282,-0.5359,-0.5559,-0.5598,-0.5598,-0.5598,-0.575,-0.5902,-0.5902,-0.6138,0.0,0.0,-0.5631,-0.5476,-0.5168,-0.4851,-0.4693,-0.4693,-0.4423,-0.4231,-0.4231,-0.4153,-0.4073,-0.4073,-0.4192,-0.4231,-0.4231,-0.4504,-0.4659,-0.4659,-0.4582,-0.4543,-0.4543,-0.4268,-0.4114,-0.4114,-0.3995,-0.3956,-0.3995,-0.3958,-0.3841,-0.3606,-0.3256,-0.2826,-0.2314,-0.1804,-0.1531,-0.1415,-0.1335,-0.1492,-0.1804,-0.8134,-0.8084,-0.7885,-0.7484,-0.7381,-0.7232,-0.7036,-0.7036,-0.7036,-0.7036,-0.7036,-0.7027,-0.6997,-0.6994,-0.6891,-0.6571,-0.656,-0.641,-0.6098,-0.632,-0.6471,-0.6371,-0.6155,-0.5961,-0.5866,-0.5818,-0.5729,-0.5644,-0.551,-0.551,-0.5549,-0.5344,-0.5292,-0.5373,-0.5212,-0.5202,-0.5243,-0.5173,-0.516,-0.5193,-0.5074,-0.5026,-0.5055,-0.4972,-0.4976,-0.5018,-0.5018,-0.5018,-0.5018,-0.5018,-0.5018,-0.5018,-0.5018,-0.5018,-0.5018,-0.5018,-0.5018,-0.5018,-0.5018,-0.5018,-0.5018,-0.5018,-0.5018,-0.5054,-0.5207,-0.5243,-0.5285,-0.5443,-0.5443,-0.5443,-0.5443,-0.5634,-0.5744,-0.5744,0.0,0.0,0.0,-0.5321,-0.5085,-0.4659,-0.4465,-0.4345,-0.4345,-0.4155,-0.404,-0.404,-0.3882,-0.3802,-0.3802,-0.396,-0.404,-0.404,-0.4268,-0.4384,-0.4384,-0.4384,-0.4384,-0.4345,-0.4268,-0.4187,-0.4109,-0.4109,-0.4109,-0.4109,-0.3997,-0.3843,-0.3684,-0.3256,-0.2865,-0.247,-0.2038,-0.1922,-0.1964,-0.1728,-0.1884,-0.2156,-0.7288,-0.7092,-0.6892,-0.6842,-0.6639,-0.6487,-0.6487,-0.6437,-0.6437,-0.6437,-0.6437,-0.6446,-0.639,-0.6379,-0.633,-0.6155,-0.6147,-0.6095,-0.5923,-0.5923,-0.5972,-0.5961,-0.5814,-0.571,-0.5702,-0.5521,-0.5424,-0.5416,-0.4973,-0.4882,-0.5053,-0.4731,-0.4685,-0.4944,-0.462,-0.4573,-0.4738,-0.4471,-0.4473,-0.4667,-0.4518,-0.4553,-0.475,-0.4742,-0.482,-0.5018,-0.5018,-0.5018,-0.5018,-0.5018,-0.5018,-0.5018,-0.5018,-0.5018,-0.5018,-0.5018,-0.5018,-0.5018,-0.5018,-0.5018,-0.5018,-0.5018,-0.5018,-0.5018,-0.5015,-0.5015,-0.5015,-0.5054,-0.5054,-0.5054,-0.5054,-0.5207,-0.5359,-0.5359,0.0,0.0,-0.5082,-0.5043,-0.4888,-0.4462,-0.4231,-0.4118,-0.4118,-0.3921,-0.3841,-0.3841,-0.3802,-0.3802,-0.3802,-0.3802,-0.3841,-0.3841,-0.419,-0.4384,-0.4384,-0.4384,-0.4309,-0.4118,-0.3919,-0.3604,-0.321,-0.321,-0.321,-0.321,-0.3368,-0.3446,-0.3409,-0.3178,-0.2865,-0.247,-0.2038,-0.1999,-0.2157,-0.196,-0.1999,-0.2156,-0.6686,-0.6637,-0.6539,-0.6539,-0.6487,-0.6387,-0.6387,-0.6377,-0.6333,-0.6333,-0.6265,-0.6203,-0.6159,-0.6154,-0.6105,-0.5983,-0.5882,-0.5742,-0.5575,-0.53,-0.53,-0.557,-0.526,-0.5062,-0.5062,-0.4837,-0.4701,-0.4701,-0.4523,-0.4493,-0.4518,-0.4293,-0.4221,-0.4288,-0.4108,-0.4065,-0.4143,-0.4027,-0.4051,-0.4088,-0.4051,-0.4075,-0.4153,-0.4272,-0.4392,-0.447,-0.474,-0.4818,-0.482,-0.4976,-0.5018,-0.5018,-0.5018,-0.5018,-0.5018,-0.5018,-0.4898,-0.4818,-0.4818,-0.4898,-0.5018,-0.5018,-0.5018,-0.5018,-0.5018,-0.5018,-0.5018,-0.5018,-0.5018,-0.4976,-0.482,-0.4971,-0.5085,-0.4932,0.0,-0.5124,-0.4854,-0.4696,-0.454,-0.4231,-0.4038,-0.3921,-0.3921,-0.3843,-0.3802,-0.3802,-0.3802,-0.3802,-0.3802,-0.3684,-0.3604,-0.3604,-0.3489,-0.3565,-0.3837,-0.3565,-0.3372,-0.3295,-0.2979,-0.2704,-0.2547,-0.2547,-0.2626,-0.2743,-0.2823,-0.2901,-0.3018,-0.2824,-0.2628,-0.247,-0.2314,-0.2314,-0.2353,-0.2156,-0.2038,-0.1921,-0.6325,-0.6325,-0.6325,-0.6325,-0.6325,-0.6325,-0.6325,-0.626,-0.6259,-0.6259,-0.6087,-0.5976,-0.5941,-0.5792,-0.5652,-0.5539,-0.5304,-0.5139,-0.5065,-0.4614,-0.4569,-0.5013,-0.4748,-0.4569,-0.4569,-0.4255,-0.4076,-0.4076,-0.3764,-0.3678,-0.377,-0.3477,-0.34,-0.3489,-0.3288,-0.3292,-0.3372,-0.3253,-0.3292,-0.3411,-0.3411,-0.345,-0.3604,-0.3724,-0.3882,-0.4038,-0.4311,-0.4426,-0.4426,-0.4584,-0.4665,-0.4704,-0.4704,-0.4742,-0.4818,-0.4818,-0.4701,-0.4621,-0.4621,-0.4701,-0.4818,-0.4818,-0.4818,-0.4818,-0.4818,-0.4818,-0.4818,-0.4818,-0.4818,-0.4779,-0.4621,-0.4735,-0.4774,-0.4621,-0.4735,-0.4732,-0.4545,-0.4387,-0.4231,-0.4038,-0.3882,-0.3802,-0.3802,-0.3802,-0.3802,-0.3802,-0.3802,-0.3763,-0.3724,-0.3448,-0.3253,-0.3175,-0.2744,-0.2627,-0.2898,-0.2705,-0.255,-0.2431,-0.2156,-0.1921,-0.1804,-0.1883,-0.2041,-0.2237,-0.2276,-0.2472,-0.2707,-0.255,-0.2511,-0.2511,-0.2431,-0.2392,-0.2392,-0.2118,-0.1844,-0.1491,-0.6086,-0.6086,-0.6086,-0.6086,-0.6086,-0.6086,-0.6086,-0.6086,-0.6083,-0.6083,-0.5845,-0.566,-0.5601,-0.5122,-0.476,-0.4712,-0.4433,-0.43,-0.43,-0.3853,-0.381,-0.4253,-0.43,-0.43,-0.43,-0.381,-0.3587,-0.3587,-0.2647,-0.2395,-0.2774,-0.2249,-0.2201,-0.2558,-0.21,-0.2117,-0.247,-0.2078,-0.2117,-0.251,-0.251,-0.2743,-0.3093,-0.3093,-0.3368,-0.3802,-0.3802,-0.3802,-0.3802,-0.3802,-0.3921,-0.4079,-0.4079,-0.4231,-0.4384,-0.4384,-0.4384,-0.4384,-0.4384,-0.4384,-0.4384,-0.4384,-0.4384,-0.4384,-0.4384,-0.4384,-0.4384,-0.4384,-0.4384,-0.4384,-0.4384,-0.4384,-0.4384,-0.4384,-0.4384,-0.4307,-0.4118,-0.4079,-0.404,-0.3841,-0.3802,-0.3802,-0.3802,-0.3802,-0.3802,-0.3802,-0.3802,-0.3724,-0.3487,-0.3059,-0.2707,-0.2511,-0.2117,-0.1803,-0.1607,-0.1999,-0.1999,-0.1607,-0.1607,-0.1333,-0.0904,-0.1178,-0.1415,-0.1611,-0.1808,-0.212,-0.2511,-0.2511,-0.2511,-0.247,-0.2275,-0.2196,-0.2157,-0.1728,-0.1296,-0.0825,-0.5372,-0.5325,-0.528,-0.514,-0.5142,-0.5142,-0.5142,-0.5033,-0.4986,-0.4986,-0.4833,-0.4729,-0.4703,-0.4563,-0.4463,-0.4435,-0.4032,-0.354,-0.2869,-0.2691,-0.2511,-0.2285,-0.2645,-0.2825,-0.2825,-0.2332,-0.2062,-0.2062,-0.1768,-0.1691,-0.1739,-0.1577,-0.1583,-0.1666,-0.1536,-0.1531,-0.1649,-0.1531,-0.1531,-0.1649,-0.1649,-0.1727,-0.1884,-0.2156,-0.2272,-0.2311,-0.2902,-0.302,-0.294,-0.3212,-0.3368,-0.3407,-0.3565,-0.3643,-0.368,-0.368,-0.3602,-0.3483,-0.3483,-0.3641,-0.3878,-0.4307,-0.4384,-0.4384,-0.4384,-0.4384,-0.4384,-0.4384,-0.4384,-0.4345,-0.4233,-0.4194,-0.4155,-0.3997,-0.3997,-0.3958,-0.3882,-0.3882,-0.3882,-0.3802,-0.3802,-0.3763,-0.3604,-0.3604,-0.3528,-0.3335,-0.3178,-0.302,-0.2823,-0.2392,-0.2078,-0.1882,-0.1452,-0.1099,-0.0903,-0.1139,-0.1217,-0.1099,-0.0824,-0.0707,-0.0707,-0.0904,-0.1218,-0.1611,-0.1808,-0.2042,-0.2275,-0.212,-0.2003,-0.1846,-0.1806,-0.157,-0.1256,-0.0982,-0.055,0.0039,-0.4785,-0.4739,-0.4692,-0.4555,-0.4558,-0.4558,-0.4558,-0.4464,-0.4427,-0.4427,-0.4199,-0.4032,-0.4032,-0.3674,-0.3451,-0.3451,-0.3004,-0.2511,-0.193,-0.1794,-0.1615,-0.13,-0.1436,-0.1615,-0.1885,-0.148,-0.1211,-0.1121,-0.0922,-0.0859,-0.0883,-0.0822,-0.0884,-0.1021,-0.0943,-0.0943,-0.1021,-0.0943,-0.0943,-0.1021,-0.1021,-0.1061,-0.1178,-0.1334,-0.1372,-0.1372,-0.1765,-0.1845,-0.1804,-0.2038,-0.2233,-0.2427,-0.2702,-0.2821,-0.2821,-0.2821,-0.2702,-0.2624,-0.2702,-0.286,-0.3095,-0.3524,-0.3917,-0.4151,-0.4151,-0.4151,-0.4151,-0.4151,-0.4151,-0.4114,-0.3999,-0.3999,-0.396,-0.3802,-0.3724,-0.3684,-0.3684,-0.3606,-0.353,-0.353,-0.353,-0.345,-0.3255,-0.3214,-0.3137,-0.2982,-0.2707,-0.2511,-0.2392,-0.1922,-0.153,-0.1216,-0.0864,-0.055,-0.0353,-0.0471,-0.055,-0.055,-0.0314,-0.0275,-0.0471,-0.0707,-0.1021,-0.1493,-0.1611,-0.1767,-0.1923,-0.1649,-0.1415,-0.1296,-0.1061,-0.0707,-0.0275,0.0039,0.0588,0.1216,-0.4121,-0.4121,-0.4076,-0.403,-0.403,-0.403,-0.403,-0.403,-0.403,-0.403,-0.3674,-0.3408,-0.3408,-0.2647,-0.2109,-0.2109,-0.166,-0.1345,-0.13,-0.1121,-0.0987,-0.0942,-0.0538,-0.0583,-0.1211,-0.1031,-0.0851,-0.0581,-0.0131,-0.0043,-0.021,-0.0041,-0.016,-0.0471,-0.0314,-0.0314,-0.0471,-0.0314,-0.0314,-0.051,-0.0509,-0.0587,-0.0744,-0.0587,-0.0626,-0.0744,-0.0589,-0.055,-0.051,-0.055,-0.0824,-0.1293,-0.1647,-0.1764,-0.1764,-0.1764,-0.1764,-0.1843,-0.1999,-0.2117,-0.2195,-0.2392,-0.3018,-0.3645,-0.3684,-0.3684,-0.3684,-0.3684,-0.3684,-0.3684,-0.3684,-0.3684,-0.3684,-0.3684,-0.3526,-0.3409,-0.337,-0.3176,-0.3023,-0.3023,-0.3023,-0.2943,-0.2747,-0.2747,-0.2708,-0.2746,-0.2393,-0.2157,-0.2157,-0.157,-0.1061,-0.0628,-0.0393,-0.0196,-0.0039,0.0,0.0,0.0,0.0,-0.0118,-0.0314,-0.0471,-0.0825,-0.1218,-0.1218,-0.1296,-0.1454,-0.0982,-0.0786,-0.0668,-0.0079,0.0392,0.0823,0.1293,0.1959,0.2627,-0.2781,-0.2647,-0.2511,-0.2107,-0.2017,-0.2017,-0.2017,-0.2017,-0.2017,-0.2017,-0.1928,-0.1883,-0.1883,-0.1705,-0.157,-0.157,-0.13,-0.0942,-0.0359,-0.0269,-0.009,0.0314,0.0403,0.0403,0.0269,0.0134,0.0178,0.0394,0.0514,0.0503,0.041,0.044,0.0434,0.0353,0.0393,0.0393,0.0353,0.0393,0.0393,0.0353,0.0346,0.0305,0.0267,0.0153,0.0191,0.023,-0.0039,-0.0039,0.0079,-0.0079,-0.0314,-0.0549,-0.0628,-0.0628,-0.0628,-0.0628,-0.0746,-0.0903,-0.0942,-0.1333,-0.1724,-0.1803,-0.2038,-0.2391,-0.2705,-0.2785,-0.2785,-0.2785,-0.2785,-0.2785,-0.2785,-0.2785,-0.2785,-0.2785,-0.2744,-0.2666,-0.251,-0.2431,-0.2392,-0.2392,-0.2392,-0.2392,-0.2353,-0.2199,-0.2159,-0.2314,-0.1962,-0.1728,-0.1728,-0.1257,-0.0864,-0.0589,-0.0393,-0.0275,-0.0236,0.0079,0.0157,0.0,0.0,-0.0118,-0.0314,-0.0353,-0.051,-0.0746,-0.0589,-0.055,-0.055,-0.0118,0.0236,0.055,0.1059,0.1607,0.2156,0.2546,0.3056,0.3567,-0.1929,-0.1839,-0.1749,-0.1436,-0.1391,-0.1391,-0.1391,-0.1391,-0.1345,-0.1256,-0.1166,-0.1031,-0.0942,-0.0673,-0.0493,-0.0403,-0.0314,-0.009,0.0314,0.0314,0.0493,0.0897,0.0897,0.1076,0.1391,0.1243,0.1055,0.0827,0.08,0.0782,0.0773,0.0755,0.0707,0.0589,0.0589,0.0589,0.0589,0.0582,0.0618,0.0616,0.0563,0.0558,0.0559,0.0565,0.0644,0.0722,0.0662,0.0707,0.0746,0.051,0.0353,0.0275,0.0157,0.0118,0.0118,0.0118,0.0039,-0.0039,-0.0157,-0.0432,-0.0706,-0.0824,-0.0902,-0.1216,-0.204,-0.2196,-0.2196,-0.2196,-0.2196,-0.2196,-0.2196,-0.2196,-0.2196,-0.2196,-0.2117,-0.2038,-0.1921,-0.1844,-0.1805,-0.1884,-0.1923,-0.1884,-0.1766,-0.1492,-0.1375,-0.1569,-0.1295,-0.1139,-0.1139,-0.0786,-0.051,-0.0314,-0.0118,0.0039,0.0118,0.0432,0.0628,0.0745,0.0549,0.0314,0.0118,0.0236,0.0196,0.0118,0.0353,0.0588,0.0784,0.1177,0.1529,0.1882,0.243,0.2898,0.3329,0.3834,0.4341,0.489,-0.1121,-0.1076,-0.1076,-0.1031,-0.1031,-0.1031,-0.1031,-0.1031,-0.0987,-0.0807,-0.0583,-0.0403,-0.0224,0.0224,0.0583,0.0762,0.0852,0.0897,0.0942,0.0986,0.1121,0.139,0.139,0.1701,0.2276,0.2185,0.1859,0.1299,0.1205,0.1218,0.1253,0.1189,0.1099,0.0942,0.0942,0.0901,0.0896,0.0878,0.0868,0.0826,0.0695,0.0652,0.069,0.0857,0.0941,0.0982,0.1205,0.1296,0.1257,0.1061,0.0982,0.0943,0.0786,0.0707,0.0707,0.0707,0.0668,0.0628,0.0432,0.0393,0.0314,0.0157,0.0118,-0.0157,-0.1216,-0.1529,-0.1568,-0.1568,-0.1568,-0.1568,-0.1529,-0.1568,-0.1568,-0.1529,-0.1412,-0.1333,-0.1293,-0.1138,-0.11,-0.1296,-0.1375,-0.1335,-0.1139,-0.0786,-0.0628,-0.0825,-0.0628,-0.051,-0.055,-0.0314,-0.0118,0.0039,0.0314,0.0549,0.0785,0.1021,0.1373,0.1802,0.153,0.1217,0.0864,0.1099,0.1177,0.1253,0.1528,0.1841,0.2194,0.2586,0.2898,0.313,0.38,0.4187,0.4419,0.5079,0.5702,0.6286,0.0045,0.0134,0.0224,0.0403,0.0403,0.0403,0.0403,0.0403,0.0403,0.0448,0.0493,0.0538,0.0538,0.0807,0.1031,0.1031,0.1436,0.1749,0.1974,0.2152,0.2373,0.2643,0.2643,0.2667,0.2621,0.2606,0.2578,0.2451,0.2388,0.2334,0.2287,0.2278,0.2275,0.2235,0.2235,0.221,0.2127,0.1968,0.1868,0.1793,0.1424,0.1268,0.1272,0.1197,0.1172,0.118,0.1276,0.1296,0.1296,0.1257,0.1257,0.1257,0.1218,0.1218,0.1218,0.1218,0.1061,0.0864,0.0825,0.0707,0.055,0.051,0.051,0.0471,0.0314,0.0,-0.0275,-0.0275,-0.0275,-0.0196,-0.0039,-0.0157,-0.0196,-0.0039,-0.0118,-0.0157,0.0,0.0079,0.0,-0.0196,-0.051,-0.0668,-0.0471,-0.0393,-0.0432,-0.0628,-0.0275,-0.0157,-0.0314,0.0,0.0236,0.0275,0.0863,0.1254,0.145,0.1999,0.2391,0.266,0.3173,0.2901,0.1999,0.2196,0.2391,0.2582,0.2937,0.3134,0.3251,0.3679,0.399,0.4226,0.4851,0.524,0.5506,0.6321,0.7015,0.7553,0.0538,0.0583,0.0583,0.0673,0.0718,0.0718,0.0718,0.0718,0.0762,0.0897,0.0942,0.1031,0.13,0.166,0.1885,0.1885,0.2198,0.2465,0.2599,0.2689,0.2911,0.3272,0.3235,0.3375,0.3866,0.3777,0.3831,0.4037,0.3021,0.2537,0.2511,0.2511,0.2511,0.251,0.2474,0.2444,0.2378,0.2239,0.2127,0.2102,0.1802,0.1695,0.1688,0.1408,0.1324,0.1347,0.1319,0.1296,0.1296,0.1296,0.1296,0.1296,0.1296,0.1296,0.1296,0.1296,0.1218,0.1139,0.1257,0.1218,0.1178,0.1296,0.1335,0.1335,0.1335,0.1178,0.0943,0.0589,0.051,0.0589,0.0825,0.0668,0.055,0.0628,0.0471,0.0353,0.0471,0.0471,0.0393,0.0196,0.0,0.0,0.0196,0.0314,0.0393,0.0471,0.0628,0.0746,0.0745,0.0941,0.1137,0.1372,0.1881,0.2271,0.2585,0.3132,0.3561,0.3876,0.4151,0.388,0.3096,0.3409,0.368,0.3876,0.4034,0.4304,0.4652,0.4846,0.5198,0.5667,0.6054,0.6514,0.7053,0.7668,0.8127,0.8466]}]]